[[{"header":{"parameterUnit":"m.s-1","parameterCategory":1,"la1":31.0,"la2":29.5877,"lo1":-88.7671,"lo2":-86.6584,"dy":0.0162,"dx":0.0185,"nx":115,"ny":88,"refTime":"2024-05-28T06:00:00:Z","depth":0,"parameterNumber":2,"parameterNumberName":"U-component_of_WINDS"},"data":[0.0,0.0,0.0,0.0,0.0,0.0,0.0,0.0,0.0,0.0,0.0,0.0,0.0,0.0,0.0,0.0,0.0,0.0,0.0,0.0,0.0,0.0,0.0,0.0,0.0,0.0,0.0,0.0,0.0,0.0,0.0,0.0,0.0,0.0,0.0,0.0,0.0,0.0,0.0,0.0,0.0,0.0,0.0,0.0,0.0,0.0,0.0,0.0,0.0,0.0,0.0,0.0,0.0,0.0,0.0,0.0,0.0,0.0,0.0,0.0,0.0,0.0,0.0,0.0,0.0,0.0,0.0,0.0,0.0,0.0,0.0,0.0,0.0,0.0,0.0,0.0,0.0,0.0,0.0,0.0,0.0,0.0,0.0,0.0,0.0,0.0,0.0,0.0,0.0,0.0,0.0,0.0,0.0,0.0,0.0,0.0,0.0,0.0,0.0,0.0,0.0,0.0,0.0,0.0,0.0,0.0,0.0,0.0,0.0,0.0,0.0,0.0,0.0,0.0,0.0,0.0,0.0,0.0,0.0,0.0,0.0,0.0,0.0,0.0,0.0,0.0,0.0,0.0,0.0,0.0,0.0,0.0,0.0,0.0,0.0,0.0,0.0,0.0,0.0,0.0,0.0,0.0,0.0,0.0,0.0,0.0,0.0,0.0,0.0,0.0,0.0,0.0,0.0,0.0,0.0,0.0,0.0,0.0,0.0,0.0,0.0,0.0,0.0,0.0,0.0,0.0,0.0,0.0,0.0,0.0,0.0,0.0,0.0,0.0,0.0,0.0,0.0,0.0,0.0,0.0,0.0,0.0,0.0,0.0,0.0,0.0,0.0,0.0,0.0,0.0,0.0,0.0,0.0,0.0,0.0,0.0,0.0,0.0,0.0,0.0,0.0,0.0,0.0,0.0,0.0,0.0,0.0,0.0,0.0,0.0,0.0,0.0,0.0,0.0,0.0,0.0,0.0,0.0,0.0,0.0,0.0,0.0,0.0,0.0,0.0,0.0,0.0,0.0,0.0,0.0,0.0,0.0,0.0,0.0,0.0,0.0,0.0,0.0,0.0,0.0,0.0,0.0,0.0,0.0,0.0,0.0,0.0,0.0,0.0,0.0,0.0,0.0,0.0,0.0,0.0,0.0,0.0,0.0,0.0,0.0,0.0,0.0,0.0,0.0,0.0,0.0,0.0,0.0,0.0,0.0,0.0,0.0,0.0,0.0,0.0,0.0,0.0,0.0,0.0,0.0,0.0,0.0,0.0,0.0,0.0,0.0,0.0,0.0,0.0,0.0,0.0,0.0,0.0,0.0,0.0,0.0,0.0,0.0,0.0,0.0,0.0,0.0,0.0,0.0,0.0,0.0,0.0,0.0,0.0,0.0,0.0,0.0,0.0,0.0,0.0,0.0,0.0,0.0,0.0,0.0,0.0,0.0,0.0,0.0,0.0,0.0,0.0,0.0,0.0,0.0,0.0,0.0,0.0,0.0,0.0,0.0,0.0,0.0,0.0,0.0,0.0,0.0,0.0,0.0,0.0,0.0,0.0,0.0,0.0,0.0,0.0,0.0,0.0,0.0,0.0,0.0,0.0,0.0,0.0,0.0,0.0,0.0,0.0,0.0,0.0,0.0,0.0,0.0,0.0,0.0,0.0,0.0,0.0,0.0,0.0,0.0,0.0,0.0,0.0,0.0,0.0,0.0,0.0,0.0,0.0,0.0,0.0,0.0,0.0,0.0,0.0,0.0,0.0,0.0,0.0,0.0,0.0,0.0,0.0,0.0,0.0,0.0,0.0,0.0,0.0,0.0,0.0,0.0,0.0,0.0,0.0,0.0,0.0,0.0,0.0,0.0,0.0,0.0,0.0,0.0,0.0,0.0,0.0,0.0,0.0,0.0,0.0,0.0,0.0,0.0,0.0,0.0,0.0,0.0,0.0,0.0,0.0,0.0,0.0,0.0,0.0,0.0,0.0,0.0,0.0,0.0,0.0,0.0,0.0,0.0,0.0,0.0,0.0,0.0,0.0,0.0,0.0,0.0,0.0,0.0,0.0,0.0,0.0,0.0,0.0,0.0,0.0,0.0,0.0,0.0,0.0,0.0,0.0,0.0,0.0,0.0,0.0,0.0,0.0,0.0,0.0,0.0,0.0,0.0,0.0,0.0,0.0,0.0,0.0,0.0,0.0,0.0,0.0,0.0,0.0,0.0,0.0,0.0,0.0,0.0,0.0,0.0,0.0,0.0,0.0,0.0,0.0,0.0,0.0,0.0,0.0,0.0,0.0,0.0,0.0,0.0,0.0,0.0,0.0,0.0,0.0,0.0,0.0,0.0,0.0,0.0,0.0,0.0,0.0,0.0,0.0,0.0,0.0,0.0,0.0,0.0,0.0,0.0,0.0,0.0,0.0,0.0,0.0,0.0,0.0,0.0,0.0,0.0,0.0,0.0,0.0,0.0,0.0,0.0,0.0,0.0,0.0,0.0,0.0,0.0,0.0,0.0,0.0,0.0,0.0,0.0,0.0,0.0,0.0,0.0,0.0,0.0,0.0,0.0,0.0,0.0,0.0,0.0,0.0,0.0,0.0,0.0,0.0,0.0,0.0,0.0,0.0,0.0,0.0,0.0,0.0,0.0,0.0,0.0,0.0,0.0,0.0,0.0,0.0,0.0,0.0,0.0,0.0,0.0,0.0,0.0,0.0,0.0,0.0,0.0,0.0,0.0,0.0,0.0,0.0,0.0,0.0,0.0,0.0,0.0,0.0,0.0,0.0,0.0,0.0,0.0,0.0,0.0,0.0,0.0,0.0,0.0,0.0,0.0,0.0,0.0,0.0,0.0,0.0,0.0,0.0,0.0,0.0,0.0,0.0,0.0,0.0,0.0,0.0,0.0,0.0,0.0,0.0,0.0,0.0,0.0,0.0,0.0,0.0,0.0,0.0,0.0,0.0,0.0,0.0,0.0,0.0,0.0,0.0,0.0,0.0,0.0,0.0,0.0,0.0,0.0,0.0,0.0,0.0,0.0,0.0,0.0,0.0,0.0,0.0,0.0,0.0,0.0,0.0,0.0,0.0,0.0,0.0,0.0,0.0,0.0,0.0,0.0,0.0,0.0,0.0,0.0,0.0,0.0,0.0,0.0,0.0,0.0,0.0,0.0,0.0,0.0,0.0,0.0,0.0,0.0,0.0,0.0,0.0,0.0,0.0,0.0,0.0,0.0,0.0,0.0,0.0,0.0,0.0,0.0,0.0,0.0,0.0,0.0,0.0,0.0,0.0,0.0,0.0,0.0,0.0,0.0,0.0,0.0,0.0,0.0,0.0,0.0,0.0,0.0,0.0,0.0,0.0,0.0,0.0,0.0,0.0,0.0,0.0,0.0,0.0,0.0,0.0,0.0,0.0,0.0,0.0,0.0,0.0,0.0,0.0,0.0,0.0,0.0,0.0,0.0,0.0,0.0,0.0,0.0,0.0,0.0,0.0,0.0,0.0,0.0,0.0,0.0,0.0,0.0,0.0,0.0,0.0,0.0,0.0,0.0,0.0,0.0,0.0,0.0,0.0,0.0,0.0,0.0,0.0,0.0,0.0,0.0,0.0,0.0,0.0,0.0,0.0,0.0,0.0,0.0,0.0,0.0,0.0,0.0,0.0,0.0,0.0,0.0,0.0,0.0,0.0,0.0,0.0,0.0,0.0,0.0,0.0,0.0,0.0,0.0,0.0,0.0,0.0,0.0,0.0,0.0,0.0,0.0,0.0,0.0,0.0,0.0,0.0,0.0,0.0,0.0,0.0,0.0,0.0,0.0,0.0,0.0,0.0,0.0,0.0,0.0,0.0,0.0,0.0,0.0,0.0,0.0,0.0,0.0,0.0,0.0,0.0,0.0,0.0,0.0,0.0,0.0,0.0,0.0,0.0,0.0,0.0,0.0,0.0,0.0,0.0,0.0,0.0,0.0,0.0,0.0,0.0,0.0,0.0,0.0,0.0,0.0,0.0,0.0,0.0,0.0,0.0,0.0,0.0,0.0,0.0,0.0,0.0,0.0,0.0,0.0,0.0,0.0,0.0,0.0,0.0,0.0,0.0,0.0,0.0,0.0,0.0,0.0,0.0,0.0,0.0,0.0,0.0,0.0,0.0,0.0,0.0,0.0,0.0,0.0,0.0,0.0,0.0,0.0,0.0,0.0,0.0,0.0,0.0,0.0,0.0,0.0,0.0,0.0,0.0,0.0,0.0,0.0,0.0,0.0,0.0,0.0,0.0,0.0,0.0,0.0,0.0,0.0,0.0,0.0,-2.6258,0.0,0.0,0.0,0.0,0.0,0.0,0.0,0.0,0.0,0.0,0.0,0.0,0.0,0.0,0.0,0.0,0.0,0.0,0.0,0.0,0.0,0.0,0.0,0.0,0.0,0.0,0.0,0.0,0.0,0.0,0.0,0.0,0.0,0.0,0.0,0.0,0.0,0.0,0.0,0.0,0.0,0.0,0.0,0.0,0.0,0.0,0.0,0.0,0.0,0.0,0.0,0.0,0.0,0.0,0.0,0.0,0.0,0.0,0.0,0.0,0.0,0.0,0.0,0.0,0.0,0.0,0.0,0.0,0.0,0.0,0.0,0.0,0.0,0.0,0.0,0.0,0.0,0.0,0.0,0.0,0.0,0.0,0.0,0.0,0.0,0.0,0.0,0.0,0.0,0.0,0.0,0.0,0.0,0.0,0.0,0.0,0.0,0.0,0.0,0.0,0.0,0.0,0.0,0.0,0.0,0.0,0.0,0.0,0.0,0.0,-3.0034,-2.9062,-2.9463,-2.859,-2.6259,0.0,0.0,0.0,0.0,0.0,0.0,0.0,0.0,0.0,0.0,0.0,0.0,0.0,0.0,0.0,0.0,0.0,0.0,0.0,0.0,0.0,0.0,0.0,0.0,0.0,0.0,0.0,0.0,0.0,0.0,0.0,0.0,0.0,0.0,0.0,0.0,0.0,0.0,0.0,0.0,0.0,0.0,0.0,0.0,0.0,0.0,0.0,0.0,0.0,0.0,0.0,0.0,0.0,0.0,0.0,0.0,0.0,0.0,0.0,0.0,0.0,0.0,0.0,0.0,0.0,0.0,0.0,0.0,0.0,0.0,0.0,0.0,0.0,0.0,0.0,0.0,0.0,0.0,0.0,0.0,0.0,0.0,0.0,0.0,0.0,0.0,0.0,0.0,0.0,0.0,0.0,0.0,0.0,0.0,0.0,0.0,0.0,0.0,0.0,0.0,0.0,0.0,0.0,0.0,0.0,0.0,0.0,0.0,0.0,0.0,0.0,0.0,-3.0445,-2.9437,-2.6949,0.0,0.0,0.0,0.0,0.0,0.0,0.0,0.0,0.0,0.0,0.0,0.0,0.0,0.0,0.0,0.0,0.0,0.0,0.0,0.0,0.0,0.0,0.0,0.0,0.0,0.0,0.0,0.0,0.0,0.0,0.0,0.0,0.0,0.0,0.0,0.0,0.0,0.0,0.0,0.0,0.0,0.0,0.0,0.0,0.0,0.0,0.0,0.0,0.0,0.0,0.0,0.0,0.0,0.0,0.0,0.0,0.0,0.0,0.0,0.0,0.0,0.0,0.0,0.0,0.0,0.0,0.0,0.0,0.0,0.0,0.0,0.0,0.0,0.0,0.0,0.0,0.0,0.0,0.0,0.0,0.0,0.0,0.0,0.0,0.0,0.0,0.0,0.0,0.0,0.0,0.0,0.0,0.0,0.0,0.0,0.0,0.0,0.0,0.0,0.0,0.0,0.0,0.0,0.0,0.0,0.0,0.0,0.0,0.0,0.0,-3.1104,-3.1078,-3.2625,0.0,-2.923,0.0,0.0,0.0,0.0,0.0,0.0,0.0,0.0,0.0,0.0,0.0,0.0,0.0,0.0,0.0,0.0,0.0,0.0,0.0,0.0,0.0,0.0,0.0,0.0,0.0,0.0,0.0,0.0,0.0,0.0,0.0,0.0,0.0,0.0,0.0,0.0,0.0,0.0,0.0,0.0,0.0,0.0,0.0,0.0,0.0,0.0,0.0,0.0,0.0,0.0,0.0,0.0,0.0,0.0,0.0,0.0,0.0,0.0,0.0,0.0,0.0,0.0,0.0,0.0,0.0,0.0,0.0,0.0,0.0,0.0,0.0,0.0,0.0,0.0,0.0,0.0,0.0,0.0,0.0,0.0,0.0,0.0,0.0,0.0,0.0,0.0,0.0,0.0,0.0,0.0,0.0,0.0,0.0,0.0,0.0,0.0,0.0,0.0,0.0,0.0,0.0,0.0,0.0,0.0,0.0,0.0,0.0,0.0,0.0,0.0,-3.2208,-3.2842,-3.1697,-3.0572,0.0,0.0,0.0,0.0,0.0,0.0,0.0,0.0,0.0,0.0,0.0,0.0,0.0,0.0,0.0,0.0,0.0,0.0,0.0,0.0,0.0,0.0,0.0,0.0,0.0,0.0,0.0,0.0,0.0,0.0,0.0,0.0,0.0,0.0,0.0,0.0,0.0,0.0,0.0,0.0,0.0,0.0,0.0,0.0,0.0,0.0,0.0,0.0,0.0,0.0,0.0,0.0,0.0,0.0,0.0,0.0,0.0,0.0,0.0,0.0,0.0,0.0,0.0,0.0,0.0,0.0,0.0,0.0,0.0,0.0,0.0,0.0,0.0,0.0,0.0,0.0,0.0,0.0,0.0,0.0,0.0,0.0,0.0,0.0,0.0,0.0,0.0,0.0,0.0,0.0,0.0,0.0,0.0,0.0,0.0,0.0,0.0,0.0,0.0,0.0,0.0,0.0,0.0,0.0,0.0,0.0,0.0,0.0,0.0,0.0,-3.2763,0.0,-3.4528,-3.2033,-3.0371,-2.9954,0.0,0.0,0.0,0.0,0.0,0.0,0.0,0.0,0.0,0.0,0.0,0.0,0.0,0.0,0.0,0.0,0.0,0.0,0.0,0.0,0.0,0.0,0.0,0.0,0.0,0.0,0.0,0.0,0.0,0.0,0.0,0.0,0.0,0.0,0.0,0.0,0.0,0.0,0.0,0.0,0.0,0.0,0.0,0.0,0.0,0.0,0.0,0.0,0.0,0.0,0.0,0.0,0.0,0.0,0.0,0.0,0.0,0.0,0.0,0.0,0.0,0.0,0.0,0.0,0.0,0.0,0.0,0.0,0.0,0.0,0.0,0.0,0.0,0.0,0.0,0.0,0.0,0.0,0.0,0.0,0.0,0.0,0.0,0.0,0.0,0.0,0.0,0.0,0.0,0.0,0.0,0.0,0.0,0.0,0.0,0.0,0.0,0.0,0.0,0.0,0.0,0.0,0.0,0.0,0.0,0.0,0.0,0.0,0.0,-3.3685,-3.4166,-3.6482,-3.5018,-3.3093,0.0,0.0,0.0,0.0,0.0,0.0,0.0,0.0,0.0,0.0,0.0,0.0,0.0,0.0,0.0,0.0,0.0,0.0,0.0,0.0,0.0,0.0,0.0,0.0,0.0,0.0,0.0,0.0,0.0,0.0,0.0,0.0,0.0,0.0,0.0,0.0,0.0,0.0,0.0,0.0,0.0,0.0,0.0,0.0,0.0,0.0,0.0,0.0,0.0,0.0,0.0,0.0,0.0,0.0,0.0,0.0,0.0,0.0,0.0,0.0,0.0,0.0,0.0,0.0,0.0,0.0,0.0,0.0,0.0,0.0,0.0,0.0,0.0,0.0,0.0,0.0,0.0,0.0,0.0,0.0,0.0,0.0,0.0,0.0,0.0,0.0,0.0,0.0,0.0,0.0,0.0,0.0,0.0,0.0,0.0,0.0,0.0,0.0,0.0,0.0,0.0,0.0,0.0,0.0,0.0,0.0,0.0,0.0,0.0,-3.3534,-3.5241,-3.6811,-3.8042,-3.4667,-3.2373,0.0,0.0,0.0,0.0,0.0,0.0,0.0,0.0,0.0,0.0,0.0,0.0,0.0,0.0,0.0,0.0,0.0,0.0,0.0,0.0,0.0,0.0,0.0,0.0,0.0,0.0,0.0,0.0,0.0,0.0,0.0,0.0,0.0,0.0,0.0,0.0,0.0,0.0,0.0,0.0,0.0,0.0,0.0,0.0,0.0,0.0,0.0,0.0,0.0,0.0,0.0,0.0,0.0,0.0,0.0,0.0,0.0,0.0,0.0,0.0,0.0,0.0,0.0,0.0,0.0,0.0,0.0,0.0,0.0,0.0,0.0,0.0,0.0,0.0,0.0,0.0,0.0,0.0,0.0,0.0,0.0,0.0,0.0,0.0,0.0,0.0,0.0,0.0,0.0,0.0,0.0,0.0,0.0,0.0,0.0,0.0,0.0,0.0,0.0,0.0,0.0,0.0,0.0,0.0,0.0,0.0,0.0,0.0,0.0,-3.3192,0.0,-3.7652,0.0,-3.456,-3.2126,0.0,0.0,0.0,0.0,0.0,0.0,0.0,0.0,0.0,0.0,0.0,0.0,0.0,0.0,0.0,0.0,0.0,0.0,0.0,0.0,0.0,0.0,0.0,0.0,0.0,0.0,0.0,0.0,0.0,0.0,0.0,0.0,0.0,0.0,0.0,0.0,0.0,0.0,0.0,0.0,0.0,0.0,0.0,0.0,0.0,0.0,0.0,0.0,0.0,0.0,0.0,0.0,0.0,0.0,0.0,0.0,0.0,0.0,0.0,0.0,0.0,0.0,0.0,0.0,0.0,0.0,0.0,0.0,0.0,0.0,0.0,0.0,0.0,0.0,0.0,0.0,0.0,0.0,0.0,0.0,0.0,0.0,0.0,0.0,0.0,0.0,0.0,0.0,0.0,0.0,0.0,0.0,0.0,0.0,0.0,0.0,0.0,0.0,0.0,0.0,0.0,0.0,0.0,0.0,0.0,0.0,0.0,0.0,-3.1095,-3.416,-3.5925,-3.6551,-3.5603,-3.4899,-3.2629,0.0,0.0,0.0,0.0,0.0,0.0,0.0,0.0,0.0,0.0,0.0,0.0,0.0,0.0,0.0,0.0,0.0,0.0,0.0,0.0,0.0,0.0,0.0,0.0,0.0,0.0,0.0,0.0,0.0,0.0,0.0,0.0,0.0,0.0,0.0,0.0,0.0,0.0,0.0,0.0,0.0,0.0,0.0,0.0,0.0,0.0,0.0,0.0,0.0,0.0,0.0,0.0,0.0,0.0,0.0,0.0,0.0,0.0,0.0,0.0,0.0,0.0,0.0,0.0,0.0,0.0,0.0,0.0,0.0,0.0,0.0,0.0,0.0,0.0,0.0,0.0,0.0,0.0,0.0,0.0,0.0,0.0,0.0,0.0,0.0,0.0,0.0,0.0,0.0,0.0,0.0,0.0,0.0,0.0,0.0,0.0,0.0,0.0,0.0,0.0,0.0,0.0,0.0,0.0,0.0,0.0,0.0,0.0,0.0,-3.6705,-3.7782,-3.8241,-3.7907,-3.5154,-3.305,0.0,0.0,0.0,0.0,0.0,0.0,0.0,0.0,0.0,0.0,0.0,0.0,0.0,0.0,0.0,0.0,0.0,0.0,0.0,0.0,0.0,0.0,0.0,0.0,0.0,0.0,0.0,0.0,0.0,0.0,0.0,0.0,0.0,0.0,0.0,0.0,0.0,0.0,0.0,0.0,0.0,0.0,0.0,0.0,0.0,0.0,0.0,0.0,0.0,0.0,0.0,0.0,0.0,0.0,0.0,0.0,0.0,0.0,0.0,0.0,0.0,0.0,0.0,0.0,0.0,0.0,0.0,0.0,0.0,0.0,0.0,0.0,0.0,0.0,0.0,0.0,0.0,0.0,0.0,0.0,0.0,0.0,0.0,0.0,0.0,0.0,0.0,0.0,0.0,0.0,0.0,0.0,0.0,0.0,0.0,0.0,0.0,0.0,0.0,0.0,0.0,0.0,0.0,0.0,0.0,0.0,0.0,0.0,0.0,-3.8321,-3.8841,-3.8804,-3.8228,-3.5236,-3.325,-3.2391,0.0,0.0,0.0,0.0,0.0,0.0,0.0,0.0,0.0,0.0,0.0,0.0,0.0,0.0,0.0,0.0,0.0,0.0,0.0,0.0,0.0,0.0,0.0,0.0,0.0,0.0,0.0,0.0,0.0,0.0,0.0,0.0,0.0,0.0,0.0,0.0,0.0,0.0,0.0,0.0,0.0,0.0,0.0,0.0,0.0,0.0,0.0,0.0,0.0,0.0,0.0,0.0,0.0,0.0,0.0,0.0,0.0,0.0,0.0,0.0,0.0,0.0,0.0,0.0,0.0,0.0,0.0,0.0,0.0,0.0,0.0,0.0,0.0,0.0,0.0,0.0,0.0,0.0,0.0,0.0,0.0,0.0,0.0,0.0,0.0,0.0,0.0,0.0,0.0,0.0,0.0,0.0,0.0,0.0,0.0,0.0,0.0,0.0,0.0,0.0,0.0,0.0,0.0,0.0,0.0,0.0,0.0,0.0,-3.9082,-3.9045,-3.8358,-3.6909,-3.5311,-3.3399,0.0,0.0,0.0,0.0,0.0,0.0,0.0,0.0,0.0,0.0,0.0,0.0,0.0,0.0,0.0,0.0,0.0,0.0,0.0,0.0,0.0,0.0,0.0,0.0,0.0,0.0,0.0,0.0,0.0,0.0,0.0,0.0,0.0,0.0,0.0,0.0,0.0,0.0,0.0,0.0,0.0,0.0,0.0,0.0,0.0,0.0,0.0,0.0,0.0,0.0,0.0,0.0,0.0,0.0,0.0,0.0,0.0,0.0,0.0,0.0,0.0,0.0,0.0,0.0,0.0,0.0,0.0,0.0,0.0,0.0,0.0,0.0,0.0,0.0,0.0,0.0,0.0,0.0,0.0,0.0,0.0,0.0,0.0,0.0,0.0,0.0,0.0,0.0,0.0,0.0,0.0,0.0,0.0,0.0,0.0,0.0,0.0,0.0,0.0,0.0,0.0,0.0,0.0,0.0,0.0,0.0,0.0,0.0,0.0,-3.9045,-3.8507,-3.8284,-3.8414,-3.6398,-3.4745,0.0,0.0,0.0,0.0,0.0,0.0,0.0,0.0,0.0,0.0,0.0,0.0,0.0,0.0,0.0,0.0,0.0,0.0,0.0,0.0,0.0,0.0,0.0,0.0,0.0,0.0,0.0,0.0,0.0,0.0,0.0,0.0,0.0,0.0,0.0,0.0,0.0,0.0,0.0,0.0,0.0,0.0,0.0,0.0,0.0,0.0,0.0,0.0,0.0,0.0,0.0,0.0,0.0,0.0,0.0,0.0,0.0,0.0,0.0,0.0,0.0,0.0,0.0,0.0,0.0,0.0,0.0,0.0,0.0,0.0,0.0,0.0,0.0,0.0,0.0,0.0,0.0,0.0,0.0,0.0,0.0,0.0,0.0,0.0,0.0,0.0,0.0,0.0,0.0,0.0,0.0,0.0,0.0,0.0,0.0,0.0,0.0,0.0,0.0,0.0,0.0,0.0,0.0,0.0,0.0,0.0,0.0,0.0,-3.8637,-3.9082,-3.8321,-3.8116,-3.8562,-3.6248,-3.5035,0.0,0.0,0.0,0.0,0.0,0.0,0.0,0.0,0.0,0.0,0.0,0.0,0.0,0.0,0.0,0.0,0.0,0.0,0.0,0.0,0.0,0.0,0.0,0.0,0.0,0.0,0.0,0.0,0.0,0.0,0.0,0.0,0.0,0.0,0.0,0.0,0.0,0.0,0.0,0.0,0.0,0.0,0.0,0.0,0.0,0.0,0.0,0.0,0.0,0.0,0.0,0.0,0.0,0.0,0.0,0.0,0.0,0.0,0.0,0.0,0.0,0.0,0.0,0.0,0.0,0.0,0.0,0.0,0.0,0.0,0.0,0.0,0.0,0.0,0.0,0.0,0.0,0.0,0.0,0.0,0.0,0.0,0.0,0.0,0.0,0.0,0.0,0.0,0.0,0.0,0.0,0.0,0.0,0.0,0.0,0.0,0.0,0.0,0.0,0.0,0.0,0.0,0.0,0.0,0.0,0.0,0.0,0.0,-3.9008,-3.8841,-3.8135,-3.7764,-3.7726,-3.5609,-3.4826,0.0,0.0,0.0,0.0,0.0,0.0,0.0,0.0,0.0,0.0,0.0,0.0,0.0,0.0,0.0,0.0,0.0,0.0,0.0,0.0,0.0,0.0,0.0,0.0,0.0,0.0,0.0,0.0,0.0,0.0,0.0,0.0,0.0,0.0,0.0,0.0,0.0,0.0,0.0,0.0,0.0,0.0,0.0,0.0,0.0,0.0,0.0,0.0,0.0,0.0,0.0,0.0,0.0,0.0,0.0,0.0,0.0,0.0,0.0,0.0,0.0,0.0,0.0,0.0,0.0,0.0,0.0,0.0,0.0,0.0,0.0,0.0,0.0,0.0,0.0,0.0,0.0,0.0,0.0,0.0,0.0,0.0,0.0,0.0,0.0,0.0,0.0,0.0,0.0,0.0,0.0,0.0,0.0,0.0,0.0,0.0,0.0,0.0,0.0,0.0,0.0,0.0,0.0,0.0,0.0,0.0,0.0,0.0,-3.8488,-3.7243,-3.7039,-3.6946,-3.6959,-3.6445,-3.5702,0.0,0.0,0.0,0.0,0.0,0.0,0.0,0.0,0.0,0.0,0.0,0.0,0.0,0.0,0.0,0.0,0.0,0.0,0.0,0.0,0.0,0.0,0.0,0.0,0.0,0.0,0.0,0.0,0.0,0.0,0.0,0.0,0.0,0.0,0.0,0.0,0.0,0.0,0.0,0.0,0.0,0.0,0.0,0.0,0.0,0.0,0.0,0.0,-3.5786,0.0,0.0,0.0,0.0,0.0,0.0,0.0,0.0,0.0,0.0,0.0,0.0,0.0,0.0,0.0,0.0,0.0,0.0,0.0,0.0,0.0,0.0,0.0,0.0,0.0,0.0,0.0,0.0,0.0,0.0,0.0,0.0,0.0,0.0,0.0,0.0,0.0,0.0,0.0,0.0,0.0,0.0,0.0,0.0,0.0,0.0,0.0,0.0,0.0,0.0,0.0,0.0,0.0,0.0,0.0,0.0,0.0,0.0,0.0,-3.7931,-3.6723,-3.6328,-3.6142,-3.616,-3.6495,-3.618,0.0,0.0,0.0,0.0,0.0,0.0,0.0,0.0,0.0,0.0,0.0,0.0,0.0,0.0,0.0,0.0,0.0,0.0,0.0,0.0,0.0,0.0,0.0,0.0,0.0,0.0,0.0,0.0,0.0,0.0,0.0,0.0,0.0,0.0,0.0,0.0,0.0,0.0,0.0,0.0,0.0,0.0,0.0,0.0,0.0,0.0,0.0,0.0,0.0,0.0,0.0,0.0,0.0,0.0,0.0,0.0,0.0,0.0,0.0,0.0,0.0,0.0,0.0,0.0,0.0,0.0,0.0,0.0,0.0,0.0,0.0,0.0,0.0,0.0,0.0,0.0,0.0,0.0,0.0,0.0,0.0,0.0,0.0,0.0,0.0,0.0,0.0,0.0,0.0,0.0,0.0,0.0,0.0,0.0,0.0,0.0,0.0,0.0,0.0,0.0,0.0,0.0,0.0,0.0,0.0,0.0,0.0,-3.6978,-3.7262,-3.6333,-3.5789,-3.5436,-3.5312,-3.6216,-3.6336,-3.5608,0.0,0.0,0.0,0.0,0.0,0.0,0.0,0.0,0.0,0.0,0.0,0.0,0.0,0.0,0.0,0.0,0.0,0.0,0.0,0.0,0.0,0.0,0.0,0.0,0.0,0.0,0.0,0.0,0.0,0.0,0.0,0.0,0.0,0.0,0.0,0.0,0.0,0.0,-3.3382,-3.5364,0.0,0.0,0.0,0.0,0.0,0.0,0.0,0.0,-3.8373,0.0,0.0,0.0,0.0,0.0,0.0,0.0,0.0,0.0,0.0,0.0,0.0,0.0,0.0,0.0,0.0,0.0,0.0,0.0,0.0,0.0,0.0,0.0,0.0,0.0,0.0,0.0,0.0,0.0,0.0,0.0,0.0,0.0,0.0,0.0,0.0,0.0,0.0,0.0,0.0,0.0,0.0,0.0,0.0,0.0,0.0,0.0,0.0,0.0,0.0,0.0,0.0,0.0,0.0,0.0,0.0,-3.551,-3.6408,-3.616,-3.4661,-3.5213,-3.5157,-3.4494,-3.5887,-3.6056,-3.4726,0.0,0.0,0.0,0.0,0.0,0.0,0.0,0.0,0.0,0.0,0.0,0.0,0.0,0.0,0.0,0.0,0.0,0.0,0.0,0.0,0.0,0.0,0.0,0.0,0.0,0.0,0.0,0.0,0.0,0.0,0.0,0.0,0.0,0.0,0.0,0.0,0.0,0.0,0.0,-3.7309,-3.8683,0.0,0.0,0.0,0.0,0.0,0.0,0.0,0.0,-3.8993,0.0,0.0,0.0,0.0,0.0,0.0,0.0,0.0,0.0,0.0,0.0,0.0,0.0,0.0,0.0,0.0,0.0,0.0,0.0,0.0,0.0,0.0,0.0,0.0,0.0,0.0,0.0,0.0,0.0,0.0,0.0,0.0,0.0,0.0,0.0,0.0,0.0,0.0,0.0,0.0,0.0,0.0,0.0,0.0,0.0,0.0,0.0,0.0,0.0,0.0,0.0,0.0,0.0,0.0,0.0,-3.4934,-3.6067,-3.5887,-3.4271,-3.4618,-3.4624,-3.4234,-3.5436,-3.5516,0.0,0.0,0.0,0.0,0.0,0.0,0.0,0.0,0.0,0.0,0.0,0.0,0.0,0.0,0.0,0.0,0.0,0.0,0.0,0.0,0.0,0.0,0.0,0.0,0.0,0.0,0.0,0.0,0.0,0.0,0.0,0.0,0.0,0.0,0.0,0.0,0.0,0.0,0.0,0.0,-3.8041,-3.9056,-3.9807,0.0,0.0,0.0,0.0,0.0,0.0,-3.8976,-3.9102,0.0,0.0,0.0,0.0,0.0,0.0,0.0,0.0,0.0,0.0,0.0,0.0,0.0,0.0,0.0,0.0,0.0,0.0,0.0,0.0,0.0,0.0,0.0,0.0,0.0,0.0,0.0,0.0,0.0,0.0,0.0,0.0,0.0,0.0,0.0,0.0,0.0,0.0,0.0,0.0,0.0,0.0,0.0,0.0,0.0,0.0,0.0,0.0,0.0,0.0,0.0,0.0,0.0,0.0,0.0,-3.4229,-3.5575,-3.5638,-3.4271,-3.4216,-3.4216,-3.4216,-3.5045,-3.5101,0.0,0.0,0.0,0.0,0.0,0.0,0.0,0.0,0.0,0.0,0.0,0.0,0.0,0.0,0.0,0.0,0.0,0.0,0.0,0.0,0.0,0.0,0.0,0.0,0.0,0.0,0.0,0.0,0.0,0.0,0.0,0.0,0.0,0.0,0.0,0.0,0.0,0.0,0.0,0.0,0.0,-3.9664,-4.0073,-4.0126,0.0,0.0,0.0,0.0,-3.8814,-3.9247,0.0,0.0,0.0,0.0,0.0,0.0,0.0,0.0,0.0,0.0,0.0,0.0,0.0,0.0,0.0,0.0,0.0,0.0,0.0,0.0,0.0,0.0,0.0,0.0,0.0,0.0,0.0,0.0,0.0,0.0,0.0,0.0,0.0,0.0,0.0,0.0,0.0,0.0,0.0,0.0,0.0,0.0,0.0,0.0,0.0,0.0,0.0,0.0,0.0,0.0,0.0,0.0,0.0,0.0,0.0,0.0,-3.3994,-3.4656,-3.4756,-3.4241,-3.4216,-3.4216,-3.4216,-3.5064,-3.5083,0.0,0.0,0.0,0.0,0.0,0.0,0.0,0.0,0.0,0.0,0.0,0.0,0.0,0.0,0.0,0.0,0.0,0.0,0.0,0.0,0.0,0.0,0.0,0.0,0.0,0.0,0.0,0.0,0.0,0.0,0.0,0.0,0.0,0.0,0.0,0.0,0.0,0.0,0.0,0.0,0.0,-4.1663,-4.1056,-4.0949,-4.0971,0.0,0.0,-4.0944,-4.114,-4.1175,0.0,0.0,0.0,0.0,0.0,0.0,0.0,0.0,0.0,0.0,0.0,0.0,0.0,0.0,0.0,0.0,0.0,0.0,0.0,0.0,0.0,0.0,0.0,0.0,0.0,0.0,0.0,0.0,0.0,0.0,0.0,0.0,0.0,0.0,0.0,0.0,0.0,0.0,0.0,0.0,0.0,0.0,0.0,0.0,0.0,0.0,0.0,0.0,0.0,0.0,0.0,0.0,0.0,0.0,0.0,-3.4197,-3.373,-3.4834,-3.5013,-3.4192,-3.4148,-3.4161,-3.4216,-3.455,-3.4364,0.0,0.0,0.0,0.0,0.0,0.0,0.0,0.0,0.0,0.0,0.0,0.0,0.0,0.0,0.0,0.0,0.0,0.0,0.0,0.0,0.0,0.0,0.0,0.0,0.0,0.0,0.0,0.0,0.0,0.0,0.0,0.0,0.0,0.0,0.0,0.0,0.0,0.0,0.0,0.0,0.0,0.0,-4.1191,-4.0972,0.0,0.0,0.0,-4.1008,-4.0772,0.0,0.0,0.0,0.0,0.0,0.0,0.0,0.0,0.0,0.0,0.0,0.0,0.0,0.0,0.0,0.0,0.0,0.0,0.0,0.0,0.0,0.0,0.0,0.0,0.0,0.0,0.0,0.0,0.0,0.0,0.0,0.0,0.0,0.0,0.0,0.0,0.0,0.0,0.0,0.0,0.0,0.0,0.0,0.0,0.0,0.0,0.0,0.0,0.0,0.0,0.0,0.0,0.0,0.0,0.0,0.0,0.0,-3.3335,-3.4615,-3.4815,-3.3855,-3.3915,-3.3961,-3.403,-3.4012,0.0,0.0,0.0,0.0,0.0,0.0,0.0,0.0,0.0,0.0,0.0,0.0,0.0,0.0,0.0,0.0,0.0,0.0,0.0,0.0,0.0,0.0,0.0,0.0,0.0,0.0,0.0,-2.4875,0.0,0.0,0.0,0.0,0.0,0.0,0.0,0.0,0.0,0.0,0.0,0.0,0.0,0.0,-3.9351,-4.0817,-4.0704,-4.0652,0.0,0.0,-4.108,-4.0744,-4.0752,-4.0503,0.0,0.0,0.0,0.0,0.0,0.0,0.0,0.0,0.0,0.0,0.0,0.0,0.0,0.0,0.0,0.0,0.0,0.0,0.0,0.0,0.0,0.0,0.0,0.0,0.0,0.0,0.0,0.0,0.0,0.0,0.0,0.0,0.0,0.0,0.0,0.0,0.0,0.0,0.0,0.0,0.0,0.0,0.0,0.0,0.0,0.0,0.0,0.0,0.0,0.0,0.0,0.0,0.0,0.0,0.0,-3.2768,-3.3349,-3.3484,-3.3103,-3.3382,-3.3542,-3.3556,-3.3542,-3.3259,0.0,0.0,0.0,0.0,0.0,0.0,0.0,0.0,0.0,0.0,0.0,0.0,0.0,0.0,0.0,0.0,0.0,0.0,0.0,0.0,0.0,0.0,0.0,0.0,0.0,0.0,0.0,0.0,0.0,0.0,0.0,0.0,0.0,0.0,0.0,0.0,0.0,0.0,0.0,0.0,0.0,-3.9635,-3.9715,-4.0325,-4.0926,0.0,0.0,-4.1664,-4.2223,-4.2304,-4.1996,-4.0973,0.0,0.0,0.0,0.0,0.0,0.0,0.0,0.0,0.0,0.0,0.0,0.0,0.0,0.0,0.0,0.0,0.0,0.0,0.0,0.0,0.0,0.0,0.0,0.0,0.0,0.0,0.0,0.0,0.0,0.0,0.0,0.0,0.0,0.0,0.0,0.0,0.0,0.0,0.0,0.0,0.0,0.0,0.0,0.0,0.0,0.0,0.0,0.0,0.0,0.0,0.0,0.0,0.0,-3.1725,-3.2454,-3.309,-3.3262,-3.2952,-3.3054,-3.3163,-3.3189,-3.3171,-3.2622,0.0,0.0,0.0,0.0,0.0,0.0,0.0,0.0,0.0,0.0,0.0,0.0,0.0,0.0,0.0,0.0,0.0,0.0,0.0,0.0,0.0,0.0,0.0,0.0,0.0,0.0,0.0,0.0,-2.685,-2.742,-2.8489,0.0,0.0,0.0,0.0,0.0,0.0,0.0,0.0,0.0,0.0,-3.8516,-3.9666,-4.0114,0.0,0.0,-4.1065,-4.1151,-4.1418,-4.1086,-4.067,-4.0403,-3.9954,0.0,0.0,0.0,0.0,0.0,0.0,0.0,0.0,0.0,0.0,0.0,0.0,0.0,0.0,0.0,0.0,0.0,0.0,0.0,0.0,0.0,0.0,0.0,0.0,0.0,0.0,0.0,0.0,0.0,0.0,0.0,0.0,0.0,0.0,0.0,0.0,0.0,0.0,0.0,0.0,0.0,0.0,0.0,0.0,0.0,0.0,0.0,0.0,0.0,0.0,0.0,0.0,-3.1184,-3.2161,-3.265,-3.2792,-3.2568,-3.2682,-3.2763,-3.2775,-3.2793,-3.2199,0.0,0.0,0.0,0.0,0.0,0.0,0.0,0.0,0.0,0.0,0.0,0.0,0.0,0.0,0.0,0.0,0.0,0.0,0.0,0.0,0.0,0.0,0.0,0.0,0.0,0.0,0.0,0.0,-2.7991,-2.885,-2.9645,0.0,0.0,0.0,0.0,0.0,0.0,0.0,0.0,0.0,0.0,-3.7992,-3.9546,-3.9791,-3.9969,-4.0473,-4.0563,-4.0594,-4.0778,-4.0366,-4.0043,-4.0055,0.0,0.0,0.0,0.0,0.0,0.0,0.0,0.0,0.0,0.0,0.0,0.0,0.0,0.0,0.0,0.0,0.0,0.0,0.0,0.0,0.0,0.0,0.0,0.0,0.0,0.0,0.0,-3.2502,0.0,0.0,-3.195,0.0,0.0,0.0,0.0,0.0,0.0,0.0,0.0,0.0,0.0,0.0,0.0,0.0,0.0,0.0,0.0,0.0,0.0,0.0,0.0,0.0,0.0,-3.1076,-3.1818,-3.1871,-3.1854,-3.1855,-3.2144,-3.2318,-3.2318,-3.23,-3.2034,-3.1351,0.0,0.0,0.0,0.0,0.0,0.0,0.0,0.0,0.0,0.0,0.0,0.0,0.0,0.0,0.0,0.0,0.0,0.0,0.0,0.0,0.0,0.0,0.0,0.0,0.0,0.0,-2.801,-2.8763,-2.9568,0.0,0.0,0.0,0.0,0.0,0.0,0.0,0.0,0.0,0.0,-3.7628,-3.8444,-3.9199,-3.9325,-3.9504,-3.9952,-4.0028,-4.0186,-4.0683,-4.0761,-4.0648,0.0,0.0,0.0,0.0,0.0,0.0,0.0,0.0,0.0,0.0,0.0,0.0,0.0,0.0,0.0,0.0,0.0,0.0,0.0,0.0,0.0,0.0,0.0,0.0,0.0,0.0,0.0,-3.4017,-3.313,0.0,0.0,0.0,0.0,0.0,0.0,0.0,0.0,0.0,0.0,0.0,-3.3734,-3.4661,0.0,0.0,0.0,0.0,0.0,0.0,0.0,0.0,0.0,0.0,0.0,0.0,-3.1076,-3.1765,-3.18,-3.18,-3.18,-3.1911,-3.1983,-3.1983,-3.1965,-3.1446,-3.0377,0.0,0.0,0.0,0.0,0.0,0.0,0.0,0.0,0.0,0.0,0.0,0.0,0.0,0.0,0.0,0.0,0.0,0.0,0.0,0.0,0.0,0.0,0.0,0.0,0.0,-2.9384,0.0,0.0,0.0,0.0,0.0,0.0,0.0,0.0,0.0,0.0,0.0,-3.5383,-3.6022,-3.686,-3.7655,-3.8398,-3.8969,-3.9362,0.0,0.0,0.0,0.0,0.0,0.0,0.0,0.0,0.0,0.0,0.0,0.0,0.0,0.0,-3.8043,-3.7268,-3.6731,-3.6504,-3.6762,0.0,0.0,0.0,0.0,0.0,0.0,0.0,0.0,0.0,0.0,0.0,0.0,0.0,0.0,-3.4823,0.0,-3.3897,0.0,0.0,0.0,0.0,0.0,0.0,0.0,0.0,-3.4686,-3.4771,-3.4415,-3.5297,-3.5399,0.0,-3.4989,-3.4406,0.0,0.0,0.0,0.0,0.0,0.0,0.0,0.0,-3.13,-3.1783,-3.18,-3.18,-3.18,-3.18,-3.18,-3.18,-3.18,-3.125,-3.0144,-2.9656,-2.8924,0.0,0.0,0.0,0.0,0.0,0.0,0.0,0.0,0.0,0.0,0.0,0.0,0.0,0.0,0.0,0.0,0.0,0.0,0.0,0.0,0.0,0.0,0.0,-2.9924,0.0,0.0,0.0,0.0,0.0,0.0,0.0,0.0,0.0,-3.3777,-3.4496,-3.5198,-3.5574,-3.6384,-3.7138,-3.7671,0.0,0.0,0.0,0.0,0.0,0.0,0.0,-3.9325,-3.9422,-3.9448,-3.9484,-3.9599,-3.9511,-3.9448,-3.9501,0.0,0.0,-3.8261,-3.7962,-3.7912,-3.8137,-3.7894,-3.7345,-3.6394,-3.6043,-3.5611,0.0,0.0,0.0,0.0,0.0,0.0,0.0,0.0,-3.5839,-3.5605,0.0,-3.4945,0.0,0.0,0.0,0.0,0.0,-3.4201,0.0,0.0,-3.5318,-3.5633,-3.5616,-3.5718,-3.6096,-3.6728,-3.6079,-3.5785,-3.5761,-3.4491,0.0,0.0,0.0,0.0,0.0,0.0,-3.1869,-3.1903,-3.1921,-3.1886,-3.1886,-3.1852,-3.1834,-3.18,-3.18,-3.1456,-3.0748,-3.0768,-3.0143,-2.8699,-2.8755,0.0,0.0,0.0,0.0,0.0,0.0,0.0,0.0,0.0,0.0,0.0,0.0,0.0,0.0,0.0,0.0,0.0,0.0,0.0,0.0,-2.9891,0.0,0.0,0.0,0.0,0.0,0.0,0.0,0.0,0.0,0.0,-3.3598,-3.4728,-3.5592,-3.5474,0.0,0.0,0.0,0.0,-3.7191,-3.7383,-3.7879,-3.825,-3.8278,-3.8816,-3.9218,-3.9202,0.0,0.0,-3.9379,-3.9325,-3.9245,-3.9388,-3.9272,-3.9245,-3.9185,-3.8721,-3.8652,-3.9268,-3.8404,-3.7634,-3.758,-3.6989,-3.6352,-3.8252,0.0,0.0,0.0,0.0,-3.7308,-3.7509,-3.8003,-3.79,-3.7513,-3.6961,-3.6932,0.0,0.0,0.0,0.0,0.0,0.0,-3.5588,-3.6152,-3.6372,-3.6434,-3.6485,-3.7533,-3.7601,-3.6829,-3.7618,-3.7794,-3.731,-3.6892,-3.5205,-3.2391,0.0,0.0,0.0,0.0,-3.3345,-3.3438,-3.3438,-3.3438,-3.3457,-3.2886,-3.2334,-3.1817,-3.18,-3.1473,-3.0713,-3.0518,-2.993,-2.8921,-2.8253,0.0,0.0,0.0,0.0,0.0,0.0,0.0,0.0,0.0,0.0,0.0,0.0,0.0,0.0,0.0,0.0,0.0,0.0,0.0,-2.9973,-2.969,-2.9806,0.0,0.0,0.0,0.0,0.0,0.0,0.0,0.0,0.0,-3.3541,-3.4241,-3.4774,0.0,0.0,-3.5962,-3.6025,-3.6523,-3.695,-3.7161,-3.7324,0.0,-3.7648,-3.7809,-3.794,-3.7953,-3.7924,-3.7953,-3.7982,-3.7953,-3.7953,-3.801,-3.7953,-3.7953,-3.801,-3.8586,-3.905,-3.9236,-3.8676,-3.7995,-3.7502,-3.6987,-3.6373,-3.8566,-3.8059,-3.792,-3.802,-3.8254,-3.797,-3.8254,-3.8948,-3.874,-3.8547,-3.8372,-3.8236,-3.7501,-3.6283,-3.5678,0.0,0.0,0.0,-3.641,-3.687,-3.687,-3.675,-3.6629,-3.7677,-3.7769,-3.702,-3.7552,-3.7769,-3.761,-3.7311,-3.5947,-3.3606,0.0,0.0,-3.2853,-3.306,-3.3216,-3.328,-3.3401,-3.3543,-3.3686,-3.3031,-3.2432,-3.1869,-3.1562,-3.1187,-3.0761,-3.0537,-3.0068,-2.9306,-2.8701,-2.8052,0.0,0.0,0.0,0.0,0.0,0.0,0.0,0.0,0.0,0.0,0.0,-2.8741,-2.92,0.0,0.0,0.0,-2.9779,-2.9888,-3.0432,-3.0212,0.0,0.0,0.0,0.0,0.0,0.0,0.0,-3.346,-3.3721,-3.3848,-3.3848,-3.4182,-3.438,-3.438,-3.4839,-3.5154,-3.5252,0.0,-3.604,-3.6212,-3.6523,-3.6784,-3.689,-3.7191,-3.7383,-3.7383,-3.7383,-3.7383,-3.7383,-3.7383,-3.7383,-3.7383,-3.7383,-3.7383,-3.7383,-3.783,-3.8171,-3.8122,-3.757,-3.6973,-3.6562,-3.6254,-3.5904,-3.8606,-3.9098,-3.8526,-3.8747,-3.9391,-3.8768,-3.8852,-3.9435,-3.8768,-3.8929,-3.961,-3.8974,-3.8363,-3.7722,-3.7145,0.0,-3.7582,-3.7128,-3.6925,-3.6992,-3.7017,-3.6718,-3.6227,-3.6852,-3.7128,-3.7198,-3.6573,-3.6621,-3.7247,-3.6605,-3.5856,-3.5078,-3.512,-3.4413,-3.304,-3.2514,-3.2269,-3.2308,-3.2537,-3.2813,-3.3091,-3.2688,-3.2259,-3.183,-3.1178,-3.0777,-3.0747,-3.0707,-3.0406,-2.9772,-2.9612,-2.8862,-2.732,0.0,0.0,0.0,0.0,0.0,0.0,0.0,0.0,0.0,0.0,0.0,0.0,0.0,0.0,0.0,-2.976,0.0,-3.1106,-3.1219,0.0,0.0,0.0,-3.221,-3.1774,-3.2803,-3.3576,-3.3576,0.0,0.0,-3.4312,-3.4346,-3.438,-3.4298,-3.4346,-3.4481,-3.4664,-3.4698,-3.4716,-3.4968,-3.5574,-3.6085,-3.6101,-3.6662,-3.7101,-3.7131,-3.7251,-3.7161,-3.7161,-3.7161,-3.7221,-3.7161,-3.7251,-3.7174,-3.7172,-3.6589,-3.6146,-3.6067,-3.5571,-3.5111,-3.5217,-3.512,-3.5003,-3.7706,-3.7851,-3.769,-3.8305,-3.9335,-3.9169,-3.9186,-3.9335,-3.9292,-3.9308,-3.9388,-3.9415,-3.905,-3.8346,-3.7691,-3.7188,-3.6765,-3.6306,-3.6379,-3.6907,-3.7091,-3.708,-3.6961,-3.7671,-3.7708,-3.7247,-3.7587,-3.7873,-3.8019,-3.7873,-3.7392,-3.6675,-3.6279,-3.5336,-3.386,-3.3746,-3.3738,-3.385,-3.3922,-3.3691,-3.3179,-3.305,-3.2457,-3.1336,-3.1122,-3.0799,-3.0276,-3.0005,-2.9913,-2.9899,-2.8973,-2.8292,-2.8104,-2.7074,0.0,0.0,0.0,0.0,0.0,0.0,0.0,0.0,0.0,-3.047,-3.0005,0.0,-3.0249,0.0,-3.0904,-3.1009,-3.1324,-3.1412,0.0,0.0,-3.3115,-3.3343,-3.3674,-3.3993,-3.4182,-3.4196,-3.4327,-3.4162,-3.3555,-3.4011,-3.4182,-3.3604,-3.3997,-3.4414,-3.4448,-3.4467,-3.4515,-3.4716,-3.4916,-3.51,-3.5216,-3.5462,-3.5799,-3.5941,-3.5973,-3.5941,-3.5973,-3.5957,-3.5941,-3.5957,-3.5941,-3.5744,-3.5353,-3.4668,-3.406,-3.3633,-3.3964,-3.451,-3.4521,-3.4146,-3.3843,-3.7131,-3.7383,-3.7383,-3.7809,-3.8467,-3.8761,-3.8827,-3.8871,-3.8925,-3.8925,-3.8843,-3.8799,-3.8515,-3.8057,-3.7806,-3.7441,-3.6975,-3.6485,-3.6521,-3.6898,-3.7074,-3.7017,-3.6787,-3.7546,-3.753,-3.6906,-3.73,-3.7504,-3.7504,-3.7504,-3.7268,-3.6875,-3.627,-3.5561,-3.4745,-3.416,-3.3879,-3.3942,-3.3972,-3.3718,-3.3264,-3.3097,-3.2424,-3.1202,-3.1114,-3.0638,-2.97,-2.9756,-2.981,-2.9782,-2.9064,-2.8707,-2.8818,-2.8099,-2.762,0.0,0.0,0.0,0.0,0.0,0.0,0.0,0.0,0.0,0.0,0.0,-3.0346,-3.1225,-3.138,-3.1692,-3.2281,-3.2368,-3.2788,-3.3775,-3.3891,-3.4022,-3.437,-3.438,-3.438,-3.438,-3.4079,-3.3707,-3.3262,-3.3276,-3.3206,-3.2755,-3.3087,-3.3618,-3.423,-3.4113,-3.4045,-3.4467,-3.4332,-3.4351,-3.4787,-3.5001,-3.51,-3.5311,-3.5294,-3.5294,-3.5457,-3.5439,-3.5392,-3.5472,-3.5489,-3.528,-3.4623,-3.3964,-3.329,-3.2766,-3.2781,-3.3104,-3.3377,-3.3387,-3.3313,-3.6585,-3.7101,-3.7161,-3.7177,-3.7221,-3.7793,-3.8124,-3.8165,-3.8193,-3.8193,-3.8181,-3.7764,-3.7501,-3.7429,-3.756,-3.756,-3.7413,-3.6951,-3.6738,-3.6738,-3.689,-3.6692,-3.6211,-3.6891,-3.6937,-3.646,-3.646,-3.646,-3.646,-3.6492,-3.6492,-3.6476,-3.5907,-3.5629,-3.5583,-3.4321,-3.3567,-3.3398,-3.332,-3.324,-3.3171,-3.2902,-3.2249,-3.1281,-3.1177,-3.0532,-2.9242,-2.9777,-2.9943,-2.9571,-2.9596,-2.9605,-2.9566,-2.9471,-2.9309,0.0,-2.8635,0.0,0.0,0.0,0.0,0.0,0.0,0.0,0.0,-3.0558,-3.0706,-3.144,-3.1729,-3.2324,-3.3354,-3.3543,-3.3804,-3.4308,-3.438,-3.438,-3.438,-3.4298,-3.423,-3.4264,-3.3555,-3.3038,-3.2826,-3.2398,-3.211,-3.2001,-3.211,-3.2676,-3.3722,-3.35,-3.3297,-3.4011,-3.3776,-3.3796,-3.4471,-3.4787,-3.4935,-3.5082,-3.5034,-3.5016,-3.5326,-3.5294,-3.5213,-3.5392,-3.5424,-3.5203,-3.4502,-3.3889,-3.326,-3.2482,-3.1958,-3.1814,-3.2221,-3.2602,-3.3013,-3.5477,-3.5638,-3.5782,-3.5861,-3.591,-3.6523,-3.7071,-3.756,-3.7576,-3.756,-3.756,-3.7488,-3.7429,-3.737,-3.689,-3.6662,-3.66,-3.6149,-3.5928,-3.5928,-3.6101,-3.6148,-3.6053,-3.6179,-3.6226,-3.61,-3.6226,-3.6274,-3.6258,-3.6414,-3.6492,-3.6492,-3.6353,-3.6307,-3.6261,0.0,0.0,0.0,-3.286,-3.2602,-3.2563,-3.2505,-3.2102,-3.1371,-3.1356,0.0,-2.9444,-2.9985,-3.0173,-2.9781,-3.0061,0.0,0.0,0.0,0.0,0.0,0.0,0.0,0.0,0.0,0.0,0.0,-2.9305,-2.945,-3.0719,-3.1904,-3.2457,-3.213,-3.3133,-3.368,-3.3287,-3.3835,-3.4201,-3.4147,-3.4312,-3.438,-3.438,-3.3811,-3.3451,-3.3402,-3.2755,-3.2074,-3.1513,-3.1746,-3.1819,-3.1267,-3.1709,-3.2182,-3.2484,-3.2398,-3.2362,-3.2555,-3.2897,-3.3367,-3.3713,-3.4269,-3.4635,-3.4902,-3.4935,-3.4902,-3.4935,-3.4935,-3.5001,-3.5148,-3.5261,-3.4877,-3.3871,-3.3559,-3.311,-3.1914,-3.1585,-3.1524,-3.164,-3.1739,-3.1838,-3.5115,-3.518,-3.5195,-3.5326,0.0,-3.5718,-3.607,-3.6492,-3.6768,-3.6753,-3.6461,-3.6476,-3.6476,-3.6445,-3.6116,-3.5958,-3.5941,-3.5718,-3.5589,-3.5621,-3.5767,-3.5863,-3.5863,-3.5941,-3.602,-3.602,-3.6068,-3.61,-3.6116,-3.6274,-3.6352,-3.6352,-3.646,-3.6492,-3.6476,-3.583,-3.4799,-3.3413,-3.3059,-3.2736,-3.2413,-3.2398,-3.2059,-3.1428,-3.1732,0.0,0.0,0.0,0.0,0.0,0.0,0.0,0.0,0.0,0.0,-3.0307,-3.0023,-2.9748,-2.9525,-2.9349,-2.9417,-2.9628,-2.9995,-3.0367,-3.0773,-3.2141,-3.283,-3.2596,-3.3528,-3.3993,-3.3638,-3.3935,-3.4108,-3.4005,-3.375,-3.3563,-3.3479,-3.2875,-3.2371,-3.2313,-3.1769,-3.1193,-3.0833,-3.0809,-3.0835,-3.0457,-3.0684,-3.0972,-3.1009,-3.1281,-3.1489,-3.1526,-3.2182,-3.2684,-3.2826,-3.3101,-3.3485,-3.3561,-3.3575,-3.361,-3.3734,-3.3685,-3.3665,-3.3891,-3.4042,-3.3835,-3.3069,-3.2909,-3.2706,-3.1795,-3.1496,-3.1496,-3.1496,-3.1496,-3.1496,-3.4983,-3.5115,-3.4953,-3.5082,-3.5392,-3.5228,-3.5246,-3.5504,0.0,0.0,0.0,-3.5489,-3.5489,-3.5489,-3.5489,-3.5489,-3.5489,-3.5489,-3.5489,-3.5489,-3.5621,-3.5655,-3.5671,-3.5846,-3.591,-3.591,-3.5941,-3.5926,-3.5941,-3.6085,-3.6179,-3.6164,-3.6352,-3.643,-3.6292,-3.5799,-3.4799,-3.3475,-3.3398,-3.309,-3.2428,-3.2398,-3.2121,-3.1593,-3.2105,-3.1828,-3.0632,-3.1228,-3.1323,-3.0804,-3.0516,-3.0785,-3.1574,-3.0923,-3.0769,-3.1363,-3.0732,-3.0282,-3.0174,-2.982,-2.9645,-2.9726,-3.0937,-3.1495,-3.109,-3.2188,-3.2894,-3.3015,-3.3582,-3.3813,-3.366,-3.366,-3.3591,-3.3437,-3.2881,-3.2511,-3.2439,-3.1783,-3.1291,-3.1241,-3.0745,-3.0355,-3.0266,-2.9973,-2.9663,-2.974,-2.9805,-2.974,-2.9856,-3.0381,-3.0683,-3.0771,-3.1378,-3.1892,-3.1928,-3.211,-3.2146,-3.2371,-3.2277,-3.2177,-3.2283,-3.2256,-3.2165,-3.2284,-3.2495,-3.2373,-3.1904,-3.1876,-3.1855,-3.1279,-3.1161,-3.1102,-3.1013,-3.1085,-3.1142,-3.4731,-3.4798,-3.4883,-3.492,-3.4983,-3.4935,-3.5049,-3.5261,-3.5522,-3.5569,-3.5489,-3.5489,-3.5489,-3.5489,-3.5489,-3.5489,-3.5489,-3.5489,-3.5489,-3.5489,-3.5537,-3.5522,-3.5522,-3.5569,-3.5554,-3.5602,-3.5686,-3.5752,-3.5752,-3.5926,-3.6037,-3.6037,-3.6195,-3.606,-3.566,-3.5537,-3.4783,-3.3444,-3.3398,-3.3075,-3.2413,-3.2398,-3.2351,-3.2259,-3.2336,-3.2044,-3.1305,-3.189,-3.1772,-3.0791,-3.1207,-3.1384,-3.1128,-3.0983,-3.0808,-3.0523,-3.0372,-3.0144,-2.9727,-2.9634,-2.9841,-3.0371,-3.1555,-3.223,-3.2221,-3.2964,-3.3478,-3.3498,-3.3701,-3.3556,-3.2783,-3.2761,-3.2533,-3.1769,-3.1659,-3.1659,-3.1609,-3.0932,-3.0418,-3.0431,-2.9755,-2.9353,-2.9392,-2.9287,-2.9287,-2.9392,-2.947,-2.9521,-2.974,-2.9895,-2.9972,-3.0037,-3.0595,-3.1007,-3.1119,-3.1673,-3.1928,-3.211,-3.201,-3.1699,-3.1382,-3.1278,-3.1186,-3.1014,-3.1012,-3.0882,-3.0536,-3.0488,-3.0389,-3.0017,-2.9919,-2.9791,-2.9453,-2.9593,-2.9958,-3.4597,-3.4698,-3.465,-3.4735,-3.4902,-3.4902,-3.4935,-3.5034,-3.5261,-3.5407,-3.5504,-3.5489,-3.5489,-3.5489,-3.5489,-3.5489,-3.5489,-3.5489,-3.5489,-3.5489,-3.5489,-3.5489,-3.5489,-3.5489,-3.5489,-3.5489,-3.5539,-3.5589,-3.5604,-3.5782,-3.5831,-3.5863,-3.599,-3.5812,-3.537,-3.5339,-3.4878,-3.4014,-3.3983,-3.3503,-3.2428,-3.2398,-3.2398,-3.2398,-3.2148,-3.187,-3.1566,-3.1615,-3.1417,-3.0875,-3.0896,-3.097,-3.0999,-3.0523,-3.0266,-3.0296,-3.0052,-2.982,-2.9634,-2.9926,-3.0484,-3.1438,-3.2075,-3.2367,-3.2226,-3.2968,-3.3241,-3.2846,-3.2881,-3.2569,-3.1709,-3.1673,-3.1526,-3.1068,-3.0769,-3.0544,-3.043,-2.9807,-2.9341,-2.9314,-2.9118,-2.8922,-2.8922,-2.9052,-2.9131,-2.9236,-2.9236,-2.9326,-2.9573,-2.9599,-2.965,-2.9779,-3.0101,-3.0266,-3.0305,-3.057,-3.0704,-3.0418,-3.039,-3.0142,-2.9696,-2.9565,-2.9519,-2.9363,-2.9422,-2.9464,-2.9294,-2.9434,-2.9448,-2.9485,-2.9407,-2.9285,-2.9155,-2.8859,-2.8872,-3.4481,-3.4631,-3.4481,-3.4534,-3.4802,-3.485,-3.485,-3.4868,-3.5049,-3.5261,-3.5439,-3.5472,-3.5489,-3.5489,-3.5489,-3.5489,-3.5489,-3.5489,-3.5489,-3.5489,-3.5489,-3.5489,-3.5489,-3.5489,-3.5489,-3.5489,-3.5489,-3.5489,-3.5489,-3.5621,-3.5671,-3.5705,-3.5695,-3.5519,-3.5156,-3.4988,-3.4758,-3.4402,-3.4268,-3.3686,-3.252,-3.2336,-3.2188,-3.2076,-3.1724,-3.1552,-3.1523,-3.1204,-3.094,-3.0851,-3.0493,-3.0403,-3.0643,-2.9991,-2.9758,-3.0097,-2.9806,-2.9673,-2.9827,-3.0403,-3.1218,-3.2314,-3.2539,-3.2465,-3.22,-3.2668,-3.2704,-3.1978,-3.1856,-3.1489,-3.082,-3.0632,-3.0557,-3.0367,-2.9807,-2.9484,-2.9355,-2.8843,-2.851,-2.851,-2.8657,-2.8724,-2.8776,-2.8855,-2.8973,-2.9013,-2.9052,-2.9157,-2.9302,-2.9341,-2.9443,-2.9624,-2.9753,-2.9818,-2.9779,-2.9667,-2.9479,-2.8925,-2.885,-2.8659,-2.823,-2.7994,-2.7857,-2.7885,-2.7917,-2.8035,-2.8093,-2.8272,-2.8476,-2.8597,-2.8675,-2.8757,-2.8602,-2.7764,-2.7456,-3.4414,-3.4414,-3.4414,-3.4414,-3.4467,-3.465,-3.4731,-3.4731,-3.4883,-3.5034,-3.5228,-3.5407,-3.5504,-3.5489,-3.5489,-3.5489,-3.5489,-3.5489,-3.5489,-3.5489,-3.5489,-3.5489,-3.5489,-3.5489,-3.5489,-3.5489,-3.5489,-3.5489,-3.5489,-3.5537,-3.5572,-3.5612,-3.5115,-3.4937,-3.4926,-3.441,-3.406,-3.3939,-3.3653,-3.3231,-3.2701,-3.2083,-3.1567,-3.1146,-3.1073,-3.1058,-3.1043,-3.1029,-3.0792,-3.0403,-3.0326,-3.0144,-2.9789,-2.9634,-2.9634,-2.9665,-2.9617,-2.9841,-3.0371,-3.105,-3.171,-3.2356,-3.2883,-3.2834,-3.2146,-3.2123,-3.1856,-3.1156,-3.0994,-3.0657,-2.9922,-2.9807,-2.9561,-2.9,-2.8776,-2.8618,-2.8669,-2.855,-2.851,-2.851,-2.855,-2.855,-2.855,-2.859,-2.8657,-2.8803,-2.8934,-2.9052,-2.9118,-2.9131,-2.9197,-2.9431,-2.9611,-2.9753,-2.9741,-2.9327,-2.9051,-2.885,-2.8436,-2.7996,-2.7557,-2.7331,-2.7231,-2.7014,-2.6795,-2.6913,-2.6956,-2.693,-2.7087,-2.7443,-2.7544,-2.7453,-2.696,-2.6215,-2.5893,-3.438,-3.438,-3.438,-3.438,-3.4414,-3.4481,-3.4515,-3.453,-3.4683,-3.4831,-3.4931,-3.5082,-3.5294,-3.5489,-3.5489,-3.5489,-3.5489,-3.5489,-3.5489,-3.5489,-3.5489,-3.5489,-3.5489,-3.5489,-3.5489,-3.5489,-3.5489,-3.5489,-3.5489,-3.5489,-3.5537,-3.5557,-3.5302,-3.5065,-3.4785,-3.4152,-3.3818,-3.3824,-3.2909,-3.2261,-3.1855,-3.1807,-3.156,-3.1043,-3.0718,-3.0583,-3.0553,-3.0326,-3.0083,-2.9898,-2.9898,-2.9775,-2.9602,-2.9602,-2.9602,-2.9631,-2.9954,-3.0431,-3.105,-3.1682,-3.2286,-3.2904,-3.2707,-3.2245,-3.1452,-3.097,-3.0342,-2.9704,-2.9909,-2.9845,-2.9145,-2.8988,-2.8855,-2.855,-2.851,-2.851,-2.851,-2.851,-2.851,-2.851,-2.851,-2.851,-2.851,-2.851,-2.855,-2.8618,-2.8709,-2.8776,-2.8882,-2.8922,-2.9013,-2.9209,-2.9326,-2.9495,-2.9651,-2.9302,-2.885,-2.8448,-2.7984,-2.7467,-2.7014,-2.6839,-2.6738,-2.6512,-2.6499,-2.6521,-2.6615,-2.6589,-2.6624,-2.6794,-2.6926,-2.6932,-2.6133,-2.5634,-2.5299,-3.438,-3.438,-3.438,-3.438,-3.438,-3.438,-3.438,-3.4414,-3.4563,-3.4664,-3.4698,-3.4817,-3.5016,-3.5294,-3.5407,-3.5439,-3.5424,-3.5472,-3.5489,-3.5489,-3.5489,-3.5489,-3.5489,-3.5489,-3.5489,-3.5489,-3.5489,-3.5489,-3.5489,-3.5489,-3.5489,-3.5472,-3.5294,-3.4993,-3.4552,-3.3756,-3.3321,-3.3307,-3.2301,-3.1547,-3.1222,-3.1372,-3.118,-3.055,-3.0251,-3.0113,-3.0083,-2.9775,-2.9602,-2.9602,-2.9602,-2.9602,-2.9602,-2.9602,-2.9602,-2.9659,-3.0147,-3.0811,-3.1443,-3.1844,-3.234,-3.2812,-3.2196,-3.1402,-3.067,-3.0037,-2.9367,-2.8697,-2.904,-2.9106,-2.8618,-2.851,-2.851,-2.851,-2.851,-2.851,-2.851,-2.851,-2.851,-2.851,-2.851,-2.8438,-2.8318,-2.827,-2.8246,-2.8258,-2.8402,-2.855,-2.8657,-2.8724,-2.8803,-2.8949,-2.889,-2.8975,-2.9311,-2.8925,-2.8449,-2.7971,-2.7431,-2.6964,-2.6562,-2.6524,-2.6512,-2.6499,-2.6487,-2.6487,-2.6521,-2.6521,-2.6555,-2.6654,-2.6688,-2.6465,-2.5678,-2.5394,-2.4931,-3.438,-3.438,-3.438,-3.438,-3.438,-3.438,-3.438,-3.438,-3.4414,-3.4515,-3.4664,-3.4683,-3.4783,-3.4935,-3.5115,-3.5228,-3.5246,-3.5392,-3.5489,-3.5504,-3.5489,-3.5489,-3.5489,-3.5489,-3.5489,-3.5489,-3.5489,-3.5489,-3.5489,-3.5489,-3.5489,-3.5457,-3.4791,-3.4365,-3.4172,-3.3039,-3.2374,-3.2464,-3.1963,-3.1419,-3.0963,-3.063,-3.0135,-2.9448,-2.9491,-2.9602,-2.9602,-2.9602,-2.9571,-2.9571,-2.954,-2.9571,-2.9571,-2.9571,-2.9554,-2.9669,-3.0175,-3.0806,-3.1371,-3.1426,-3.1588,-3.1942,-3.1415,-3.0632,-2.9961,-2.9704,-2.9263,-2.859,-2.8578,-2.859,-2.851,-2.851,-2.851,-2.851,-2.851,-2.851,-2.851,-2.851,-2.851,-2.8498,-2.8462,-2.8234,-2.7813,-2.7714,-2.7813,-2.7921,-2.821,-2.851,-2.8526,-2.8538,-2.8557,-2.8567,-2.8429,-2.8191,-2.8473,-2.8213,-2.7752,-2.7424,-2.7045,-2.6587,-2.6524,-2.6487,-2.6487,-2.6487,-2.6487,-2.6487,-2.6487,-2.6521,-2.6555,-2.6497,-2.6223,-2.5848,-2.5371,-2.4978,-2.4542,-3.438,-3.438,-3.438,-3.438,-3.438,-3.438,-3.438,-3.438,-3.438,-3.4448,-3.4515,-3.4515,-3.4549,-3.4582,-3.4798,-3.4983,-3.5195,-3.5294,-3.5359,-3.5489,-3.5489,-3.5489,-3.5489,-3.5489,-3.5489,-3.5489,-3.5489,-3.5489,-3.5489,-3.5489,-3.5489,-3.5344,-3.471,-3.4312,-3.4062,-3.2917,-3.2208,-3.2142,-3.1621,-3.0991,-3.0477,-3.0477,-3.018,-2.9572,-2.9143,-2.8972,-2.894,-2.8972,-2.8972,-2.894,-2.894,-2.894,-2.894,-2.894,-2.926,-2.9808,-3.0443,-3.0893,-3.1282,-3.1627,-3.164,-3.1302,-3.0594,-3.0037,-2.9704,-2.925,-2.8816,-2.859,-2.851,-2.851,-2.851,-2.851,-2.851,-2.851,-2.851,-2.851,-2.851,-2.851,-2.851,-2.8462,-2.8234,-2.7789,-2.75,-2.7512,-2.7717,-2.7777,-2.8186,-2.8462,-2.845,-2.8246,-2.8041,-2.8071,-2.7941,-2.7656,-2.714,-2.7213,-2.7038,-2.6982,-2.6751,-2.6534,-2.643,-2.6418,-2.6418,-2.6465,-2.6465,-2.6499,-2.6465,-2.6487,-2.6555,-2.6467,-2.6169,-2.5646,-2.5198,-2.479,-2.429,-3.438,-3.438,-3.438,-3.438,-3.438,-3.438,-3.438,-3.438,-3.438,-3.438,-3.438,-3.438,-3.438,-3.4414,-3.453,-3.4765,-3.503,-3.5148,-3.5294,-3.5407,-3.5472,-3.5489,-3.5489,-3.5489,-3.5489,-3.5424,-3.5198,-3.51,-3.5118,-3.5133,-3.4986,-3.4721,-3.4192,-3.3837,-3.3427,-3.2409,-3.1724,-3.146,-3.1204,-3.0732,-3.0213,-3.0306,-3.0279,-2.9861,-2.9192,-2.8939,-2.9124,-2.9157,-2.9062,-2.8899,-2.8858,-2.8777,-2.8614,-2.8587,-2.8942,-2.9759,-3.0396,-3.0801,-3.0988,-3.1302,-3.123,-3.0557,-2.9781,-2.9289,-2.9263,-2.8803,-2.855,-2.851,-2.851,-2.851,-2.851,-2.851,-2.851,-2.851,-2.851,-2.851,-2.851,-2.851,-2.851,-2.8438,-2.8065,-2.757,-2.727,-2.7498,-2.7681,-2.7729,-2.8174,-2.8486,-2.845,-2.8077,-2.7786,-2.7819,-2.7323,-2.7009,-2.6608,-2.6491,-2.6371,-2.6305,-2.6418,-2.6323,-2.6292,-2.6327,-2.6327,-2.6361,-2.6396,-2.643,-2.6465,-2.6452,-2.6474,-2.6449,-2.6068,-2.5547,-2.5069,-2.4558,-2.4131,-3.4346,-3.4298,-3.438,-3.4264,-3.4264,-3.4264,-3.4346,-3.4312,-3.438,-3.438,-3.438,-3.438,-3.438,-3.4414,-3.4414,-3.4515,-3.4716,-3.5016,-3.5195,-3.5246,-3.5392,-3.5439,-3.5392,-3.5472,-3.5424,-3.5311,-3.4643,-3.4298,-3.4279,-3.4293,-3.3973,-3.3388,-3.3283,-3.2932,-3.2182,-3.1523,-3.0784,-3.0524,-3.0797,-3.071,-3.0192,-3.0202,-3.0226,-3.0085,-2.9633,-2.9662,-3.0227,-3.0193,-2.9835,-2.9409,-2.9342,-2.9137,-2.8733,-2.8652,-2.8893,-2.953,-3.0093,-3.0427,-3.0542,-3.0435,-3.019,-2.9665,-2.8988,-2.8618,-2.8657,-2.855,-2.851,-2.851,-2.851,-2.851,-2.851,-2.851,-2.851,-2.851,-2.851,-2.851,-2.851,-2.851,-2.8498,-2.839,-2.8005,-2.7702,-2.7642,-2.7642,-2.7678,-2.7801,-2.8162,-2.851,-2.8462,-2.8053,-2.7993,-2.796,-2.7257,-2.6493,-2.617,-2.5885,-2.5744,-2.5646,-2.5868,-2.5933,-2.6015,-2.605,-2.5933,-2.5945,-2.5594,-2.5629,-2.6107,-2.6129,-2.6349,-2.6283,-2.5841,-2.5498,-2.5136,-2.4677,-2.4097,-3.3555,-3.3485,-3.3017,-3.3136,-3.3555,-3.3589,-3.3589,-3.3624,-3.4113,-3.438,-3.438,-3.438,-3.438,-3.438,-3.438,-3.4414,-3.4515,-3.475,-3.4949,-3.5148,-3.5246,-3.5052,-3.4824,-3.5246,-3.5213,-3.461,-3.3905,-3.3526,-3.3547,-3.3526,-3.3388,-3.3157,-3.2684,-3.2362,-3.2051,-3.1394,-3.0869,-3.0777,-3.0882,-3.0882,-3.0738,-3.0712,-3.0712,-3.0699,-3.0542,-3.0598,-3.0742,-3.0037,-2.9548,-2.9336,-2.9336,-2.9257,-2.9098,-2.9072,-2.944,-3.0134,-3.0064,-3.0059,-3.0133,-2.9872,-2.9369,-2.8819,-2.8538,-2.851,-2.851,-2.8471,-2.8471,-2.851,-2.851,-2.851,-2.851,-2.851,-2.851,-2.851,-2.851,-2.851,-2.851,-2.851,-2.833,-2.7978,-2.7774,-2.7546,-2.7342,-2.7414,-2.7726,-2.7801,-2.8198,-2.8498,-2.8438,-2.8029,-2.7765,-2.7783,-2.6866,-2.606,-2.5762,-2.544,-2.5191,-2.5206,-2.5419,-2.5676,-2.5758,-2.5805,-2.5653,-2.5347,-2.5016,-2.4969,-2.5453,-2.5699,-2.5804,-2.6061,-2.579,-2.5544,-2.5322,-2.4777,-2.411,-3.3038,-3.2755,-3.229,-3.2362,-3.2791,-3.2791,-3.2791,-3.2875,-3.3311,-3.3673,-3.3859,-3.3638,-3.3722,-3.3859,-3.3687,-3.3722,-3.3928,-3.3825,-3.4031,-3.4539,-3.4754,-3.4442,-3.3925,-3.4341,-3.4423,-3.3871,-3.3143,-3.2791,-3.2791,-3.2777,-3.2662,-3.2354,-3.2196,-3.1942,-3.17,-3.1259,-3.1024,-3.1024,-3.1024,-3.1024,-3.1024,-3.1024,-3.1024,-3.1024,-3.1024,-3.1024,-3.0934,-3.0304,-2.981,-2.9601,-2.9405,-2.9323,-2.9274,-2.9084,-2.9295,-2.9809,-2.9597,-2.924,-2.9372,-2.8977,-2.8624,-2.8187,-2.8012,-2.808,-2.8199,-2.8271,-2.8271,-2.8283,-2.8351,-2.8391,-2.8391,-2.8471,-2.851,-2.851,-2.851,-2.851,-2.851,-2.851,-2.8402,-2.815,-2.8041,-2.7798,-2.7678,-2.7702,-2.7978,-2.8077,-2.8294,-2.851,-2.8366,-2.7834,-2.7753,-2.7338,-2.6345,-2.572,-2.534,-2.4997,-2.469,-2.4792,-2.4981,-2.5347,-2.5571,-2.5571,-2.5465,-2.4862,-2.4409,-2.4145,-2.4516,-2.466,-2.4791,-2.514,-2.5602,-2.5248,-2.4884,-2.4537,-2.3935,-3.2648,-3.2087,-3.1978,-3.1942,-3.2037,-3.2037,-3.2037,-3.2037,-3.2182,-3.2577,-3.2946,-3.2591,-3.2577,-3.2911,-3.2591,-3.2648,-3.2932,-3.2613,-3.2648,-3.3262,-3.3575,-3.3443,-3.3115,-3.3024,-3.3003,-3.3003,-3.234,-3.2051,-3.2051,-3.2015,-3.1713,-3.131,-3.1713,-3.1713,-3.1198,-3.1024,-3.1024,-3.1024,-3.1024,-3.1024,-3.1024,-3.1024,-3.1024,-3.1024,-3.1024,-3.1024,-3.0998,-3.0856,-3.0647,-3.0189,-2.9758,-2.9549,-2.9288,-2.8743,-2.8869,-2.9289,-2.861,-2.8446,-2.8361,-2.815,-2.7845,-2.7867,-2.758,-2.7356,-2.7891,-2.7962,-2.7962,-2.7973,-2.8111,-2.8219,-2.8259,-2.8391,-2.8471,-2.851,-2.851,-2.851,-2.851,-2.851,-2.8462,-2.8474,-2.8498,-2.8486,-2.8354,-2.8414,-2.8438,-2.845,-2.8462,-2.8486,-2.827,-2.7897,-2.7693,-2.7029,-2.6201,-2.5442,-2.5059,-2.457,-2.419,-2.3705,-2.4192,-2.4969,-2.5123,-2.5087,-2.4695,-2.4084,-2.3588,-2.3441,-2.3478,-2.3661,-2.4181,-2.4874,-2.4971,-2.4713,-2.4583,-2.4409,-2.4079,-3.1402,-3.1156,-3.0633,-3.0709,-3.1156,-3.1217,-3.1217,-3.1304,-3.1869,-3.211,-3.229,-3.2196,-3.2146,-3.234,-3.2182,-3.2218,-3.2254,-3.216,-3.1783,-3.1623,-3.1819,-3.2313,-3.2335,-3.1636,-3.1539,-3.1978,-3.1492,-3.1147,-3.1296,-3.1334,-3.1222,-3.1024,-3.1198,-3.1222,-3.1024,-3.1024,-3.1024,-3.1024,-3.1024,-3.1024,-3.1024,-3.1024,-3.1024,-3.1024,-3.1024,-3.1024,-3.1024,-3.1024,-3.0985,-3.079,-3.0647,-3.0306,-2.9843,-2.9555,-2.9265,-2.893,-2.8485,-2.8175,-2.8124,-2.7801,-2.7572,-2.7609,-2.7549,-2.774,-2.7846,-2.7893,-2.7881,-2.7921,-2.807,-2.8179,-2.8219,-2.8379,-2.8471,-2.851,-2.851,-2.851,-2.851,-2.851,-2.851,-2.851,-2.851,-2.851,-2.851,-2.851,-2.851,-2.851,-2.8486,-2.8402,-2.8162,-2.8038,-2.7882,-2.727,-2.6455,-2.5478,-2.4755,-2.4236,-2.362,-2.2794,-2.3342,-2.46,-2.4564,-2.4348,-2.3596,-2.2745,-2.2285,-2.2059,-2.2424,-2.275,-2.3562,-2.4264,-2.4661,-2.4585,-2.4847,-2.4825,-2.438,-3.072,-3.0419,-2.996,-3.0037,-3.0406,-3.0457,-3.0444,-3.052,-3.0897,-3.1331,-3.1502,-3.1257,-3.1318,-3.1576,-3.1281,-3.1318,-3.1563,-3.1257,-3.102,-3.097,-3.0746,-3.1033,-3.1318,-3.0684,-3.0684,-3.1134,-3.0861,-3.0811,-3.0874,-3.0949,-3.0986,-3.1024,-3.1024,-3.1024,-3.1024,-3.1024,-3.1024,-3.1024,-3.1024,-3.1024,-3.1024,-3.1024,-3.1024,-3.1024,-3.1024,-3.1024,-3.1024,-3.1024,-3.1024,-3.0973,-3.0973,-3.0697,-3.005,-2.949,-2.9032,-2.8412,-2.7834,-2.7488,-2.7449,-2.7208,-2.7192,-2.7296,-2.7394,-2.7411,-2.7539,-2.7609,-2.7598,-2.7598,-2.7777,-2.7886,-2.7926,-2.8179,-2.8379,-2.8471,-2.851,-2.851,-2.851,-2.851,-2.851,-2.851,-2.851,-2.851,-2.851,-2.851,-2.851,-2.851,-2.851,-2.8378,-2.8158,-2.817,-2.7837,-2.7014,-2.6057,-2.4973,-2.3836,-2.316,-2.3037,-2.2262,-2.2787,-2.4047,-2.4011,-2.3683,-2.2957,-2.2117,-2.1328,-2.0915,-2.1461,-2.1907,-2.2322,-2.3021,-2.3829,-2.4425,-2.4556,-2.4834,-2.4422,-3.0381,-2.9779,-2.9779,-2.9779,-2.9818,-2.9779,-2.9856,-2.9818,-2.9934,-3.0241,-3.0582,-3.0101,-3.0317,-3.0707,-3.0317,-3.0216,-3.0758,-3.0279,-3.0343,-3.0381,-3.0254,-3.0152,-3.0444,-3.0406,-3.033,-3.0482,-3.0584,-3.0622,-3.0698,-3.0836,-3.0949,-3.0949,-3.0986,-3.1024,-3.1024,-3.1024,-3.1024,-3.1024,-3.1024,-3.1024,-3.1024,-3.1024,-3.1024,-3.1024,-3.1024,-3.1024,-3.1024,-3.0986,-3.0936,-3.0874,-3.0911,-3.0508,-2.9858,-2.8845,-2.8133,-2.7584,-2.7091,-2.6788,-2.6679,-2.6783,-2.6823,-2.7082,-2.6869,-2.6726,-2.7168,-2.7272,-2.7272,-2.7272,-2.7412,-2.7563,-2.7684,-2.7978,-2.8191,-2.8351,-2.8391,-2.8431,-2.8471,-2.8471,-2.851,-2.851,-2.851,-2.851,-2.851,-2.851,-2.851,-2.851,-2.8486,-2.8342,-2.8222,-2.8134,-2.7411,-2.6306,-2.5276,-2.4209,-2.3058,-2.1973,-2.2017,-2.1838,-2.2596,-2.3379,-2.3379,-2.3047,-2.2537,-2.1842,-2.1059,-2.0683,-2.0789,-2.1126,-2.1433,-2.2021,-2.2973,-2.3474,-2.384,-2.4246,-2.418,-2.9921,-2.9779,-2.9779,-2.9779,-2.9779,-2.9779,-2.9779,-2.9779,-2.9779,-2.9895,-2.9998,-2.9869,-2.9895,-3.0062,-2.9895,-2.9895,-3.0062,-2.9895,-2.9934,-2.9921,-2.9934,-2.983,-2.9934,-2.9972,-3.0011,-3.0152,-3.0203,-3.0305,-3.0482,-3.0647,-3.0773,-3.0811,-3.0911,-3.1024,-3.1024,-3.1024,-3.1024,-3.1024,-3.1024,-3.1024,-3.1024,-3.1024,-3.1024,-3.1024,-3.1024,-3.1024,-3.1024,-3.1024,-3.0748,-3.0368,-3.0152,-2.996,-2.9291,-2.8594,-2.7905,-2.7347,-2.7111,-2.7013,-2.7047,-2.7001,-2.7093,-2.7121,-2.7075,-2.7064,-2.7144,-2.719,-2.719,-2.7231,-2.7371,-2.7563,-2.7748,-2.7869,-2.8002,-2.8042,-2.8082,-2.8111,-2.8271,-2.8391,-2.8471,-2.851,-2.851,-2.851,-2.851,-2.851,-2.851,-2.851,-2.8426,-2.8306,-2.8234,-2.8198,-2.7215,-2.6093,-2.5255,-2.4198,-2.2625,-2.1681,-2.1464,-2.1533,-2.2231,-2.2537,-2.2526,-2.2638,-2.2209,-2.1538,-2.0789,-2.0605,-2.0605,-2.0634,-2.1021,-2.1603,-2.214,-2.2695,-2.3212,-2.3665,-2.4044,-2.9779,-2.9779,-2.9779,-2.9779,-2.9779,-2.9779,-2.9779,-2.9779,-2.9779,-2.9779,-2.9779,-2.9779,-2.9779,-2.9779,-2.9779,-2.9779,-2.9779,-2.9779,-2.9792,-2.9818,-2.9792,-2.9792,-2.9779,-2.9792,-2.9869,-2.9972,-3.0088,-3.0152,-3.0292,-3.0457,-3.0622,-3.0698,-3.0811,-3.0911,-3.0986,-3.1024,-3.1024,-3.1024,-3.1024,-3.1024,-3.1024,-3.1024,-3.1024,-3.1024,-3.1024,-3.1024,-3.1024,-3.1024,-3.0634,-3.0114,-2.9729,-2.9289,-2.8718,-2.8139,-2.7556,-2.7025,-2.6875,-2.6864,-2.6875,-2.7093,-2.7179,-2.719,-2.719,-2.719,-2.719,-2.719,-2.719,-2.7231,-2.7301,-2.7464,-2.7667,-2.7708,-2.7748,-2.7881,-2.7881,-2.795,-2.8059,-2.8219,-2.8431,-2.8471,-2.851,-2.851,-2.851,-2.8471,-2.851,-2.851,-2.851,-2.8402,-2.8402,-2.8191,-2.7215,-2.6201,-2.544,-2.4277,-2.2482,-2.1484,-2.1101,-2.1262,-2.1662,-2.1642,-2.1489,-2.1756,-2.1945,-2.128,-2.0605,-2.0605,-2.0605,-2.0644,-2.0673,-2.1049,-2.1562,-2.2105,-2.2644,-2.3168,-2.3537,-2.9779,-2.9779,-2.9779,-2.9779,-2.9779,-2.9779,-2.9779,-2.9779,-2.9779,-2.9779,-2.9779,-2.9779,-2.9779,-2.9779,-2.9779,-2.9779,-2.9779,-2.9779,-2.9779,-2.9779,-2.9779,-2.9779,-2.9779,-2.9792,-2.9792,-2.9818,-2.9934,-3.0037,-3.0113,-3.0267,-3.0432,-3.0584,-3.0698,-3.0811,-3.0911,-3.0986,-3.1024,-3.1024,-3.1024,-3.1024,-3.1024,-3.1024,-3.1024,-3.1024,-3.1024,-3.1024,-3.1024,-3.0949,-3.0634,-2.9922,-2.9367,-2.8779,-2.814,-2.7664,-2.7172,-2.6662,-2.6714,-2.6749,-2.6829,-2.7024,-2.719,-2.719,-2.719,-2.719,-2.719,-2.719,-2.719,-2.719,-2.7231,-2.7301,-2.7441,-2.7452,-2.7586,-2.7719,-2.776,-2.78,-2.7881,-2.7978,-2.8139,-2.8311,-2.8311,-2.8311,-2.8391,-2.8391,-2.8471,-2.851,-2.851,-2.8471,-2.8471,-2.8223,-2.7282,-2.6263,-2.5456,-2.4073,-2.2265,-2.1242,-2.0867,-2.0944,-2.1242,-2.1088,-2.0828,-2.1049,-2.1318,-2.1021,-2.0605,-2.0615,-2.0615,-2.0605,-2.0644,-2.0712,-2.0991,-2.1559,-2.2137,-2.2685,-2.2979,-2.9779,-2.9779,-2.9779,-2.9779,-2.9779,-2.9779,-2.9779,-2.9779,-2.9779,-2.9779,-2.9779,-2.9779,-2.9779,-2.9779,-2.9779,-2.9779,-2.9779,-2.9779,-2.9779,-2.9779,-2.9779,-2.9779,-2.9779,-2.9779,-2.9779,-2.9792,-2.9856,-2.9856,-2.9908,-3.0049,-3.0203,-3.0279,-3.0508,-3.0698,-3.0761,-3.0911,-3.0949,-3.0986,-3.0986,-3.1024,-3.1024,-3.1024,-3.1024,-3.1024,-3.1024,-3.1024,-3.1024,-3.0949,-3.047,-2.9406,-2.916,-2.8462,-2.7713,-2.7308,-2.718,-2.7076,-2.7024,-2.7001,-2.7018,-2.7098,-2.719,-2.719,-2.719,-2.719,-2.719,-2.719,-2.719,-2.719,-2.719,-2.7231,-2.726,-2.7301,-2.726,-2.7313,-2.7353,-2.7423,-2.7534,-2.7615,-2.7736,-2.795,-2.799,-2.807,-2.8191,-2.8271,-2.8311,-2.8311,-2.8351,-2.8351,-2.8351,-2.8104,-2.7534,-2.6511,-2.5449,-2.3793,-2.2011,-2.1197,-2.0634,-2.0644,-2.0828,-2.0838,-2.0683,-2.0683,-2.0605,-2.0605,-2.0615,-2.0615,-2.0615,-2.0615,-2.0605,-2.0644,-2.0867,-2.1049,-2.1587,-2.2099,-2.2278,-2.9779,-2.9779,-2.9779,-2.9779,-2.9779,-2.9779,-2.9779,-2.9779,-2.9779,-2.9779,-2.9779,-2.9779,-2.9779,-2.9779,-2.9779,-2.9779,-2.9779,-2.9779,-2.9779,-2.9779,-2.9779,-2.9779,-2.9779,-2.9779,-2.9779,-2.9792,-2.9779,-2.9779,-2.9779,-2.9908,-3.0011,-3.0126,-3.0305,-3.0419,-3.0571,-3.0723,-3.0836,-3.0874,-3.0949,-3.0986,-3.1024,-3.1024,-3.1024,-3.1024,-3.1024,-3.1024,-3.1024,-3.1024,-3.0381,-2.9394,-2.9121,-2.8383,-2.7615,-2.719,-2.719,-2.719,-2.719,-2.719,-2.719,-2.719,-2.719,-2.719,-2.719,-2.719,-2.719,-2.719,-2.719,-2.719,-2.719,-2.719,-2.719,-2.719,-2.719,-2.719,-2.719,-2.726,-2.7301,-2.733,-2.7423,-2.7598,-2.776,-2.7921,-2.8002,-2.8082,-2.8111,-2.8151,-2.8191,-2.8191,-2.8231,-2.7968,-2.7608,-2.6495,-2.5315,-2.3557,-2.1983,-2.1197,-2.0489,-2.045,-2.0527,-2.0527,-2.0566,-2.0605,-2.0605,-2.0605,-2.0615,-2.0576,-2.0615,-2.0615,-2.0615,-2.0615,-2.0722,-2.0905,-2.1126,-2.14,-2.1655,-2.9779,-2.9779,-2.9779,-2.9779,-2.9779,-2.9779,-2.9779,-2.9779,-2.9779,-2.9779,-2.9779,-2.9779,-2.9779,-2.9779,-2.9779,-2.9779,-2.9779,-2.9779,-2.9779,-2.9779,-2.9779,-2.9779,-2.9779,-2.9779,-2.9779,-2.9779,-2.9779,-2.9779,-2.9779,-2.983,-2.9908,-3.0011,-3.0037,-3.0152,-3.0343,-3.0533,-3.0622,-3.0736,-3.0849,-3.0949,-3.0986,-3.1024,-3.1024,-3.1024,-3.1024,-3.1024,-3.1024,-3.1024,-3.0343,-2.9471,-2.9003,-2.8542,-2.7464,-2.719,-2.719,-2.719,-2.719,-2.719,-2.719,-2.719,-2.719,-2.719,-2.719,-2.719,-2.719,-2.719,-2.719,-2.719,-2.719,-2.719,-2.719,-2.719,-2.719,-2.719,-2.719,-2.719,-2.7231,-2.7231,-2.7219,-2.7394,-2.7598,-2.7719,-2.78,-2.7829,-2.7857,-2.799,-2.8042,-2.8042,-2.8042,-2.8002,-2.7535,-2.6406,-2.5058,-2.3306,-2.1983,-2.1205,-2.0557,-2.0216,-2.0333,-2.0459,-2.0489,-2.0527,-2.0566,-2.0566,-2.0498,-2.0498,-2.0537,-2.0615,-2.0615,-2.0615,-2.0615,-2.0683,-2.0905,-2.1049,-2.1237,-2.9779,-2.9779,-2.9779,-2.9779,-2.9779,-2.9779,-2.9779,-2.9779,-2.9779,-2.9779,-2.9779,-2.9779,-2.9779,-2.9779,-2.9779,-2.9779,-2.9779,-2.9779,-2.9779,-2.9779,-2.9779,-2.9779,-2.9779,-2.9779,-2.9779,-2.9779,-2.9779,-2.9779,-2.9779,-2.9779,-2.9779,-2.9856,-3.0011,-3.0113,-3.0164,-3.0343,-3.0533,-3.066,-3.0736,-3.0849,-3.0986,-3.0986,-3.1024,-3.1024,-3.1024,-3.1024,-3.0986,-3.0898,-3.0305,-2.9277,-2.9081,-2.8462,-2.7464,-2.719,-2.719,-2.719,-2.719,-2.719,-2.719,-2.719,-2.719,-2.719,-2.719,-2.719,-2.719,-2.719,-2.719,-2.719,-2.719,-2.719,-2.719,-2.719,-2.719,-2.719,-2.719,-2.719,-2.719,-2.719,-2.719,-2.719,-2.7394,-2.7464,-2.7534,-2.7563,-2.7603,-2.7788,-2.7881,-2.7841,-2.7841,-2.776,-2.7334,-2.62,-2.4932,-2.3171,-2.1837,-2.1079,-2.0479,-2.002,-2.0137,-2.0303,-2.0342,-2.0372,-2.0489,-2.045,-2.042,-2.0381,-2.0411,-2.045,-2.0566,-2.0615,-2.0615,-2.0615,-2.0605,-2.075,-2.0895,-2.9779,-2.9779,-2.9779,-2.9779,-2.9779,-2.9779,-2.9779,-2.9779,-2.9779,-2.9779,-2.9779,-2.9779,-2.9779,-2.9779,-2.9779,-2.9779,-2.9779,-2.9779,-2.9779,-2.9779,-2.9779,-2.9779,-2.9779,-2.9779,-2.9779,-2.9779,-2.9779,-2.9779,-2.9779,-2.9779,-2.9779,-2.9818,-2.9856,-2.9895,-2.9972,-3.0113,-3.0228,-3.0381,-3.0584,-3.0723,-3.0836,-3.0949,-3.0986,-3.0986,-3.0986,-3.0986,-3.0911,-3.0545,-3.0037,-2.916,-2.8806,-2.8167,-2.7464,-2.719,-2.719,-2.719,-2.719,-2.719,-2.719,-2.719,-2.719,-2.719,-2.719,-2.719,-2.719,-2.719,-2.719,-2.719,-2.719,-2.719,-2.719,-2.719,-2.719,-2.719,-2.719,-2.719,-2.719,-2.719,-2.719,-2.719,-2.719,-2.726,-2.733,-2.7371,-2.7412,-2.7464,-2.7557,-2.7516,-2.7476,-2.7435,-2.6828,-2.5993,-2.4598,-2.3108,-2.1886,-2.0857,-2.0216,-1.9833,-1.9902,-2.0059,-2.0069,-2.0137,-2.0255,-2.0255,-2.0098,-2.0137,-2.0255,-2.0333,-2.042,-2.0498,-2.0615,-2.0576,-2.0566,-2.0605,-2.0731,-2.9779,-2.9779,-2.9779,-2.9779,-2.9779,-2.9779,-2.9779,-2.9779,-2.9779,-2.9779,-2.9779,-2.9779,-2.9779,-2.9779,-2.9779,-2.9779,-2.9779,-2.9779,-2.9779,-2.9779,-2.9779,-2.9779,-2.9779,-2.9779,-2.9779,-2.9779,-2.9779,-2.9779,-2.9779,-2.9779,-2.9779,-2.9779,-2.9818,-2.9818,-2.9818,-2.9921,-3.0037,-3.019,-3.0508,-3.066,-3.0647,-3.0849,-3.0874,-3.0874,-3.0911,-3.0911,-3.0836,-3.0355,-2.9755,-2.9121,-2.8554,-2.7938,-2.7353,-2.719,-2.719,-2.719,-2.719,-2.719,-2.719,-2.719,-2.719,-2.719,-2.719,-2.719,-2.719,-2.719,-2.719,-2.719,-2.719,-2.719,-2.719,-2.719,-2.719,-2.719,-2.719,-2.719,-2.719,-2.719,-2.719,-2.719,-2.719,-2.719,-2.7231,-2.7231,-2.7231,-2.719,-2.719,-2.719,-2.7167,-2.7196,-2.6565,-2.5846,-2.4912,-2.3462,-2.202,-2.0934,-2.0216,-1.9676,-1.9794,-1.9794,-1.9833,-1.9912,-2.002,-1.9942,-1.9863,-1.9942,-2.002,-2.0147,-2.0264,-2.0381,-2.0459,-2.0527,-2.0566,-2.0566,-2.0595,-2.9779,-2.9779,-2.9779,-2.9779,-2.9779,-2.9779,-2.9779,-2.9779,-2.9779,-2.9779,-2.9779,-2.9779,-2.9779,-2.9779,-2.9779,-2.9779,-2.9779,-2.9779,-2.9779,-2.9779,-2.9779,-2.9779,-2.9779,-2.9779,-2.9779,-2.9779,-2.9779,-2.9779,-2.9779,-2.9779,-2.9779,-2.9779,-2.9779,-2.9779,-2.9779,-2.9856,-2.9934,-3.0088,-3.0432,-3.0457,-3.0457,-3.0495,-3.0609,-3.0482,-3.0571,-3.0736,-3.0698,-3.0075,-2.96,-2.9015,-2.8407,-2.7857,-2.7313,-2.719,-2.719,-2.719,-2.719,-2.719,-2.719,-2.719,-2.719,-2.719,-2.719,-2.719,-2.719,-2.719,-2.719,-2.719,-2.719,-2.719,-2.719,-2.719,-2.719,-2.719,-2.719,-2.719,-2.719,-2.719,-2.719,-2.719,-2.719,-2.719,-2.719,-2.719,-2.719,-2.719,-2.719,-2.719,-2.7087,-2.7024,-2.6462,-2.5819,-2.5238,-2.3939,-2.2286,-2.127,-2.0508,-1.9902,-1.9706,-1.9676,-1.9645,-1.9715,-1.9745,-1.9745,-1.9706,-1.9745,-1.9824,-1.9863,-1.9942,-2.0186,-2.0342,-2.0372,-2.045,-2.0498,-2.0537,-2.9779,-2.9779,-2.9779,-2.9779,-2.9779,-2.9779,-2.9779,-2.9779,-2.9779,-2.9779,-2.9779,-2.9779,-2.9779,-2.9779,-2.9779,-2.9779,-2.9779,-2.9779,-2.9779,-2.9779,-2.9779,-2.9779,-2.9779,-2.9779,-2.9779,-2.9779,-2.9779,-2.9779,-2.9779,-2.9779,-2.9779,-2.9779,-2.9779,-2.9779,-2.9779,-2.9779,-2.9856,-2.9934,-3.0113,-3.0075,-2.9625,-3.0139,-3.0216,-2.9639,-2.9639,-3.005,-3.0203,-2.9069,-2.8846,-2.8633,-2.8059,-2.7545,-2.7219,-2.719,-2.719,-2.719,-2.7149,-2.719,-2.719,-2.719,-2.719,-2.719,-2.719,-2.719,-2.719,-2.719,-2.719,-2.719,-2.719,-2.719,-2.719,-2.719,-2.719,-2.719,-2.719,-2.719,-2.719,-2.719,-2.719,-2.719,-2.719,-2.719,-2.719,-2.719,-2.719,-2.719,-2.719,-2.7167,-2.7128,-2.6955,-2.6439,-2.5844,-2.5237,-2.4412,-2.2794,-2.1783,-2.0895,-2.0274,-1.9706,-1.9587,-1.9557,-1.9429,-1.946,-1.9499,-1.9499,-1.9539,-1.9539,-1.9539,-1.9666,-1.9951,-2.0098,-2.0137,-2.0255,-2.0381,-2.0411,-2.9779,-2.9779,-2.9779,-2.9779,-2.9779,-2.9779,-2.9779,-2.9779,-2.9779,-2.9779,-2.9779,-2.9779,-2.9779,-2.9779,-2.9779,-2.9779,-2.9779,-2.9779,-2.9779,-2.9779,-2.9779,-2.9779,-2.9779,-2.9779,-2.9779,-2.9779,-2.9779,-2.9779,-2.9779,-2.9779,-2.9779,-2.9779,-2.9779,-2.9779,-2.9779,-2.9779,-2.9779,-2.9818,-2.9611,-2.9443,-2.891,-2.9094,-2.9199,-2.8597,-2.8676,-2.903,-2.9238,-2.8569,-2.8303,-2.8207,-2.7817,-2.7219,-2.7097,-2.7097,-2.7097,-2.7097,-2.7108,-2.719,-2.719,-2.719,-2.719,-2.719,-2.719,-2.719,-2.719,-2.719,-2.719,-2.719,-2.719,-2.719,-2.719,-2.719,-2.719,-2.719,-2.719,-2.719,-2.719,-2.719,-2.719,-2.719,-2.719,-2.719,-2.719,-2.719,-2.719,-2.719,-2.719,-2.7167,-2.7121,-2.6944,-2.6588,-2.5954,-2.5297,-2.4368,-2.3313,-2.2514,-2.1662,-2.0537,-2.004,-1.9648,-1.9529,-1.9371,-1.9292,-1.9371,-1.9371,-1.9292,-1.9332,-1.9381,-1.9548,-1.9754,-1.9863,-1.9981,-2.0059,-2.0137,-2.0216,-2.9779,-2.9779,-2.9779,-2.9779,-2.9779,-2.9779,-2.9779,-2.9779,-2.9779,-2.9779,-2.9779,-2.9779,-2.9779,-2.9779,-2.9779,-2.9779,-2.9779,-2.9779,-2.9779,-2.9779,-2.9779,-2.9779,-2.9779,-2.9779,-2.9779,-2.9779,-2.9779,-2.9779,-2.9779,-2.9779,-2.9779,-2.9779,-2.9779,-2.9779,-2.9779,-2.9779,-2.9779,-2.9702,-2.9209,-2.8791,-2.8383,-2.8079,-2.7747,-2.7464,-2.7654,-2.8004,-2.8307,-2.7983,-2.7765,-2.7926,-2.7493,-2.6933,-2.658,-2.6921,-2.6921,-2.6652,-2.7015,-2.7149,-2.7179,-2.719,-2.719,-2.719,-2.719,-2.719,-2.719,-2.719,-2.719,-2.719,-2.719,-2.719,-2.719,-2.719,-2.719,-2.719,-2.719,-2.719,-2.719,-2.719,-2.719,-2.719,-2.719,-2.719,-2.719,-2.719,-2.719,-2.719,-2.719,-2.7167,-2.7133,-2.7024,-2.6726,-2.6216,-2.5517,-2.4804,-2.3991,-2.3299,-2.2402,-2.1203,-2.0304,-1.9923,-1.9529,-1.9332,-1.9292,-1.9292,-1.9292,-1.9292,-1.9292,-1.9292,-1.946,-1.9587,-1.9745,-1.9824,-1.9902,-1.9942,-1.9981,-2.9779,-2.9779,-2.9779,-2.9779,-2.9779,-2.9779,-2.9779,-2.9779,-2.9779,-2.9779,-2.9779,-2.9779,-2.9779,-2.9779,-2.9779,-2.9779,-2.9779,-2.9779,-2.9779,-2.9779,-2.9779,-2.9779,-2.9779,-2.9779,-2.9779,-2.9779,-2.9779,-2.9779,-2.9779,-2.9779,-2.9779,-2.9779,-2.9779,-2.9779,-2.9779,-2.9779,-2.9779,-2.9663,-2.904,-2.8291,-2.7637,-2.7273,-2.6853,-2.6276,-2.6513,-2.7005,-2.7626,-2.7185,-2.7115,-2.7389,-2.6962,-2.655,-2.6249,-2.6509,-2.6663,-2.6569,-2.6933,-2.7015,-2.6962,-2.6921,-2.719,-2.719,-2.719,-2.719,-2.719,-2.719,-2.719,-2.719,-2.719,-2.719,-2.719,-2.719,-2.719,-2.719,-2.719,-2.719,-2.719,-2.719,-2.719,-2.719,-2.719,-2.7201,-2.7201,-2.719,-2.719,-2.719,-2.719,-2.719,-2.7167,-2.711,-2.6955,-2.645,-2.5867,-2.5264,-2.4608,-2.3895,-2.3014,-2.1804,-2.0808,-2.0079,-1.9766,-1.945,-1.9292,-1.9292,-1.9292,-1.9292,-1.9292,-1.9292,-1.9341,-1.9429,-1.9548,-1.9666,-1.9666,-1.9706,-1.9784,-2.9779,-2.9779,-2.9779,-2.9779,-2.9779,-2.9779,-2.9779,-2.9779,-2.9779,-2.9779,-2.9779,-2.9779,-2.9779,-2.9779,-2.9779,-2.9779,-2.9779,-2.9779,-2.9779,-2.9779,-2.9779,-2.9779,-2.9779,-2.9779,-2.9779,-2.9779,-2.9779,-2.9779,-2.9779,-2.9779,-2.9779,-2.9779,-2.9779,-2.9779,-2.9779,-2.9779,-2.9585,-2.917,-2.8383,-2.7516,-2.6823,-2.6287,-2.5883,-2.5547,-2.5631,-2.5997,-2.6464,-2.6404,-2.6146,-2.6498,-2.6456,-2.6093,-2.5926,-2.601,-2.629,-2.6426,-2.6633,-2.6674,-2.6509,-2.6663,-2.688,-2.6921,-2.7097,-2.719,-2.719,-2.719,-2.719,-2.719,-2.719,-2.719,-2.719,-2.719,-2.7236,-2.7236,-2.7408,-2.7419,-2.7552,-2.7575,-2.7694,-2.7649,-2.7419,-2.7385,-2.7213,-2.7201,-2.719,-2.719,-2.719,-2.719,-2.719,-2.7144,-2.7098,-2.6737,-2.6267,-2.573,-2.5112,-2.4457,-2.3495,-2.2413,-2.1558,-2.0751,-1.9952,-1.9638,-1.949,-1.9292,-1.9292,-1.9292,-1.9292,-1.9292,-1.9301,-1.9301,-1.9332,-1.942,-1.9469,-1.9548,-1.9587,-2.9779,-2.9779,-2.9779,-2.9779,-2.9779,-2.9779,-2.9779,-2.9779,-2.9779,-2.9779,-2.9779,-2.9779,-2.9779,-2.9779,-2.9779,-2.9779,-2.9779,-2.9779,-2.9779,-2.9779,-2.9779,-2.9779,-2.9779,-2.9779,-2.9779,-2.9779,-2.9779,-2.9779,-2.9779,-2.9779,-2.9779,-2.9779,-2.9779,-2.9779,-2.9779,-2.9546,-2.9248,-2.8633,-2.7839,-2.6976,-2.6193,-2.5232,-2.4946,-2.4828,-2.5031,-2.5285,-2.5622,-2.5675,-2.5812,-2.5937,-2.5853,-2.5591,-2.5506,-2.5644,-2.5812,-2.6021,-2.6332,-2.6166,-2.601,-2.6249,-2.6373,-2.6415,-2.6798,-2.7015,-2.719,-2.719,-2.719,-2.719,-2.719,-2.719,-2.719,-2.7259,-2.7328,-2.7552,-2.7805,-2.792,-2.8057,-2.8207,-2.8436,-2.8356,-2.8023,-2.7782,-2.7305,-2.719,-2.719,-2.719,-2.719,-2.719,-2.719,-2.719,-2.7133,-2.7064,-2.6657,-2.6244,-2.5673,-2.504,-2.429,-2.3297,-2.2529,-2.1722,-2.0858,-1.9902,-1.9648,-1.945,-1.9332,-1.9292,-1.9292,-1.9292,-1.9292,-1.9292,-1.9292,-1.9292,-1.9381,-1.9381,-1.9381,-2.9779,-2.9779,-2.9779,-2.9779,-2.9779,-2.9779,-2.9779,-2.9779,-2.9779,-2.9779,-2.9779,-2.9779,-2.9779,-2.9779,-2.9779,-2.9779,-2.9779,-2.9779,-2.9779,-2.9779,-2.9779,-2.9779,-2.9779,-2.9779,-2.9779,-2.9779,-2.9779,-2.9779,-2.9779,-2.9779,-2.9779,-2.9779,-2.9779,-2.9779,-2.9585,-2.9209,-2.8791,-2.8251,-2.7424,-2.6565,-2.5746,-2.4903,-2.4625,-2.4583,-2.4625,-2.4871,-2.5158,-2.5285,-2.538,-2.5422,-2.538,-2.5242,-2.5285,-2.5369,-2.5464,-2.5853,-2.5979,-2.5884,-2.558,-2.5832,-2.5957,-2.5832,-2.6093,-2.6644,-2.6944,-2.7108,-2.7108,-2.7097,-2.7097,-2.7097,-2.7264,-2.7449,-2.7564,-2.7782,-2.8103,-2.8459,-2.8586,-2.8735,-2.8907,-2.8609,-2.8287,-2.7862,-2.7396,-2.719,-2.719,-2.719,-2.719,-2.719,-2.719,-2.719,-2.7179,-2.7121,-2.673,-2.6246,-2.6091,-2.559,-2.4942,-2.4222,-2.3238,-2.2229,-2.1272,-2.0407,-1.9929,-1.9578,-1.9371,-1.9292,-1.9292,-1.9292,-1.9292,-1.9292,-1.9292,-1.9292,-1.9292,-1.9292,-1.9292,-2.9779,-2.9779,-2.9779,-2.9779,-2.9779,-2.9779,-2.9779,-2.9779,-2.9779,-2.9779,-2.9779,-2.9779,-2.9779,-2.9779,-2.9779,-2.9779,-2.9779,-2.9779,-2.9779,-2.9779,-2.9779,-2.9779,-2.9779,-2.9779,-2.9779,-2.9779,-2.9779,-2.9779,-2.9779,-2.9779,-2.9779,-2.9779,-2.9779,-2.9779,-2.9573,-2.904,-2.8331,-2.7718,-2.7017,-2.6152,-2.5421,-2.4775,-2.4625,-2.4507,-2.4507,-2.4711,-2.4914,-2.4956,-2.4956,-2.4914,-2.4903,-2.4914,-2.4988,-2.5073,-2.5073,-2.5391,-2.5506,-2.5327,-2.5073,-2.5369,-2.5369,-2.5422,-2.5601,-2.6104,-2.6396,-2.6561,-2.6674,-2.6798,-2.688,-2.6996,-2.7314,-2.7621,-2.7793,-2.7977,-2.8471,-2.8976,-2.9114,-2.9228,-2.9033,-2.8735,-2.8356,-2.7931,-2.7598,-2.7328,-2.719,-2.719,-2.719,-2.719,-2.719,-2.719,-2.719,-2.7167,-2.6665,-2.6168,-2.6063,-2.5797,-2.4922,-2.4054,-2.3022,-2.208,-2.1391,-2.0627,-1.9897,-1.954,-1.9332,-1.9292,-1.9292,-1.9292,-1.9292,-1.9292,-1.9292,-1.9292,-1.9292,-1.9292,-1.9292,-2.9779,-2.9779,-2.9779,-2.9779,-2.9779,-2.9779,-2.9779,-2.9779,-2.9779,-2.9779,-2.9779,-2.9779,-2.9779,-2.9779,-2.9779,-2.9779,-2.9779,-2.9779,-2.9779,-2.9779,-2.9779,-2.9779,-2.9779,-2.9779,-2.9779,-2.9779,-2.9779,-2.9779,-2.9779,-2.9779,-2.9779,-2.9779,-2.9779,-2.9779,-2.9663,-2.8673,-2.7879,-2.7302,-2.6318,-2.5337,-2.4861,-2.454,-2.4507,-2.4507,-2.4507,-2.454,-2.454,-2.455,-2.4507,-2.4497,-2.454,-2.454,-2.47,-2.4946,-2.4914,-2.4828,-2.4999,-2.4914,-2.4786,-2.4956,-2.5073,-2.5211,-2.5559,-2.5644,-2.5728,-2.6104,-2.6313,-2.6493,-2.6557,-2.6774,-2.7049,-2.7787,-2.818,-2.8494,-2.8925,-2.9324,-2.9573,-2.9584,-2.9389,-2.9033,-2.8586,-2.8115,-2.7431,-2.719,-2.719,-2.719,-2.719,-2.719,-2.719,-2.719,-2.719,-2.7149,-2.6498,-2.5991,-2.5847,-2.5422,-2.4616,-2.3678,-2.2859,-2.2248,-2.1802,-2.0869,-1.9787,-1.9573,-1.9439,-1.9329,-1.9292,-1.9292,-1.9292,-1.9292,-1.9292,-1.9292,-1.9292,-1.9292,-1.9292,-2.9779,-2.9779,-2.9779,-2.9779,-2.9779,-2.9779,-2.9779,-2.9779,-2.9779,-2.9779,-2.9779,-2.9779,-2.9779,-2.9779,-2.9779,-2.9779,-2.9779,-2.9779,-2.9779,-2.9779,-2.9792,-2.9779,-2.9779,-2.9779,-2.9779,-2.9779,-2.9779,-2.9779,-2.9779,-2.9779,-2.9779,-2.9779,-2.974,-2.9663,-2.9534,-2.8343,-2.7232,-2.6853,-2.5673,-2.4903,-2.4583,-2.4507,-2.4507,-2.4507,-2.4507,-2.4507,-2.4507,-2.4507,-2.4507,-2.4497,-2.4497,-2.4507,-2.455,-2.4956,-2.4914,-2.4625,-2.4625,-2.4625,-2.4625,-2.4668,-2.4743,-2.4711,-2.4839,-2.4839,-2.5052,-2.5559,-2.595,-2.6111,-2.6315,-2.6565,-2.6991,-2.7829,-2.8486,-2.8867,-2.9273,-2.9623,-2.9907,-2.9815,-2.9711,-2.9286,-2.8827,-2.8164,-2.7447,-2.7149,-2.719,-2.719,-2.719,-2.719,-2.719,-2.719,-2.719,-2.7015,-2.6268,-2.5804,-2.5611,-2.4943,-2.398,-2.3814,-2.3252,-2.2715,-2.2119,-2.1021,-1.993,-1.9738,-1.9604,-1.9467,-1.9347,-1.9292,-1.9292,-1.9292,-1.9292,-1.9292,-1.9292,-1.9292,-1.9292,-2.9779,-2.9779,-2.9779,-2.9779,-2.9779,-2.9779,-2.9779,-2.9779,-2.9779,-2.9779,-2.9779,-2.9779,-2.9779,-2.9779,-2.9779,-2.9689,-2.9689,-2.9753,-2.9702,-2.965,-2.974,-2.9779,-2.9779,-2.9779,-2.9779,-2.9779,-2.9779,-2.9779,-2.9779,-2.9779,-2.9779,-2.9702,-2.9585,-2.9209,-2.9,-2.7557,-2.6565,-2.64,-2.5115,-2.4636,-2.4518,-2.4507,-2.4507,-2.4507,-2.4507,-2.4507,-2.4507,-2.4507,-2.4507,-2.4507,-2.4507,-2.4507,-2.454,-2.4743,-2.4743,-2.4583,-2.4507,-2.4507,-2.4507,-2.4507,-2.4507,-2.4507,-2.4507,-2.4625,-2.4625,-2.5115,-2.5552,-2.5733,-2.6023,-2.6271,-2.702,-2.7811,-2.8121,-2.8454,-2.8867,-2.9226,-2.9659,-2.9886,-2.9713,-2.9412,-2.88,-2.8017,-2.7405,-2.6866,-2.6896,-2.688,-2.6921,-2.719,-2.719,-2.7149,-2.7149,-2.6798,-2.6008,-2.5368,-2.5009,-2.4224,-2.3215,-2.3199,-2.3335,-2.2518,-2.1598,-2.0834,-2.0113,-1.9957,-1.9756,-1.9558,-1.9448,-1.9356,-1.9301,-1.9292,-1.9292,-1.9292,-1.9292,-1.9292,-1.9292,-2.9779,-2.9779,-2.9779,-2.9779,-2.9779,-2.9779,-2.9779,-2.9779,-2.9779,-2.9779,-2.9779,-2.9779,-2.9779,-2.9779,-2.9779,-2.9599,-2.9509,-2.9599,-2.956,-2.9521,-2.965,-2.9702,-2.9779,-2.9779,-2.9779,-2.9779,-2.9779,-2.9779,-2.9779,-2.9779,-2.974,-2.9624,-2.9118,-2.8502,-2.7971,-2.6894,-2.5902,-2.5801,-2.5137,-2.4645,-2.4538,-2.4507,-2.4507,-2.4507,-2.4507,-2.4507,-2.4507,-2.4507,-2.4507,-2.4507,-2.4507,-2.4507,-2.4507,-2.4583,-2.4583,-2.4507,-2.4507,-2.4507,-2.4507,-2.4507,-2.4507,-2.4507,-2.4507,-2.4507,-2.4497,-2.4781,-2.5174,-2.5556,-2.5846,-2.6232,-2.6981,-2.7594,-2.7878,-2.8087,-2.8506,-2.8863,-2.9336,-2.9738,-2.9523,-2.9305,-2.8652,-2.7851,-2.7283,-2.6791,-2.6632,-2.6648,-2.6745,-2.7003,-2.7138,-2.7056,-2.7056,-2.6415,-2.5547,-2.4999,-2.4584,-2.3507,-2.2511,-2.2482,-2.2499,-2.1842,-2.1245,-2.0817,-2.0479,-2.0223,-2.0003,-1.9769,-1.954,-1.9402,-1.9356,-1.9301,-1.9292,-1.9292,-1.9292,-1.9292,-1.9292,-2.9779,-2.9779,-2.9779,-2.9779,-2.9779,-2.9779,-2.9779,-2.9779,-2.9779,-2.9779,-2.9779,-2.9779,-2.9779,-2.9779,-2.9779,-2.9611,-2.938,-2.947,-2.947,-2.9419,-2.9509,-2.9611,-2.9753,-2.9779,-2.9779,-2.9779,-2.9779,-2.9779,-2.9779,-2.9779,-2.9779,-2.974,-2.887,-2.8383,-2.8131,-2.6917,-2.5707,-2.5551,-2.539,-2.4952,-2.4631,-2.4569,-2.4507,-2.4507,-2.4507,-2.4507,-2.4507,-2.4507,-2.4507,-2.4507,-2.4507,-2.4507,-2.4507,-2.4507,-2.4507,-2.4507,-2.4507,-2.4507,-2.4507,-2.4507,-2.4507,-2.4507,-2.4518,-2.4538,-2.4642,-2.489,-2.5344,-2.5771,-2.6048,-2.6236,-2.6887,-2.7565,-2.7925,-2.8064,-2.8341,-2.8585,-2.891,-2.8958,-2.8884,-2.8608,-2.8219,-2.7557,-2.6998,-2.6656,-2.6488,-2.6493,-2.6479,-2.6727,-2.7056,-2.7015,-2.6914,-2.6188,-2.5338,-2.4787,-2.4456,-2.294,-2.1989,-2.1945,-2.1891,-2.1647,-2.1403,-2.1202,-2.09,-2.0607,-2.025,-1.9939,-1.971,-1.9531,-1.9384,-1.9329,-1.9301,-1.9292,-1.9292,-1.9292,-1.9292]},{"header":{"parameterUnit":"m.s-1","parameterCategory":1,"la1":31.0,"la2":29.5877,"lo1":-88.7671,"lo2":-86.6584,"dy":0.0162,"dx":0.0185,"nx":115,"ny":88,"refTime":"2024-05-28T06:00:00:Z","depth":0,"parameterNumber":3,"parameterNumberName":"V-component_of_WINDS"},"data":[0.0,0.0,0.0,0.0,0.0,0.0,0.0,0.0,0.0,0.0,0.0,0.0,0.0,0.0,0.0,0.0,0.0,0.0,0.0,0.0,0.0,0.0,0.0,0.0,0.0,0.0,0.0,0.0,0.0,0.0,0.0,0.0,0.0,0.0,0.0,0.0,0.0,0.0,0.0,0.0,0.0,0.0,0.0,0.0,0.0,0.0,0.0,0.0,0.0,0.0,0.0,0.0,0.0,0.0,0.0,0.0,0.0,0.0,0.0,0.0,0.0,0.0,0.0,0.0,0.0,0.0,0.0,0.0,0.0,0.0,0.0,0.0,0.0,0.0,0.0,0.0,0.0,0.0,0.0,0.0,0.0,0.0,0.0,0.0,0.0,0.0,0.0,0.0,0.0,0.0,0.0,0.0,0.0,0.0,0.0,0.0,0.0,0.0,0.0,0.0,0.0,0.0,0.0,0.0,0.0,0.0,0.0,0.0,0.0,0.0,0.0,0.0,0.0,0.0,0.0,0.0,0.0,0.0,0.0,0.0,0.0,0.0,0.0,0.0,0.0,0.0,0.0,0.0,0.0,0.0,0.0,0.0,0.0,0.0,0.0,0.0,0.0,0.0,0.0,0.0,0.0,0.0,0.0,0.0,0.0,0.0,0.0,0.0,0.0,0.0,0.0,0.0,0.0,0.0,0.0,0.0,0.0,0.0,0.0,0.0,0.0,0.0,0.0,0.0,0.0,0.0,0.0,0.0,0.0,0.0,0.0,0.0,0.0,0.0,0.0,0.0,0.0,0.0,0.0,0.0,0.0,0.0,0.0,0.0,0.0,0.0,0.0,0.0,0.0,0.0,0.0,0.0,0.0,0.0,0.0,0.0,0.0,0.0,0.0,0.0,0.0,0.0,0.0,0.0,0.0,0.0,0.0,0.0,0.0,0.0,0.0,0.0,0.0,0.0,0.0,0.0,0.0,0.0,0.0,0.0,0.0,0.0,0.0,0.0,0.0,0.0,0.0,0.0,0.0,0.0,0.0,0.0,0.0,0.0,0.0,0.0,0.0,0.0,0.0,0.0,0.0,0.0,0.0,0.0,0.0,0.0,0.0,0.0,0.0,0.0,0.0,0.0,0.0,0.0,0.0,0.0,0.0,0.0,0.0,0.0,0.0,0.0,0.0,0.0,0.0,0.0,0.0,0.0,0.0,0.0,0.0,0.0,0.0,0.0,0.0,0.0,0.0,0.0,0.0,0.0,0.0,0.0,0.0,0.0,0.0,0.0,0.0,0.0,0.0,0.0,0.0,0.0,0.0,0.0,0.0,0.0,0.0,0.0,0.0,0.0,0.0,0.0,0.0,0.0,0.0,0.0,0.0,0.0,0.0,0.0,0.0,0.0,0.0,0.0,0.0,0.0,0.0,0.0,0.0,0.0,0.0,0.0,0.0,0.0,0.0,0.0,0.0,0.0,0.0,0.0,0.0,0.0,0.0,0.0,0.0,0.0,0.0,0.0,0.0,0.0,0.0,0.0,0.0,0.0,0.0,0.0,0.0,0.0,0.0,0.0,0.0,0.0,0.0,0.0,0.0,0.0,0.0,0.0,0.0,0.0,0.0,0.0,0.0,0.0,0.0,0.0,0.0,0.0,0.0,0.0,0.0,0.0,0.0,0.0,0.0,0.0,0.0,0.0,0.0,0.0,0.0,0.0,0.0,0.0,0.0,0.0,0.0,0.0,0.0,0.0,0.0,0.0,0.0,0.0,0.0,0.0,0.0,0.0,0.0,0.0,0.0,0.0,0.0,0.0,0.0,0.0,0.0,0.0,0.0,0.0,0.0,0.0,0.0,0.0,0.0,0.0,0.0,0.0,0.0,0.0,0.0,0.0,0.0,0.0,0.0,0.0,0.0,0.0,0.0,0.0,0.0,0.0,0.0,0.0,0.0,0.0,0.0,0.0,0.0,0.0,0.0,0.0,0.0,0.0,0.0,0.0,0.0,0.0,0.0,0.0,0.0,0.0,0.0,0.0,0.0,0.0,0.0,0.0,0.0,0.0,0.0,0.0,0.0,0.0,0.0,0.0,0.0,0.0,0.0,0.0,0.0,0.0,0.0,0.0,0.0,0.0,0.0,0.0,0.0,0.0,0.0,0.0,0.0,0.0,0.0,0.0,0.0,0.0,0.0,0.0,0.0,0.0,0.0,0.0,0.0,0.0,0.0,0.0,0.0,0.0,0.0,0.0,0.0,0.0,0.0,0.0,0.0,0.0,0.0,0.0,0.0,0.0,0.0,0.0,0.0,0.0,0.0,0.0,0.0,0.0,0.0,0.0,0.0,0.0,0.0,0.0,0.0,0.0,0.0,0.0,0.0,0.0,0.0,0.0,0.0,0.0,0.0,0.0,0.0,0.0,0.0,0.0,0.0,0.0,0.0,0.0,0.0,0.0,0.0,0.0,0.0,0.0,0.0,0.0,0.0,0.0,0.0,0.0,0.0,0.0,0.0,0.0,0.0,0.0,0.0,0.0,0.0,0.0,0.0,0.0,0.0,0.0,0.0,0.0,0.0,0.0,0.0,0.0,0.0,0.0,0.0,0.0,0.0,0.0,0.0,0.0,0.0,0.0,0.0,0.0,0.0,0.0,0.0,0.0,0.0,0.0,0.0,0.0,0.0,0.0,0.0,0.0,0.0,0.0,0.0,0.0,0.0,0.0,0.0,0.0,0.0,0.0,0.0,0.0,0.0,0.0,0.0,0.0,0.0,0.0,0.0,0.0,0.0,0.0,0.0,0.0,0.0,0.0,0.0,0.0,0.0,0.0,0.0,0.0,0.0,0.0,0.0,0.0,0.0,0.0,0.0,0.0,0.0,0.0,0.0,0.0,0.0,0.0,0.0,0.0,0.0,0.0,0.0,0.0,0.0,0.0,0.0,0.0,0.0,0.0,0.0,0.0,0.0,0.0,0.0,0.0,0.0,0.0,0.0,0.0,0.0,0.0,0.0,0.0,0.0,0.0,0.0,0.0,0.0,0.0,0.0,0.0,0.0,0.0,0.0,0.0,0.0,0.0,0.0,0.0,0.0,0.0,0.0,0.0,0.0,0.0,0.0,0.0,0.0,0.0,0.0,0.0,0.0,0.0,0.0,0.0,0.0,0.0,0.0,0.0,0.0,0.0,0.0,0.0,0.0,0.0,0.0,0.0,0.0,0.0,0.0,0.0,0.0,0.0,0.0,0.0,0.0,0.0,0.0,0.0,0.0,0.0,0.0,0.0,0.0,0.0,0.0,0.0,0.0,0.0,0.0,0.0,0.0,0.0,0.0,0.0,0.0,0.0,0.0,0.0,0.0,0.0,0.0,0.0,0.0,0.0,0.0,0.0,0.0,0.0,0.0,0.0,0.0,0.0,0.0,0.0,0.0,0.0,0.0,0.0,0.0,0.0,0.0,0.0,0.0,0.0,0.0,0.0,0.0,0.0,0.0,0.0,0.0,0.0,0.0,0.0,0.0,0.0,0.0,0.0,0.0,0.0,0.0,0.0,0.0,0.0,0.0,0.0,0.0,0.0,0.0,0.0,0.0,0.0,0.0,0.0,0.0,0.0,0.0,0.0,0.0,0.0,0.0,0.0,0.0,0.0,0.0,0.0,0.0,0.0,0.0,0.0,0.0,0.0,0.0,0.0,0.0,0.0,0.0,0.0,0.0,0.0,0.0,0.0,0.0,0.0,0.0,0.0,0.0,0.0,0.0,0.0,0.0,0.0,0.0,0.0,0.0,0.0,0.0,0.0,0.0,0.0,0.0,0.0,0.0,0.0,0.0,0.0,0.0,0.0,0.0,0.0,0.0,0.0,0.0,0.0,0.0,0.0,0.0,0.0,0.0,0.0,0.0,0.0,0.0,0.0,0.0,0.0,0.0,0.0,0.0,0.0,0.0,0.0,0.0,0.0,0.0,0.0,0.0,0.0,0.0,0.0,0.0,0.0,0.0,0.0,0.0,0.0,0.0,0.0,0.0,0.0,0.0,0.0,0.0,0.0,0.0,0.0,0.0,0.0,0.0,0.0,0.0,0.0,0.0,0.0,0.0,0.0,0.0,0.0,0.0,0.0,0.0,0.0,0.0,0.0,0.0,0.0,0.0,0.0,0.0,0.0,0.0,0.0,0.0,0.0,0.0,0.0,0.0,0.0,0.0,0.0,0.0,0.0,0.0,0.0,0.0,0.0,0.0,0.0,0.0,0.0,0.0,0.0,0.0,0.0,0.0,0.0,0.0,0.0,0.0,0.0,0.0,0.0,0.0,0.0,1.0609,0.0,0.0,0.0,0.0,0.0,0.0,0.0,0.0,0.0,0.0,0.0,0.0,0.0,0.0,0.0,0.0,0.0,0.0,0.0,0.0,0.0,0.0,0.0,0.0,0.0,0.0,0.0,0.0,0.0,0.0,0.0,0.0,0.0,0.0,0.0,0.0,0.0,0.0,0.0,0.0,0.0,0.0,0.0,0.0,0.0,0.0,0.0,0.0,0.0,0.0,0.0,0.0,0.0,0.0,0.0,0.0,0.0,0.0,0.0,0.0,0.0,0.0,0.0,0.0,0.0,0.0,0.0,0.0,0.0,0.0,0.0,0.0,0.0,0.0,0.0,0.0,0.0,0.0,0.0,0.0,0.0,0.0,0.0,0.0,0.0,0.0,0.0,0.0,0.0,0.0,0.0,0.0,0.0,0.0,0.0,0.0,0.0,0.0,0.0,0.0,0.0,0.0,0.0,0.0,0.0,0.0,0.0,0.0,0.0,0.0,1.3215,1.2411,1.2317,1.1769,1.071,0.0,0.0,0.0,0.0,0.0,0.0,0.0,0.0,0.0,0.0,0.0,0.0,0.0,0.0,0.0,0.0,0.0,0.0,0.0,0.0,0.0,0.0,0.0,0.0,0.0,0.0,0.0,0.0,0.0,0.0,0.0,0.0,0.0,0.0,0.0,0.0,0.0,0.0,0.0,0.0,0.0,0.0,0.0,0.0,0.0,0.0,0.0,0.0,0.0,0.0,0.0,0.0,0.0,0.0,0.0,0.0,0.0,0.0,0.0,0.0,0.0,0.0,0.0,0.0,0.0,0.0,0.0,0.0,0.0,0.0,0.0,0.0,0.0,0.0,0.0,0.0,0.0,0.0,0.0,0.0,0.0,0.0,0.0,0.0,0.0,0.0,0.0,0.0,0.0,0.0,0.0,0.0,0.0,0.0,0.0,0.0,0.0,0.0,0.0,0.0,0.0,0.0,0.0,0.0,0.0,0.0,0.0,0.0,0.0,0.0,0.0,0.0,1.2185,1.1707,1.0616,0.0,0.0,0.0,0.0,0.0,0.0,0.0,0.0,0.0,0.0,0.0,0.0,0.0,0.0,0.0,0.0,0.0,0.0,0.0,0.0,0.0,0.0,0.0,0.0,0.0,0.0,0.0,0.0,0.0,0.0,0.0,0.0,0.0,0.0,0.0,0.0,0.0,0.0,0.0,0.0,0.0,0.0,0.0,0.0,0.0,0.0,0.0,0.0,0.0,0.0,0.0,0.0,0.0,0.0,0.0,0.0,0.0,0.0,0.0,0.0,0.0,0.0,0.0,0.0,0.0,0.0,0.0,0.0,0.0,0.0,0.0,0.0,0.0,0.0,0.0,0.0,0.0,0.0,0.0,0.0,0.0,0.0,0.0,0.0,0.0,0.0,0.0,0.0,0.0,0.0,0.0,0.0,0.0,0.0,0.0,0.0,0.0,0.0,0.0,0.0,0.0,0.0,0.0,0.0,0.0,0.0,0.0,0.0,0.0,0.0,1.2057,1.1852,1.1955,0.0,0.9709,0.0,0.0,0.0,0.0,0.0,0.0,0.0,0.0,0.0,0.0,0.0,0.0,0.0,0.0,0.0,0.0,0.0,0.0,0.0,0.0,0.0,0.0,0.0,0.0,0.0,0.0,0.0,0.0,0.0,0.0,0.0,0.0,0.0,0.0,0.0,0.0,0.0,0.0,0.0,0.0,0.0,0.0,0.0,0.0,0.0,0.0,0.0,0.0,0.0,0.0,0.0,0.0,0.0,0.0,0.0,0.0,0.0,0.0,0.0,0.0,0.0,0.0,0.0,0.0,0.0,0.0,0.0,0.0,0.0,0.0,0.0,0.0,0.0,0.0,0.0,0.0,0.0,0.0,0.0,0.0,0.0,0.0,0.0,0.0,0.0,0.0,0.0,0.0,0.0,0.0,0.0,0.0,0.0,0.0,0.0,0.0,0.0,0.0,0.0,0.0,0.0,0.0,0.0,0.0,0.0,0.0,0.0,0.0,0.0,0.0,1.2122,1.1872,1.1303,1.0378,0.0,0.0,0.0,0.0,0.0,0.0,0.0,0.0,0.0,0.0,0.0,0.0,0.0,0.0,0.0,0.0,0.0,0.0,0.0,0.0,0.0,0.0,0.0,0.0,0.0,0.0,0.0,0.0,0.0,0.0,0.0,0.0,0.0,0.0,0.0,0.0,0.0,0.0,0.0,0.0,0.0,0.0,0.0,0.0,0.0,0.0,0.0,0.0,0.0,0.0,0.0,0.0,0.0,0.0,0.0,0.0,0.0,0.0,0.0,0.0,0.0,0.0,0.0,0.0,0.0,0.0,0.0,0.0,0.0,0.0,0.0,0.0,0.0,0.0,0.0,0.0,0.0,0.0,0.0,0.0,0.0,0.0,0.0,0.0,0.0,0.0,0.0,0.0,0.0,0.0,0.0,0.0,0.0,0.0,0.0,0.0,0.0,0.0,0.0,0.0,0.0,0.0,0.0,0.0,0.0,0.0,0.0,0.0,0.0,0.0,1.2087,0.0,1.1847,1.0874,0.9868,0.8837,0.0,0.0,0.0,0.0,0.0,0.0,0.0,0.0,0.0,0.0,0.0,0.0,0.0,0.0,0.0,0.0,0.0,0.0,0.0,0.0,0.0,0.0,0.0,0.0,0.0,0.0,0.0,0.0,0.0,0.0,0.0,0.0,0.0,0.0,0.0,0.0,0.0,0.0,0.0,0.0,0.0,0.0,0.0,0.0,0.0,0.0,0.0,0.0,0.0,0.0,0.0,0.0,0.0,0.0,0.0,0.0,0.0,0.0,0.0,0.0,0.0,0.0,0.0,0.0,0.0,0.0,0.0,0.0,0.0,0.0,0.0,0.0,0.0,0.0,0.0,0.0,0.0,0.0,0.0,0.0,0.0,0.0,0.0,0.0,0.0,0.0,0.0,0.0,0.0,0.0,0.0,0.0,0.0,0.0,0.0,0.0,0.0,0.0,0.0,0.0,0.0,0.0,0.0,0.0,0.0,0.0,0.0,0.0,0.0,1.1353,1.1143,1.1854,1.0915,0.9999,0.0,0.0,0.0,0.0,0.0,0.0,0.0,0.0,0.0,0.0,0.0,0.0,0.0,0.0,0.0,0.0,0.0,0.0,0.0,0.0,0.0,0.0,0.0,0.0,0.0,0.0,0.0,0.0,0.0,0.0,0.0,0.0,0.0,0.0,0.0,0.0,0.0,0.0,0.0,0.0,0.0,0.0,0.0,0.0,0.0,0.0,0.0,0.0,0.0,0.0,0.0,0.0,0.0,0.0,0.0,0.0,0.0,0.0,0.0,0.0,0.0,0.0,0.0,0.0,0.0,0.0,0.0,0.0,0.0,0.0,0.0,0.0,0.0,0.0,0.0,0.0,0.0,0.0,0.0,0.0,0.0,0.0,0.0,0.0,0.0,0.0,0.0,0.0,0.0,0.0,0.0,0.0,0.0,0.0,0.0,0.0,0.0,0.0,0.0,0.0,0.0,0.0,0.0,0.0,0.0,0.0,0.0,0.0,0.0,1.1793,1.1749,1.1916,1.2361,1.1055,1.0013,0.0,0.0,0.0,0.0,0.0,0.0,0.0,0.0,0.0,0.0,0.0,0.0,0.0,0.0,0.0,0.0,0.0,0.0,0.0,0.0,0.0,0.0,0.0,0.0,0.0,0.0,0.0,0.0,0.0,0.0,0.0,0.0,0.0,0.0,0.0,0.0,0.0,0.0,0.0,0.0,0.0,0.0,0.0,0.0,0.0,0.0,0.0,0.0,0.0,0.0,0.0,0.0,0.0,0.0,0.0,0.0,0.0,0.0,0.0,0.0,0.0,0.0,0.0,0.0,0.0,0.0,0.0,0.0,0.0,0.0,0.0,0.0,0.0,0.0,0.0,0.0,0.0,0.0,0.0,0.0,0.0,0.0,0.0,0.0,0.0,0.0,0.0,0.0,0.0,0.0,0.0,0.0,0.0,0.0,0.0,0.0,0.0,0.0,0.0,0.0,0.0,0.0,0.0,0.0,0.0,0.0,0.0,0.0,0.0,1.1348,0.0,1.2234,0.0,1.0938,0.9822,0.0,0.0,0.0,0.0,0.0,0.0,0.0,0.0,0.0,0.0,0.0,0.0,0.0,0.0,0.0,0.0,0.0,0.0,0.0,0.0,0.0,0.0,0.0,0.0,0.0,0.0,0.0,0.0,0.0,0.0,0.0,0.0,0.0,0.0,0.0,0.0,0.0,0.0,0.0,0.0,0.0,0.0,0.0,0.0,0.0,0.0,0.0,0.0,0.0,0.0,0.0,0.0,0.0,0.0,0.0,0.0,0.0,0.0,0.0,0.0,0.0,0.0,0.0,0.0,0.0,0.0,0.0,0.0,0.0,0.0,0.0,0.0,0.0,0.0,0.0,0.0,0.0,0.0,0.0,0.0,0.0,0.0,0.0,0.0,0.0,0.0,0.0,0.0,0.0,0.0,0.0,0.0,0.0,0.0,0.0,0.0,0.0,0.0,0.0,0.0,0.0,0.0,0.0,0.0,0.0,0.0,0.0,0.0,1.0103,1.1099,1.1673,1.1832,1.1525,1.0503,0.9433,0.0,0.0,0.0,0.0,0.0,0.0,0.0,0.0,0.0,0.0,0.0,0.0,0.0,0.0,0.0,0.0,0.0,0.0,0.0,0.0,0.0,0.0,0.0,0.0,0.0,0.0,0.0,0.0,0.0,0.0,0.0,0.0,0.0,0.0,0.0,0.0,0.0,0.0,0.0,0.0,0.0,0.0,0.0,0.0,0.0,0.0,0.0,0.0,0.0,0.0,0.0,0.0,0.0,0.0,0.0,0.0,0.0,0.0,0.0,0.0,0.0,0.0,0.0,0.0,0.0,0.0,0.0,0.0,0.0,0.0,0.0,0.0,0.0,0.0,0.0,0.0,0.0,0.0,0.0,0.0,0.0,0.0,0.0,0.0,0.0,0.0,0.0,0.0,0.0,0.0,0.0,0.0,0.0,0.0,0.0,0.0,0.0,0.0,0.0,0.0,0.0,0.0,0.0,0.0,0.0,0.0,0.0,0.0,0.0,1.1926,1.2276,1.2379,1.2271,1.0873,0.9868,0.0,0.0,0.0,0.0,0.0,0.0,0.0,0.0,0.0,0.0,0.0,0.0,0.0,0.0,0.0,0.0,0.0,0.0,0.0,0.0,0.0,0.0,0.0,0.0,0.0,0.0,0.0,0.0,0.0,0.0,0.0,0.0,0.0,0.0,0.0,0.0,0.0,0.0,0.0,0.0,0.0,0.0,0.0,0.0,0.0,0.0,0.0,0.0,0.0,0.0,0.0,0.0,0.0,0.0,0.0,0.0,0.0,0.0,0.0,0.0,0.0,0.0,0.0,0.0,0.0,0.0,0.0,0.0,0.0,0.0,0.0,0.0,0.0,0.0,0.0,0.0,0.0,0.0,0.0,0.0,0.0,0.0,0.0,0.0,0.0,0.0,0.0,0.0,0.0,0.0,0.0,0.0,0.0,0.0,0.0,0.0,0.0,0.0,0.0,0.0,0.0,0.0,0.0,0.0,0.0,0.0,0.0,0.0,0.0,1.2451,1.262,1.2608,1.2421,1.1068,1.0086,0.948,0.0,0.0,0.0,0.0,0.0,0.0,0.0,0.0,0.0,0.0,0.0,0.0,0.0,0.0,0.0,0.0,0.0,0.0,0.0,0.0,0.0,0.0,0.0,0.0,0.0,0.0,0.0,0.0,0.0,0.0,0.0,0.0,0.0,0.0,0.0,0.0,0.0,0.0,0.0,0.0,0.0,0.0,0.0,0.0,0.0,0.0,0.0,0.0,0.0,0.0,0.0,0.0,0.0,0.0,0.0,0.0,0.0,0.0,0.0,0.0,0.0,0.0,0.0,0.0,0.0,0.0,0.0,0.0,0.0,0.0,0.0,0.0,0.0,0.0,0.0,0.0,0.0,0.0,0.0,0.0,0.0,0.0,0.0,0.0,0.0,0.0,0.0,0.0,0.0,0.0,0.0,0.0,0.0,0.0,0.0,0.0,0.0,0.0,0.0,0.0,0.0,0.0,0.0,0.0,0.0,0.0,0.0,0.0,1.2699,1.2687,1.2463,1.1992,1.1091,1.0132,0.0,0.0,0.0,0.0,0.0,0.0,0.0,0.0,0.0,0.0,0.0,0.0,0.0,0.0,0.0,0.0,0.0,0.0,0.0,0.0,0.0,0.0,0.0,0.0,0.0,0.0,0.0,0.0,0.0,0.0,0.0,0.0,0.0,0.0,0.0,0.0,0.0,0.0,0.0,0.0,0.0,0.0,0.0,0.0,0.0,0.0,0.0,0.0,0.0,0.0,0.0,0.0,0.0,0.0,0.0,0.0,0.0,0.0,0.0,0.0,0.0,0.0,0.0,0.0,0.0,0.0,0.0,0.0,0.0,0.0,0.0,0.0,0.0,0.0,0.0,0.0,0.0,0.0,0.0,0.0,0.0,0.0,0.0,0.0,0.0,0.0,0.0,0.0,0.0,0.0,0.0,0.0,0.0,0.0,0.0,0.0,0.0,0.0,0.0,0.0,0.0,0.0,0.0,0.0,0.0,0.0,0.0,0.0,0.0,1.2687,1.2512,1.2439,1.2481,1.1476,1.054,0.0,0.0,0.0,0.0,0.0,0.0,0.0,0.0,0.0,0.0,0.0,0.0,0.0,0.0,0.0,0.0,0.0,0.0,0.0,0.0,0.0,0.0,0.0,0.0,0.0,0.0,0.0,0.0,0.0,0.0,0.0,0.0,0.0,0.0,0.0,0.0,0.0,0.0,0.0,0.0,0.0,0.0,0.0,0.0,0.0,0.0,0.0,0.0,0.0,0.0,0.0,0.0,0.0,0.0,0.0,0.0,0.0,0.0,0.0,0.0,0.0,0.0,0.0,0.0,0.0,0.0,0.0,0.0,0.0,0.0,0.0,0.0,0.0,0.0,0.0,0.0,0.0,0.0,0.0,0.0,0.0,0.0,0.0,0.0,0.0,0.0,0.0,0.0,0.0,0.0,0.0,0.0,0.0,0.0,0.0,0.0,0.0,0.0,0.0,0.0,0.0,0.0,0.0,0.0,0.0,0.0,0.0,0.0,1.2554,1.2699,1.2451,1.2385,1.253,1.156,1.0795,0.0,0.0,0.0,0.0,0.0,0.0,0.0,0.0,0.0,0.0,0.0,0.0,0.0,0.0,0.0,0.0,0.0,0.0,0.0,0.0,0.0,0.0,0.0,0.0,0.0,0.0,0.0,0.0,0.0,0.0,0.0,0.0,0.0,0.0,0.0,0.0,0.0,0.0,0.0,0.0,0.0,0.0,0.0,0.0,0.0,0.0,0.0,0.0,0.0,0.0,0.0,0.0,0.0,0.0,0.0,0.0,0.0,0.0,0.0,0.0,0.0,0.0,0.0,0.0,0.0,0.0,0.0,0.0,0.0,0.0,0.0,0.0,0.0,0.0,0.0,0.0,0.0,0.0,0.0,0.0,0.0,0.0,0.0,0.0,0.0,0.0,0.0,0.0,0.0,0.0,0.0,0.0,0.0,0.0,0.0,0.0,0.0,0.0,0.0,0.0,0.0,0.0,0.0,0.0,0.0,0.0,0.0,0.0,1.2674,1.262,1.2391,1.227,1.2258,1.157,1.0939,0.0,0.0,0.0,0.0,0.0,0.0,0.0,0.0,0.0,0.0,0.0,0.0,0.0,0.0,0.0,0.0,0.0,0.0,0.0,0.0,0.0,0.0,0.0,0.0,0.0,0.0,0.0,0.0,0.0,0.0,0.0,0.0,0.0,0.0,0.0,0.0,0.0,0.0,0.0,0.0,0.0,0.0,0.0,0.0,0.0,0.0,0.0,0.0,0.0,0.0,0.0,0.0,0.0,0.0,0.0,0.0,0.0,0.0,0.0,0.0,0.0,0.0,0.0,0.0,0.0,0.0,0.0,0.0,0.0,0.0,0.0,0.0,0.0,0.0,0.0,0.0,0.0,0.0,0.0,0.0,0.0,0.0,0.0,0.0,0.0,0.0,0.0,0.0,0.0,0.0,0.0,0.0,0.0,0.0,0.0,0.0,0.0,0.0,0.0,0.0,0.0,0.0,0.0,0.0,0.0,0.0,0.0,0.0,1.2506,1.2101,1.2035,1.2005,1.1964,1.1842,1.1343,0.0,0.0,0.0,0.0,0.0,0.0,0.0,0.0,0.0,0.0,0.0,0.0,0.0,0.0,0.0,0.0,0.0,0.0,0.0,0.0,0.0,0.0,0.0,0.0,0.0,0.0,0.0,0.0,0.0,0.0,0.0,0.0,0.0,0.0,0.0,0.0,0.0,0.0,0.0,0.0,0.0,0.0,0.0,0.0,0.0,0.0,0.0,0.0,1.4504,0.0,0.0,0.0,0.0,0.0,0.0,0.0,0.0,0.0,0.0,0.0,0.0,0.0,0.0,0.0,0.0,0.0,0.0,0.0,0.0,0.0,0.0,0.0,0.0,0.0,0.0,0.0,0.0,0.0,0.0,0.0,0.0,0.0,0.0,0.0,0.0,0.0,0.0,0.0,0.0,0.0,0.0,0.0,0.0,0.0,0.0,0.0,0.0,0.0,0.0,0.0,0.0,0.0,0.0,0.0,0.0,0.0,0.0,0.0,1.2324,1.1932,1.176,1.17,1.1706,1.1814,1.1451,0.0,0.0,0.0,0.0,0.0,0.0,0.0,0.0,0.0,0.0,0.0,0.0,0.0,0.0,0.0,0.0,0.0,0.0,0.0,0.0,0.0,0.0,0.0,0.0,0.0,0.0,0.0,0.0,0.0,0.0,0.0,0.0,0.0,0.0,0.0,0.0,0.0,0.0,0.0,0.0,0.0,0.0,0.0,0.0,0.0,0.0,0.0,0.0,0.0,0.0,0.0,0.0,0.0,0.0,0.0,0.0,0.0,0.0,0.0,0.0,0.0,0.0,0.0,0.0,0.0,0.0,0.0,0.0,0.0,0.0,0.0,0.0,0.0,0.0,0.0,0.0,0.0,0.0,0.0,0.0,0.0,0.0,0.0,0.0,0.0,0.0,0.0,0.0,0.0,0.0,0.0,0.0,0.0,0.0,0.0,0.0,0.0,0.0,0.0,0.0,0.0,0.0,0.0,0.0,0.0,0.0,0.0,1.197,1.2107,1.1805,1.1585,1.1471,1.1473,1.1724,1.1413,1.0379,0.0,0.0,0.0,0.0,0.0,0.0,0.0,0.0,0.0,0.0,0.0,0.0,0.0,0.0,0.0,0.0,0.0,0.0,0.0,0.0,0.0,0.0,0.0,0.0,0.0,0.0,0.0,0.0,0.0,0.0,0.0,0.0,0.0,0.0,0.0,0.0,0.0,0.0,1.4819,1.5745,0.0,0.0,0.0,0.0,0.0,0.0,0.0,0.0,1.5504,0.0,0.0,0.0,0.0,0.0,0.0,0.0,0.0,0.0,0.0,0.0,0.0,0.0,0.0,0.0,0.0,0.0,0.0,0.0,0.0,0.0,0.0,0.0,0.0,0.0,0.0,0.0,0.0,0.0,0.0,0.0,0.0,0.0,0.0,0.0,0.0,0.0,0.0,0.0,0.0,0.0,0.0,0.0,0.0,0.0,0.0,0.0,0.0,0.0,0.0,0.0,0.0,0.0,0.0,0.0,0.0,1.1495,1.183,1.1706,1.1262,1.1399,1.1381,1.1208,1.1661,1.1455,1.0534,0.0,0.0,0.0,0.0,0.0,0.0,0.0,0.0,0.0,0.0,0.0,0.0,0.0,0.0,0.0,0.0,0.0,0.0,0.0,0.0,0.0,0.0,0.0,0.0,0.0,0.0,0.0,0.0,0.0,0.0,0.0,0.0,0.0,0.0,0.0,0.0,0.0,0.0,0.0,1.6611,1.7223,0.0,0.0,0.0,0.0,0.0,0.0,0.0,0.0,1.6052,0.0,0.0,0.0,0.0,0.0,0.0,0.0,0.0,0.0,0.0,0.0,0.0,0.0,0.0,0.0,0.0,0.0,0.0,0.0,0.0,0.0,0.0,0.0,0.0,0.0,0.0,0.0,0.0,0.0,0.0,0.0,0.0,0.0,0.0,0.0,0.0,0.0,0.0,0.0,0.0,0.0,0.0,0.0,0.0,0.0,0.0,0.0,0.0,0.0,0.0,0.0,0.0,0.0,0.0,0.0,1.1309,1.1676,1.1661,1.1135,1.1206,1.125,1.1123,1.1471,1.1412,0.0,0.0,0.0,0.0,0.0,0.0,0.0,0.0,0.0,0.0,0.0,0.0,0.0,0.0,0.0,0.0,0.0,0.0,0.0,0.0,0.0,0.0,0.0,0.0,0.0,0.0,0.0,0.0,0.0,0.0,0.0,0.0,0.0,0.0,0.0,0.0,0.0,0.0,0.0,0.0,1.6937,1.744,1.7723,0.0,0.0,0.0,0.0,0.0,0.0,1.6094,1.6147,0.0,0.0,0.0,0.0,0.0,0.0,0.0,0.0,0.0,0.0,0.0,0.0,0.0,0.0,0.0,0.0,0.0,0.0,0.0,0.0,0.0,0.0,0.0,0.0,0.0,0.0,0.0,0.0,0.0,0.0,0.0,0.0,0.0,0.0,0.0,0.0,0.0,0.0,0.0,0.0,0.0,0.0,0.0,0.0,0.0,0.0,0.0,0.0,0.0,0.0,0.0,0.0,0.0,0.0,0.0,1.1328,1.186,1.1795,1.1135,1.1117,1.1117,1.1117,1.1345,1.1363,0.0,0.0,0.0,0.0,0.0,0.0,0.0,0.0,0.0,0.0,0.0,0.0,0.0,0.0,0.0,0.0,0.0,0.0,0.0,0.0,0.0,0.0,0.0,0.0,0.0,0.0,0.0,0.0,0.0,0.0,0.0,0.0,0.0,0.0,0.0,0.0,0.0,0.0,0.0,0.0,0.0,1.766,1.7894,1.7918,0.0,0.0,0.0,0.0,1.6127,1.6307,0.0,0.0,0.0,0.0,0.0,0.0,0.0,0.0,0.0,0.0,0.0,0.0,0.0,0.0,0.0,0.0,0.0,0.0,0.0,0.0,0.0,0.0,0.0,0.0,0.0,0.0,0.0,0.0,0.0,0.0,0.0,0.0,0.0,0.0,0.0,0.0,0.0,0.0,0.0,0.0,0.0,0.0,0.0,0.0,0.0,0.0,0.0,0.0,0.0,0.0,0.0,0.0,0.0,0.0,0.0,0.0,1.1955,1.2656,1.2436,1.1167,1.1117,1.1117,1.1117,1.1351,1.1357,0.0,0.0,0.0,0.0,0.0,0.0,0.0,0.0,0.0,0.0,0.0,0.0,0.0,0.0,0.0,0.0,0.0,0.0,0.0,0.0,0.0,0.0,0.0,0.0,0.0,0.0,0.0,0.0,0.0,0.0,0.0,0.0,0.0,0.0,0.0,0.0,0.0,0.0,0.0,0.0,0.0,1.8549,1.8279,1.8232,1.8134,0.0,0.0,1.7856,1.7146,1.7266,0.0,0.0,0.0,0.0,0.0,0.0,0.0,0.0,0.0,0.0,0.0,0.0,0.0,0.0,0.0,0.0,0.0,0.0,0.0,0.0,0.0,0.0,0.0,0.0,0.0,0.0,0.0,0.0,0.0,0.0,0.0,0.0,0.0,0.0,0.0,0.0,0.0,0.0,0.0,0.0,0.0,0.0,0.0,0.0,0.0,0.0,0.0,0.0,0.0,0.0,0.0,0.0,0.0,0.0,0.0,1.3427,1.2569,1.3241,1.2874,1.1316,1.126,1.1223,1.1117,1.1226,1.1166,0.0,0.0,0.0,0.0,0.0,0.0,0.0,0.0,0.0,0.0,0.0,0.0,0.0,0.0,0.0,0.0,0.0,0.0,0.0,0.0,0.0,0.0,0.0,0.0,0.0,0.0,0.0,0.0,0.0,0.0,0.0,0.0,0.0,0.0,0.0,0.0,0.0,0.0,0.0,0.0,0.0,0.0,1.9482,1.9215,0.0,0.0,0.0,1.8098,1.7465,0.0,0.0,0.0,0.0,0.0,0.0,0.0,0.0,0.0,0.0,0.0,0.0,0.0,0.0,0.0,0.0,0.0,0.0,0.0,0.0,0.0,0.0,0.0,0.0,0.0,0.0,0.0,0.0,0.0,0.0,0.0,0.0,0.0,0.0,0.0,0.0,0.0,0.0,0.0,0.0,0.0,0.0,0.0,0.0,0.0,0.0,0.0,0.0,0.0,0.0,0.0,0.0,0.0,0.0,0.0,0.0,0.0,1.3426,1.4117,1.367,1.2114,1.1885,1.1694,1.1552,1.1545,0.0,0.0,0.0,0.0,0.0,0.0,0.0,0.0,0.0,0.0,0.0,0.0,0.0,0.0,0.0,0.0,0.0,0.0,0.0,0.0,0.0,0.0,0.0,0.0,0.0,0.0,0.0,1.4762,0.0,0.0,0.0,0.0,0.0,0.0,0.0,0.0,0.0,0.0,0.0,0.0,0.0,0.0,2.0594,2.0518,2.035,1.9882,0.0,0.0,1.8559,1.7875,1.7561,1.7349,0.0,0.0,0.0,0.0,0.0,0.0,0.0,0.0,0.0,0.0,0.0,0.0,0.0,0.0,0.0,0.0,0.0,0.0,0.0,0.0,0.0,0.0,0.0,0.0,0.0,0.0,0.0,0.0,0.0,0.0,0.0,0.0,0.0,0.0,0.0,0.0,0.0,0.0,0.0,0.0,0.0,0.0,0.0,0.0,0.0,0.0,0.0,0.0,0.0,0.0,0.0,0.0,0.0,0.0,0.0,1.4804,1.5551,1.5259,1.3839,1.315,1.2792,1.2755,1.2792,1.2435,0.0,0.0,0.0,0.0,0.0,0.0,0.0,0.0,0.0,0.0,0.0,0.0,0.0,0.0,0.0,0.0,0.0,0.0,0.0,0.0,0.0,0.0,0.0,0.0,0.0,0.0,0.0,0.0,0.0,0.0,0.0,0.0,0.0,0.0,0.0,0.0,0.0,0.0,0.0,0.0,0.0,2.1019,2.1117,2.1385,2.1248,0.0,0.0,1.9761,1.8634,1.8449,1.8424,1.8511,0.0,0.0,0.0,0.0,0.0,0.0,0.0,0.0,0.0,0.0,0.0,0.0,0.0,0.0,0.0,0.0,0.0,0.0,0.0,0.0,0.0,0.0,0.0,0.0,0.0,0.0,0.0,0.0,0.0,0.0,0.0,0.0,0.0,0.0,0.0,0.0,0.0,0.0,0.0,0.0,0.0,0.0,0.0,0.0,0.0,0.0,0.0,0.0,0.0,0.0,0.0,0.0,0.0,1.5817,1.548,1.6005,1.5599,1.4243,1.3903,1.3694,1.3578,1.3571,1.3263,0.0,0.0,0.0,0.0,0.0,0.0,0.0,0.0,0.0,0.0,0.0,0.0,0.0,0.0,0.0,0.0,0.0,0.0,0.0,0.0,0.0,0.0,0.0,0.0,0.0,0.0,0.0,0.0,1.7105,1.7301,1.7802,0.0,0.0,0.0,0.0,0.0,0.0,0.0,0.0,0.0,0.0,2.235,2.2385,2.2465,0.0,0.0,2.115,2.1024,2.0538,2.015,1.9891,1.9815,1.9487,0.0,0.0,0.0,0.0,0.0,0.0,0.0,0.0,0.0,0.0,0.0,0.0,0.0,0.0,0.0,0.0,0.0,0.0,0.0,0.0,0.0,0.0,0.0,0.0,0.0,0.0,0.0,0.0,0.0,0.0,0.0,0.0,0.0,0.0,0.0,0.0,0.0,0.0,0.0,0.0,0.0,0.0,0.0,0.0,0.0,0.0,0.0,0.0,0.0,0.0,0.0,0.0,1.6233,1.6123,1.6412,1.6082,1.51,1.4851,1.4673,1.455,1.4557,1.421,0.0,0.0,0.0,0.0,0.0,0.0,0.0,0.0,0.0,0.0,0.0,0.0,0.0,0.0,0.0,0.0,0.0,0.0,0.0,0.0,0.0,0.0,0.0,0.0,0.0,0.0,0.0,0.0,1.8004,1.8291,1.8569,0.0,0.0,0.0,0.0,0.0,0.0,0.0,0.0,0.0,0.0,2.3453,2.3527,2.3497,2.3193,2.2262,2.2138,2.2041,2.1739,2.135,2.1124,2.1186,0.0,0.0,0.0,0.0,0.0,0.0,0.0,0.0,0.0,0.0,0.0,0.0,0.0,0.0,0.0,0.0,0.0,0.0,0.0,0.0,0.0,0.0,0.0,0.0,0.0,0.0,0.0,1.5242,0.0,0.0,1.6367,0.0,0.0,0.0,0.0,0.0,0.0,0.0,0.0,0.0,0.0,0.0,0.0,0.0,0.0,0.0,0.0,0.0,0.0,0.0,0.0,0.0,0.0,1.648,1.6874,1.6857,1.6848,1.6804,1.6158,1.5762,1.5762,1.5754,1.5408,1.4661,0.0,0.0,0.0,0.0,0.0,0.0,0.0,0.0,0.0,0.0,0.0,0.0,0.0,0.0,0.0,0.0,0.0,0.0,0.0,0.0,0.0,0.0,0.0,0.0,0.0,0.0,1.819,1.8501,1.8837,0.0,0.0,0.0,0.0,0.0,0.0,0.0,0.0,0.0,0.0,2.3742,2.4022,2.4435,2.4454,2.409,2.3183,2.3052,2.2736,2.1917,2.173,2.1898,0.0,0.0,0.0,0.0,0.0,0.0,0.0,0.0,0.0,0.0,0.0,0.0,0.0,0.0,0.0,0.0,0.0,0.0,0.0,0.0,0.0,0.0,0.0,0.0,0.0,0.0,0.0,1.7897,1.7941,0.0,0.0,0.0,0.0,0.0,0.0,0.0,0.0,0.0,0.0,0.0,1.8747,1.9411,0.0,0.0,0.0,0.0,0.0,0.0,0.0,0.0,0.0,0.0,0.0,0.0,1.648,1.689,1.6908,1.6908,1.6908,1.6656,1.6517,1.6517,1.6551,1.6066,1.5063,0.0,0.0,0.0,0.0,0.0,0.0,0.0,0.0,0.0,0.0,0.0,0.0,0.0,0.0,0.0,0.0,0.0,0.0,0.0,0.0,0.0,0.0,0.0,0.0,0.0,1.9265,0.0,0.0,0.0,0.0,0.0,0.0,0.0,0.0,0.0,0.0,0.0,2.5297,2.5813,2.5333,2.5101,2.5535,2.4946,2.4358,0.0,0.0,0.0,0.0,0.0,0.0,0.0,0.0,0.0,0.0,0.0,0.0,0.0,0.0,2.337,2.2504,2.207,2.1879,2.198,0.0,0.0,0.0,0.0,0.0,0.0,0.0,0.0,0.0,0.0,0.0,0.0,0.0,0.0,1.9602,0.0,1.957,0.0,0.0,0.0,0.0,0.0,0.0,0.0,0.0,1.9725,1.9773,1.9372,2.0072,2.013,0.0,1.9745,1.9268,0.0,0.0,0.0,0.0,0.0,0.0,0.0,0.0,1.6642,1.6899,1.6908,1.6908,1.6908,1.6908,1.6908,1.6908,1.6908,1.6485,1.5608,1.5233,1.4777,0.0,0.0,0.0,0.0,0.0,0.0,0.0,0.0,0.0,0.0,0.0,0.0,0.0,0.0,0.0,0.0,0.0,0.0,0.0,0.0,0.0,0.0,0.0,2.0042,0.0,0.0,0.0,0.0,0.0,0.0,0.0,0.0,0.0,2.5569,2.6172,2.6765,2.7174,2.6678,2.6368,2.6562,0.0,0.0,0.0,0.0,0.0,0.0,0.0,2.4454,2.4335,2.4292,2.4196,2.397,2.4153,2.4292,2.4206,0.0,0.0,2.3389,2.3092,2.2949,2.3142,2.2713,2.2108,2.1491,2.1125,2.0664,0.0,0.0,0.0,0.0,0.0,0.0,0.0,0.0,2.1163,2.0868,0.0,2.0176,0.0,0.0,0.0,0.0,0.0,1.9746,0.0,0.0,2.0391,2.0625,2.0615,2.0674,2.084,2.1151,2.083,2.0557,2.0284,1.9316,0.0,0.0,0.0,0.0,0.0,0.0,1.6945,1.6963,1.6972,1.6954,1.6954,1.6936,1.6927,1.6908,1.6908,1.6681,1.6306,1.6017,1.5483,1.4702,1.4376,0.0,0.0,0.0,0.0,0.0,0.0,0.0,0.0,0.0,0.0,0.0,0.0,0.0,0.0,0.0,0.0,0.0,0.0,0.0,0.0,2.0161,0.0,0.0,0.0,0.0,0.0,0.0,0.0,0.0,0.0,0.0,2.625,2.6769,2.7311,2.7529,0.0,0.0,0.0,0.0,2.7395,2.7098,2.64,2.5861,2.5819,2.5147,2.4625,2.4615,0.0,0.0,2.4368,2.4454,2.4583,2.4315,2.454,2.4583,2.4605,2.402,2.3686,2.4063,2.3304,2.2501,2.2247,2.1788,2.1253,2.3441,0.0,0.0,0.0,0.0,2.2361,2.2482,2.2722,2.2436,2.2207,2.199,2.1538,0.0,0.0,0.0,0.0,0.0,0.0,2.0547,2.082,2.0947,2.1035,2.1064,2.167,2.1709,2.121,2.1719,2.1765,2.1432,2.1139,1.9918,1.7908,0.0,0.0,0.0,0.0,1.787,1.7779,1.7779,1.7779,1.7743,1.7486,1.7193,1.6917,1.6908,1.6691,1.6331,1.657,1.6505,1.599,1.5904,0.0,0.0,0.0,0.0,0.0,0.0,0.0,0.0,0.0,0.0,0.0,0.0,0.0,0.0,0.0,0.0,0.0,0.0,0.0,2.1379,2.1869,2.2563,0.0,0.0,0.0,0.0,0.0,0.0,0.0,0.0,0.0,2.8965,2.9439,2.9897,0.0,0.0,2.8927,2.8848,2.8215,2.7654,2.7435,2.718,0.0,2.673,2.6535,2.6381,2.6329,2.637,2.6329,2.6287,2.6329,2.6329,2.6246,2.6329,2.6329,2.6246,2.5178,2.4342,2.4339,2.3759,2.3113,2.2757,2.206,2.1372,2.4451,2.3494,2.3124,2.3071,2.3213,2.3041,2.3213,2.3576,2.3277,2.3104,2.3056,2.2635,2.2035,2.1372,2.0703,0.0,0.0,0.0,2.1769,2.199,2.199,2.2191,2.2501,2.2695,2.2806,2.2797,2.3125,2.3258,2.3217,2.3033,2.2082,2.0443,0.0,0.0,1.8682,1.9183,1.942,1.9311,1.9139,1.8929,1.8673,1.8122,1.7793,1.7802,1.763,1.7421,1.7183,1.7498,1.7491,1.7091,1.7118,1.7022,0.0,0.0,0.0,0.0,0.0,0.0,0.0,0.0,0.0,0.0,0.0,1.9386,1.9649,0.0,0.0,0.0,2.1045,2.1765,2.2932,2.3445,0.0,0.0,0.0,0.0,0.0,0.0,0.0,3.0061,3.0296,3.0477,3.0477,3.0777,3.1024,3.1024,3.0419,3.0024,2.9909,0.0,2.8861,2.8676,2.8279,2.7971,2.7799,2.7395,2.7098,2.7098,2.7098,2.7098,2.7098,2.7098,2.7098,2.7098,2.7098,2.7098,2.7098,2.6061,2.5205,2.5173,2.434,2.3498,2.3125,2.2216,2.136,2.5432,2.4669,2.4074,2.3978,2.4198,2.3757,2.3808,2.4166,2.3757,2.3681,2.38,2.3418,2.288,2.2276,2.1717,0.0,2.2359,2.3031,2.3355,2.3396,2.3356,2.3788,2.4493,2.3761,2.4053,2.515,2.4785,2.4818,2.5182,2.4807,2.4414,2.3996,2.259,2.1295,2.0247,2.0864,2.1207,2.1182,2.0828,2.0355,1.9785,1.8968,1.8813,1.9267,1.8873,1.863,1.8566,1.8633,1.8451,1.8066,1.8102,1.7904,1.7531,0.0,0.0,0.0,0.0,0.0,0.0,0.0,0.0,0.0,0.0,0.0,0.0,0.0,0.0,0.0,2.2784,0.0,2.4742,2.4944,0.0,0.0,0.0,2.7876,2.8547,2.9536,3.0166,3.0166,0.0,0.0,3.1099,3.1061,3.1024,3.1086,3.1061,3.0911,3.0736,3.0698,3.0647,3.033,2.9586,2.8961,2.891,2.8131,2.7516,2.7476,2.7313,2.7435,2.7435,2.7435,2.7354,2.7435,2.7313,2.7319,2.7256,2.6828,2.6442,2.6385,2.4965,2.3738,2.3476,2.259,2.1714,2.6648,2.6442,2.633,2.5534,2.4401,2.4298,2.4308,2.4401,2.4137,2.4147,2.4315,2.3859,2.3406,2.2984,2.3495,2.3634,2.3535,2.4201,2.4653,2.4953,2.4784,2.4835,2.5048,2.5111,2.5196,2.5182,2.5412,2.5546,2.5644,2.5546,2.5281,2.4912,2.5109,2.4172,2.2199,2.223,2.2172,2.2035,2.1924,2.1671,2.1239,2.1005,2.0628,2.006,1.9923,1.9668,1.9288,1.9672,1.9705,1.937,1.9635,1.9627,1.9315,1.8607,0.0,0.0,0.0,0.0,0.0,0.0,0.0,0.0,0.0,2.0941,2.1502,0.0,2.223,0.0,2.5025,2.579,2.6052,2.6947,0.0,0.0,2.9362,2.9694,3.032,3.0607,3.0777,3.079,3.0908,3.1235,3.1773,3.1371,3.1185,3.175,3.1357,3.0986,3.0949,3.0898,3.0874,3.0647,3.0419,3.0177,3.0011,2.969,2.9314,2.917,2.9131,2.917,2.9131,2.9182,2.917,2.9182,2.917,2.901,2.85,2.8011,2.752,2.7054,2.571,2.4503,2.4454,2.3798,2.3206,2.7476,2.7098,2.7098,2.6535,2.5642,2.5232,2.5094,2.5062,2.4978,2.4978,2.5105,2.5137,2.5072,2.4952,2.5261,2.5314,2.5235,2.5905,2.6291,2.6502,2.6323,2.6404,2.6789,2.6535,2.6524,2.6691,2.6914,2.6999,2.6999,2.6999,2.6891,2.6668,2.6899,2.6314,2.5013,2.4422,2.411,2.3988,2.3294,2.2904,2.2808,2.2324,2.1819,2.1394,2.1384,2.1008,2.0269,2.0738,2.0728,2.0183,2.0398,2.0429,2.0272,1.9767,1.9565,0.0,0.0,0.0,0.0,0.0,0.0,0.0,0.0,0.0,0.0,0.0,2.3655,2.5342,2.6624,2.7549,2.8062,2.8763,2.9523,3.0411,3.0516,3.0634,3.0947,3.1024,3.1024,3.1024,3.1296,3.164,3.2051,3.2064,3.2137,3.2541,3.2232,3.1763,3.1161,3.1259,3.1334,3.0898,3.1048,3.0998,3.0508,3.0292,3.0177,2.996,3.0011,3.0011,2.9818,2.9869,2.9895,2.983,2.9779,2.9603,2.8988,2.8436,2.7934,2.7312,2.6369,2.5517,2.5094,2.4424,2.3927,2.8199,2.7516,2.7435,2.7447,2.7354,2.6524,2.608,2.5986,2.5944,2.5944,2.5997,2.6565,2.6935,2.7069,2.6853,2.6853,2.7058,2.7718,2.7999,2.7999,2.7799,2.8091,2.8803,2.7862,2.7834,2.855,2.855,2.855,2.855,2.851,2.851,2.8498,2.8053,2.7774,2.7738,2.6815,2.6226,2.6093,2.4712,2.4095,2.4322,2.336,2.2897,2.2936,2.2913,2.2438,2.149,2.1883,2.1755,2.0899,2.0965,2.102,2.1041,2.0973,2.1099,0.0,2.1972,0.0,0.0,0.0,0.0,0.0,0.0,0.0,0.0,2.5078,2.5482,2.6793,2.801,2.9104,3.0032,3.0202,3.0438,3.0959,3.1024,3.1024,3.1024,3.1086,3.1161,3.1123,3.1773,3.2254,3.247,3.2897,3.3178,3.3283,3.3178,3.2676,3.1653,3.1859,3.2015,3.1371,3.1566,3.1516,3.0835,3.0508,3.0368,3.0228,3.0254,3.0305,2.9972,3.0011,3.0075,2.9895,2.9856,2.9604,2.895,2.8374,2.7908,2.7256,2.6756,2.6226,2.563,2.5016,2.4373,2.9703,2.9509,2.9365,2.93,2.9209,2.8343,2.7557,2.6853,2.6864,2.6853,2.6853,2.6987,2.7069,2.7151,2.7799,2.8131,2.8211,2.8819,2.9094,2.9094,2.891,2.8882,2.9,2.8843,2.8816,2.8973,2.8816,2.8724,2.8712,2.8578,2.851,2.851,2.8402,2.8366,2.833,0.0,0.0,0.0,2.5385,2.5016,2.5099,2.4886,2.4577,2.4181,2.4169,0.0,2.2747,2.3165,2.3048,2.2238,2.2808,0.0,0.0,0.0,0.0,0.0,0.0,0.0,0.0,0.0,0.0,0.0,2.6502,2.6692,2.6763,2.8226,2.9161,2.9057,2.9899,3.0459,3.0369,3.0666,3.093,3.1222,3.1099,3.1024,3.1024,3.1529,3.1882,3.1905,3.2541,3.3213,3.3719,3.3526,3.3457,3.3973,3.3561,3.3108,3.284,3.2897,3.2932,3.2769,3.2398,3.1942,3.1576,3.106,3.071,3.0406,3.0368,3.0406,3.0368,3.0368,3.0292,3.0152,3.0049,2.9656,2.8547,2.816,2.7783,2.6839,2.6562,2.6452,2.6314,2.6164,2.6013,3.019,3.0113,3.0126,2.9972,0.0,2.9443,2.8949,2.8383,2.7959,2.8011,2.8422,2.8435,2.8435,2.8474,2.8922,2.9118,2.917,2.9443,2.9599,2.956,2.9353,2.9236,2.9236,2.917,2.9104,2.9104,2.9013,2.8973,2.8922,2.8724,2.8657,2.8657,2.855,2.851,2.8498,2.7993,2.7188,2.6105,2.5829,2.5576,2.5324,2.5312,2.5047,2.4554,2.4736,0.0,0.0,0.0,0.0,0.0,0.0,0.0,0.0,0.0,0.0,2.4707,2.5081,2.5407,2.5666,2.6484,2.7133,2.7508,2.8402,2.8691,2.8198,2.9711,3.0547,3.0197,3.0857,3.1217,3.1026,3.1164,3.1323,3.1434,3.168,3.185,3.1909,3.2448,3.2869,3.2953,3.3478,3.4041,3.4394,3.4442,3.4471,3.4806,3.4606,3.4322,3.4288,3.3988,3.3768,3.3734,3.3108,3.2613,3.247,3.2245,3.1846,3.1709,3.1723,3.1686,3.1526,3.1549,3.1599,3.1328,3.0786,2.9934,2.9001,2.8231,2.7444,2.6738,2.6487,2.6487,2.6487,2.6487,2.6487,3.0343,3.019,3.0317,3.0228,2.9895,3.0088,3.0037,2.9792,0.0,0.0,0.0,2.9779,2.9779,2.9779,2.9779,2.9779,2.9779,2.9779,2.9779,2.9779,2.956,2.9457,2.947,2.9287,2.9209,2.9209,2.917,2.9157,2.917,2.8961,2.8843,2.8831,2.8657,2.8462,2.8354,2.7906,2.7188,2.6154,2.6093,2.5853,2.5336,2.5312,2.5095,2.4628,2.5083,2.4867,2.3986,2.4398,2.4308,2.3637,2.4165,2.4487,2.4558,2.5434,2.6106,2.6492,2.731,2.7809,2.7954,2.836,2.8627,2.8768,2.9876,3.0282,2.9632,3.0546,3.1079,3.0922,3.1316,3.1669,3.1803,3.1803,3.1877,3.2009,3.2525,3.2868,3.2938,3.3492,3.3925,3.3945,3.4447,3.4843,3.4894,3.5249,3.5587,3.5522,3.5442,3.5522,3.5424,3.4872,3.4528,3.4476,3.3871,3.3388,3.3353,3.3178,3.3143,3.2869,3.2989,3.3031,3.2708,3.2681,3.266,3.2073,3.1243,3.0321,2.9621,2.8638,2.757,2.6952,2.685,2.6799,2.6722,2.6608,2.6481,3.066,3.0584,3.0457,3.0355,3.0343,3.0368,3.0267,3.0049,2.974,2.9714,2.9779,2.9779,2.9779,2.9779,2.9779,2.9779,2.9779,2.9779,2.9779,2.9779,2.9753,2.974,2.974,2.9714,2.9702,2.9675,2.9482,2.9341,2.9341,2.9157,2.9052,2.9052,2.8855,2.8427,2.7861,2.7765,2.7176,2.6129,2.6093,2.5841,2.5324,2.5312,2.5276,2.5204,2.5264,2.5035,2.4458,2.4915,2.516,2.5102,2.5611,2.6102,2.6527,2.6697,2.7018,2.7543,2.7709,2.7987,2.8457,2.8554,2.8817,2.9393,3.0473,3.1124,3.1048,3.1487,3.1769,3.1719,3.1703,3.1913,3.2569,3.2618,3.2818,3.3478,3.3581,3.3581,3.3602,3.4279,3.4762,3.4776,3.5382,3.5767,3.5735,3.5846,3.5846,3.5735,3.5671,3.5653,3.5522,3.5392,3.5326,3.5246,3.4658,3.4211,3.4109,3.3596,3.3353,3.3178,3.322,3.3113,3.2497,3.2461,3.2224,3.1354,3.108,3.0547,2.9812,2.9442,2.8838,2.8237,2.8084,2.7964,2.7525,2.7057,2.6505,3.0811,3.0698,3.0723,3.0596,3.0406,3.0406,3.0368,3.0254,3.0049,2.9908,2.9792,2.9779,2.9779,2.9779,2.9779,2.9779,2.9779,2.9779,2.9779,2.9779,2.9779,2.9779,2.9779,2.9779,2.9779,2.9779,2.9689,2.9599,2.9611,2.9365,2.9275,2.9236,2.9079,2.8614,2.7883,2.7859,2.7434,2.6574,2.655,2.6117,2.5336,2.5312,2.5312,2.5312,2.5629,2.5693,2.5448,2.5946,2.6246,2.6253,2.6798,2.704,2.7007,2.7543,2.7855,2.7822,2.8085,2.836,2.8554,2.8899,2.9502,3.0426,3.0975,3.1599,3.2297,3.2186,3.2241,3.2561,3.2525,3.2783,3.3561,3.3596,3.3734,3.4129,3.4399,3.4599,3.4699,3.5287,3.5752,3.5799,3.5958,3.6116,3.6116,3.6037,3.5973,3.5863,3.5863,3.5814,3.5636,3.5589,3.5572,3.5489,3.5166,3.4971,3.4938,3.4706,3.4326,3.4006,3.39,3.3623,3.3053,3.2908,3.2713,3.2327,3.169,3.098,3.0467,2.9757,2.9192,2.8848,2.8648,2.8466,2.8094,2.7386,2.6398,3.0911,3.0773,3.0911,3.0823,3.052,3.0495,3.0495,3.0444,3.0267,3.0049,2.9869,2.983,2.9779,2.9779,2.9779,2.9779,2.9779,2.9779,2.9779,2.9779,2.9779,2.9779,2.9779,2.9779,2.9779,2.9779,2.9779,2.9779,2.9779,2.956,2.947,2.9367,2.9164,2.8699,2.809,2.7956,2.7586,2.706,2.7136,2.6675,2.5694,2.5549,2.5546,2.5687,2.6151,2.6358,2.6393,2.6769,2.7074,2.7175,2.7577,2.7676,2.741,2.8151,2.8425,2.8066,2.8346,2.8655,2.8804,2.936,3.0147,3.1205,3.1422,3.1973,3.2982,3.2739,3.2704,3.3332,3.3422,3.3768,3.438,3.4547,3.4614,3.478,3.5287,3.5608,3.5689,3.6179,3.6492,3.6492,3.6352,3.6274,3.6258,3.6195,3.61,3.6068,3.6037,3.5926,3.5784,3.5752,3.5718,3.5619,3.5537,3.5457,3.5489,3.5277,3.4976,3.4548,3.4306,3.3853,3.3347,3.3214,3.3125,3.2794,3.2045,3.1342,3.1132,3.0385,2.9682,2.9484,2.9435,2.9136,2.8353,2.7283,2.6226,3.0986,3.0986,3.0986,3.0986,3.0898,3.0723,3.066,3.066,3.0457,3.0254,3.0088,2.9908,2.9792,2.9779,2.9779,2.9779,2.9779,2.9779,2.9779,2.9779,2.9779,2.9779,2.9779,2.9779,2.9779,2.9779,2.9779,2.9779,2.9779,2.9753,2.965,2.9356,2.8946,2.8609,2.8282,2.7802,2.752,2.7484,2.7803,2.7577,2.6777,2.633,2.6371,2.6837,2.6892,2.6939,2.6926,2.6973,2.7242,2.7676,2.7789,2.7987,2.8392,2.8554,2.8554,2.8522,2.86,2.8817,2.9393,2.9984,3.0622,3.1246,3.1825,3.2407,3.3143,3.3192,3.3422,3.4075,3.4197,3.4499,3.519,3.5287,3.5544,3.6053,3.6258,3.6383,3.6367,3.646,3.6492,3.6492,3.646,3.646,3.646,3.6429,3.6352,3.6211,3.6132,3.6037,3.5958,3.5973,3.5894,3.5703,3.5604,3.5537,3.5444,3.4951,3.4622,3.4459,3.3964,3.3365,3.2841,3.2572,3.2452,3.2123,3.1721,3.1441,3.1353,3.1117,3.0955,3.0613,3.0391,3.0025,2.8348,2.7087,2.6063,3.1024,3.1024,3.1024,3.1024,3.0986,3.0911,3.0874,3.0887,3.0685,3.0546,3.0432,3.0228,3.0011,2.9779,2.9779,2.9779,2.9779,2.9779,2.9779,2.9779,2.9779,2.9779,2.9779,2.9779,2.9779,2.9779,2.9779,2.9779,2.9779,2.9779,2.9753,2.9638,2.9425,2.9099,2.8548,2.7965,2.8002,2.8634,2.8231,2.8293,2.8808,2.7833,2.7134,2.7045,2.7297,2.7477,2.751,2.7789,2.8052,2.8249,2.8249,2.8379,2.8587,2.8587,2.8587,2.8614,2.8926,2.9387,2.9984,3.0595,3.1178,3.1775,3.2423,3.3101,3.3802,3.4245,3.4828,3.54,3.5175,3.5255,3.5911,3.6038,3.6195,3.646,3.6492,3.6492,3.6492,3.6492,3.6492,3.6492,3.6492,3.6492,3.6492,3.6492,3.646,3.6383,3.6336,3.6258,3.6148,3.6116,3.6068,3.591,3.5814,3.5701,3.5494,3.4921,3.4382,3.3903,3.335,3.2662,3.2123,3.1914,3.1795,3.1525,3.1511,3.1467,3.1439,3.1409,3.138,3.1234,3.1043,3.0441,2.877,2.8036,2.7309,3.1024,3.1024,3.1024,3.1024,3.1024,3.1024,3.1024,3.0986,3.0849,3.0736,3.0698,3.0533,3.0305,3.0011,2.9908,2.9869,2.9856,2.983,2.9779,2.9779,2.9779,2.9779,2.9779,2.9779,2.9779,2.9779,2.9779,2.9779,2.9779,2.9779,2.9779,2.983,3.0011,2.9821,2.9315,2.8894,2.9158,2.9793,2.9276,2.9547,3.0283,2.9447,2.8447,2.7689,2.7842,2.802,2.8052,2.8379,2.8587,2.8587,2.8587,2.8587,2.8587,2.8587,2.8587,2.8641,2.9176,2.9754,3.0364,3.1157,3.185,3.2456,3.3122,3.3822,3.4514,3.5091,3.5705,3.632,3.6022,3.5943,3.6383,3.6492,3.6492,3.6492,3.6492,3.6492,3.6492,3.6492,3.6492,3.6492,3.6492,3.6399,3.6245,3.6184,3.6153,3.6168,3.6353,3.646,3.6352,3.6274,3.6211,3.607,3.5916,3.5622,3.5321,3.4701,3.4055,3.3335,3.2691,3.2064,3.1585,3.154,3.1525,3.1511,3.1496,3.1496,3.1467,3.1467,3.1438,3.1277,3.1042,3.0512,2.9151,2.8829,2.8117,3.1024,3.1024,3.1024,3.1024,3.1024,3.1024,3.1024,3.1024,3.0986,3.0874,3.0736,3.0685,3.0571,3.0368,3.019,3.0088,3.0037,2.9895,2.9779,2.9792,2.9779,2.9779,2.9779,2.9779,2.9779,2.9779,2.9779,2.9779,2.9779,2.9779,2.9779,2.9818,3.0444,3.0807,3.0701,3.081,3.1059,3.1077,3.1342,3.1419,3.0963,3.1102,3.0465,2.9192,2.8729,2.8587,2.8587,2.8587,2.8619,2.8619,2.8651,2.8619,2.8619,2.8619,2.8665,2.8714,2.9203,2.9814,3.0494,3.1633,3.2568,3.315,3.3837,3.4547,3.5157,3.54,3.5816,3.6429,3.6414,3.6429,3.6492,3.6492,3.6492,3.6492,3.6492,3.6492,3.6492,3.6492,3.6492,3.6476,3.643,3.6138,3.5599,3.5552,3.5599,3.5737,3.6107,3.6492,3.643,3.6445,3.6306,3.6075,3.566,3.5125,3.4771,3.4226,3.3517,3.2901,3.2302,3.1615,3.154,3.1496,3.1496,3.1496,3.1496,3.1496,3.1496,3.1467,3.1438,3.1231,3.0772,3.0064,2.9315,2.8544,2.7861,3.1024,3.1024,3.1024,3.1024,3.1024,3.1024,3.1024,3.1024,3.1024,3.0949,3.0874,3.0874,3.0836,3.0798,3.0584,3.0343,3.0126,3.0011,2.9934,2.9779,2.9779,2.9779,2.9779,2.9779,2.9779,2.9779,2.9779,2.9779,2.9779,2.9779,2.9779,2.9921,3.0507,3.0895,3.0939,3.1169,3.165,3.2353,3.2318,3.2303,3.2468,3.2468,3.1943,3.0958,2.9851,2.9226,2.9257,2.9226,2.9226,2.9257,2.9257,2.9257,2.9257,2.9257,2.9324,2.9549,3.0047,3.0758,3.1556,3.2395,3.3196,3.3862,3.4581,3.5091,3.54,3.58,3.6226,3.6429,3.6492,3.6492,3.6492,3.6492,3.6492,3.6492,3.6492,3.6492,3.6492,3.6492,3.6492,3.643,3.6138,3.5568,3.5199,3.5214,3.5476,3.5553,3.6076,3.643,3.6415,3.6153,3.5891,3.5769,3.5523,3.5002,3.3815,3.353,3.3093,3.2659,3.2165,3.1762,3.1568,3.1553,3.1553,3.1539,3.1539,3.1511,3.1539,3.1496,3.1438,3.1333,3.0844,3.016,2.9438,2.8707,2.8004,3.1024,3.1024,3.1024,3.1024,3.1024,3.1024,3.1024,3.1024,3.1024,3.1024,3.1024,3.1024,3.1024,3.0986,3.0887,3.0622,3.0318,3.0152,3.0011,2.9908,2.983,2.9779,2.9779,2.9779,2.9779,2.9856,3.0062,3.0177,3.0126,3.0139,3.0279,3.0583,3.1057,3.1415,3.1652,3.2058,3.2709,3.3152,3.3098,3.3245,3.3481,3.3291,3.2972,3.2374,3.1236,3.0428,3.0224,3.0193,3.0094,2.9926,2.9883,2.9799,2.9631,2.9602,2.9775,3.0151,3.0729,3.1481,3.2441,3.3275,3.4007,3.4614,3.5335,3.5769,3.5816,3.6211,3.646,3.6492,3.6492,3.6492,3.6492,3.6492,3.6492,3.6492,3.6492,3.6492,3.6492,3.6492,3.6492,3.6399,3.5922,3.5367,3.4982,3.5275,3.543,3.5491,3.6061,3.6461,3.6415,3.5938,3.5645,3.5767,3.5608,3.4962,3.421,3.3831,3.3079,3.2556,3.2263,3.1861,3.1683,3.1655,3.1655,3.1626,3.1597,3.1568,3.1539,3.1524,3.1481,3.1451,3.0929,3.0244,2.9548,2.8881,2.8192,3.1061,3.1086,3.1024,3.1123,3.1123,3.1123,3.1061,3.1099,3.1024,3.1024,3.1024,3.1024,3.1024,3.0986,3.0986,3.0874,3.0647,3.0305,3.0126,3.0037,2.9895,2.9869,2.9895,2.983,2.9856,2.996,3.0582,3.0882,3.0932,3.0945,3.1267,3.1892,3.2001,3.2362,3.3108,3.3656,3.3965,3.3752,3.3979,3.4032,3.3605,3.3543,3.3496,3.3412,3.2767,3.2159,3.1575,3.1472,3.1166,3.0654,3.0584,3.0238,2.995,2.9865,2.9985,3.0646,3.1162,3.1924,3.2968,3.4174,3.496,3.5432,3.6038,3.6383,3.6352,3.646,3.6492,3.6492,3.6492,3.6492,3.6492,3.6492,3.6492,3.6492,3.6492,3.6492,3.6492,3.6492,3.6476,3.6338,3.5845,3.5537,3.546,3.546,3.5506,3.5584,3.6045,3.6492,3.643,3.5907,3.583,3.6029,3.5683,3.4841,3.4571,3.4272,3.3323,3.2532,3.2231,3.1953,3.1912,3.1883,3.1953,3.1968,3.2176,3.2148,3.1811,3.1768,3.1611,3.1462,3.0864,3.0387,2.9824,2.9215,2.8401,3.1773,3.1846,3.2304,3.2209,3.1773,3.1736,3.1736,3.17,3.1259,3.1024,3.1024,3.1024,3.1024,3.1024,3.1024,3.0986,3.0874,3.0609,3.0381,3.0152,3.0037,3.0203,3.0406,3.0037,3.0075,3.062,3.1341,3.1746,3.1696,3.1746,3.1892,3.216,3.2613,3.2932,3.3262,3.3962,3.4283,3.4182,3.4298,3.4298,3.4138,3.4109,3.4109,3.4095,3.392,3.3686,3.3475,3.2637,3.2105,3.1875,3.1875,3.1789,3.1616,3.1588,3.1779,3.2174,3.2665,3.3383,3.4284,3.4976,3.5627,3.6149,3.6445,3.6492,3.6492,3.6523,3.6523,3.6492,3.6492,3.6492,3.6492,3.6492,3.6492,3.6492,3.6492,3.6492,3.6492,3.6492,3.6261,3.5891,3.5629,3.5337,3.5075,3.5167,3.5568,3.5584,3.6091,3.6476,3.6399,3.5876,3.5537,3.5721,3.5171,3.4898,3.4657,3.4459,3.3889,3.2924,3.2388,3.2135,3.2094,3.2081,3.2178,3.237,3.2602,3.2614,3.2287,3.2092,3.2007,3.1545,3.1009,3.0578,3.0178,2.9463,2.8543,3.2254,3.2541,3.3003,3.2932,3.2506,3.2506,3.2506,3.2448,3.2028,3.1676,3.1505,3.1713,3.1653,3.1505,3.169,3.1653,3.1431,3.1542,3.132,3.0759,3.0545,3.0809,3.1291,3.0921,3.0859,3.1378,3.2146,3.2506,3.2506,3.2492,3.2662,3.2995,3.3122,3.3367,3.3624,3.4113,3.438,3.438,3.438,3.438,3.438,3.438,3.438,3.438,3.438,3.438,3.4356,3.3583,3.3108,3.2875,3.2658,3.2495,3.2513,3.2657,3.2966,3.3398,3.3897,3.4616,3.5473,3.5545,3.5904,3.6569,3.6507,3.643,3.6585,3.6677,3.6677,3.6693,3.6616,3.6585,3.6585,3.6523,3.6492,3.6492,3.6492,3.6492,3.6492,3.6492,3.6353,3.603,3.5891,3.566,3.5506,3.5537,3.5891,3.5938,3.6215,3.6492,3.6307,3.5706,3.5522,3.5547,3.5684,3.5319,3.4798,3.4564,3.4376,3.3504,3.2629,3.237,3.2219,3.2219,3.2302,3.2695,3.2986,3.3156,3.2906,3.2799,3.2676,3.1962,3.1265,3.0697,3.0187,2.9307,2.8461,3.2648,3.3227,3.3332,3.3367,3.3248,3.3248,3.3248,3.3248,3.3108,3.272,3.2376,3.2733,3.272,3.2412,3.2733,3.2648,3.2362,3.2684,3.2648,3.2051,3.1723,3.1806,3.2119,3.2241,3.229,3.229,3.2981,3.3262,3.3262,3.3297,3.3638,3.4094,3.3638,3.3638,3.4196,3.438,3.438,3.438,3.438,3.438,3.438,3.438,3.438,3.438,3.438,3.438,3.4351,3.4269,3.4037,3.3529,3.305,3.2817,3.2815,3.3138,3.3726,3.4292,3.4784,3.5522,3.6137,3.603,3.6044,3.6814,3.6517,3.6221,3.6845,3.6938,3.6938,3.6954,3.68,3.6693,3.6662,3.6585,3.6523,3.6492,3.6492,3.6492,3.6492,3.6492,3.643,3.6445,3.6476,3.6461,3.6292,3.6368,3.6399,3.6415,3.643,3.6461,3.6184,3.5707,3.5445,3.5464,3.5571,3.5423,3.4809,3.4366,3.4229,3.4092,3.3145,3.2614,3.252,3.2547,3.2846,3.3224,3.3531,3.3633,3.3608,3.3479,3.313,3.2489,3.1747,3.0929,3.0155,2.9414,2.8697,3.3822,3.4075,3.4624,3.4558,3.4075,3.3993,3.3993,3.3939,3.3437,3.3178,3.3003,3.3122,3.3143,3.2981,3.3108,3.3073,3.3038,3.3157,3.3492,3.3616,3.3457,3.2953,3.2904,3.363,3.3748,3.3332,3.3845,3.4216,3.4079,3.4045,3.4147,3.438,3.4196,3.4147,3.438,3.438,3.438,3.438,3.438,3.438,3.438,3.438,3.438,3.438,3.438,3.438,3.438,3.438,3.4337,3.4196,3.4037,3.4105,3.433,3.4528,3.4799,3.533,3.589,3.6307,3.6569,3.6643,3.684,3.7057,3.6809,3.6812,3.6952,3.7015,3.6999,3.6969,3.6831,3.6723,3.6693,3.6569,3.6523,3.6492,3.6492,3.6492,3.6492,3.6492,3.6492,3.6492,3.6492,3.6492,3.6492,3.6492,3.6492,3.6492,3.6461,3.6353,3.6045,3.5968,3.5768,3.4982,3.4869,3.4987,3.4786,3.4292,3.4127,3.4357,3.3726,3.2868,3.2895,3.3055,3.362,3.4202,3.448,3.4625,3.4366,3.4128,3.3572,3.3093,3.2504,3.1824,3.0821,2.9982,2.9184,3.4495,3.4839,3.5311,3.5246,3.4824,3.4806,3.4791,3.4725,3.439,3.3968,3.3782,3.4036,3.3953,3.3713,3.3988,3.3953,3.3699,3.4036,3.4225,3.4245,3.4524,3.424,3.3953,3.4606,3.4606,3.4201,3.4501,3.4597,3.4515,3.4448,3.4414,3.438,3.438,3.438,3.438,3.438,3.438,3.438,3.438,3.438,3.438,3.438,3.438,3.438,3.438,3.438,3.438,3.438,3.438,3.4399,3.4399,3.462,3.5106,3.5145,3.5297,3.5799,3.6274,3.6561,3.6591,3.677,3.7001,3.7142,3.7021,3.696,3.7133,3.7227,3.7211,3.7211,3.7029,3.6922,3.6892,3.6723,3.6569,3.6523,3.6492,3.6492,3.6492,3.6492,3.6492,3.6492,3.6492,3.6492,3.6492,3.6492,3.6492,3.6492,3.6492,3.6322,3.6122,3.6138,3.5952,3.5205,3.4974,3.5254,3.5422,3.5074,3.4477,3.4611,3.4103,3.3251,3.3277,3.3511,3.4036,3.4634,3.5148,3.5418,3.5021,3.4721,3.4456,3.3969,3.3407,3.256,3.1501,3.0531,2.9758,3.4872,3.5489,3.5489,3.5489,3.5457,3.5489,3.5424,3.5457,3.5359,3.5019,3.4643,3.5166,3.4953,3.448,3.4953,3.5067,3.4461,3.4986,3.4905,3.4872,3.5034,3.5148,3.4868,3.4902,3.4968,3.4835,3.4798,3.4765,3.4698,3.4549,3.4448,3.4448,3.4414,3.438,3.438,3.438,3.438,3.438,3.438,3.438,3.438,3.438,3.438,3.438,3.438,3.438,3.438,3.4414,3.4433,3.4515,3.4481,3.4787,3.5192,3.5148,3.5447,3.5949,3.6444,3.6618,3.6553,3.6695,3.6835,3.7275,3.6898,3.6785,3.7308,3.745,3.745,3.745,3.73,3.7164,3.7074,3.6877,3.6739,3.6616,3.6585,3.6554,3.6523,3.6523,3.6492,3.6492,3.6492,3.6492,3.6492,3.6492,3.6492,3.6492,3.6461,3.6276,3.6122,3.6091,3.5885,3.547,3.5518,3.5807,3.5934,3.5945,3.5321,3.4949,3.4301,3.37,3.37,3.3928,3.4292,3.4785,3.531,3.5554,3.547,3.5247,3.5062,3.4649,3.3978,3.3061,3.2071,3.1173,3.033,3.5344,3.5489,3.5489,3.5489,3.5489,3.5489,3.5489,3.5489,3.5489,3.5392,3.5279,3.5439,3.5392,3.5198,3.5392,3.5392,3.5198,3.5392,3.5359,3.5344,3.5359,3.5472,3.5359,3.5326,3.5294,3.5148,3.5129,3.5016,3.4835,3.4716,3.4631,3.4597,3.4481,3.438,3.438,3.438,3.438,3.438,3.438,3.438,3.438,3.438,3.438,3.438,3.438,3.438,3.438,3.438,3.4601,3.4935,3.507,3.5234,3.5691,3.6028,3.6367,3.6789,3.706,3.718,3.7227,3.7164,3.7291,3.7415,3.7352,3.7336,3.7447,3.751,3.751,3.748,3.7329,3.7164,3.7075,3.6984,3.6908,3.6877,3.6847,3.68,3.6677,3.6585,3.6523,3.6492,3.6492,3.6492,3.6492,3.6492,3.6492,3.6492,3.6384,3.623,3.6138,3.6091,3.5789,3.5505,3.5653,3.5791,3.5515,3.5642,3.5546,3.5138,3.4561,3.4292,3.4276,3.4202,3.4529,3.4975,3.547,3.56,3.56,3.556,3.5333,3.4911,3.4503,3.3647,3.2768,3.1836,3.0984,3.5489,3.5489,3.5489,3.5489,3.5489,3.5489,3.5489,3.5489,3.5489,3.5489,3.5489,3.5489,3.5489,3.5489,3.5489,3.5489,3.5489,3.5489,3.5504,3.5457,3.5504,3.5504,3.5489,3.5504,3.5439,3.5326,3.5228,3.5148,3.5001,3.4883,3.4765,3.4698,3.4597,3.4481,3.4414,3.438,3.438,3.438,3.438,3.438,3.438,3.438,3.438,3.438,3.438,3.438,3.438,3.438,3.4702,3.5103,3.5429,3.5769,3.6104,3.6261,3.6486,3.6857,3.699,3.6975,3.699,3.7291,3.7494,3.751,3.751,3.751,3.751,3.751,3.751,3.748,3.7405,3.7285,3.7135,3.7105,3.7075,3.6999,3.6999,3.6923,3.6816,3.6693,3.6554,3.6523,3.6492,3.6492,3.6492,3.6523,3.6492,3.6492,3.6492,3.6353,3.6353,3.6245,3.5789,3.5571,3.5665,3.5572,3.512,3.5145,3.5467,3.5211,3.492,3.4887,3.4981,3.4816,3.4697,3.5155,3.56,3.56,3.56,3.5577,3.5538,3.5293,3.4844,3.4201,3.3493,3.2631,3.1882,3.5489,3.5489,3.5489,3.5489,3.5489,3.5489,3.5489,3.5489,3.5489,3.5489,3.5489,3.5489,3.5489,3.5489,3.5489,3.5489,3.5489,3.5489,3.5489,3.5489,3.5489,3.5489,3.5489,3.5504,3.5504,3.5457,3.5359,3.5246,3.518,3.5049,3.4931,3.4798,3.4698,3.4597,3.4481,3.4414,3.438,3.438,3.438,3.438,3.438,3.438,3.438,3.438,3.438,3.438,3.438,3.4448,3.4702,3.5267,3.5705,3.618,3.6507,3.638,3.614,3.6614,3.6769,3.6817,3.6927,3.7196,3.751,3.751,3.751,3.751,3.751,3.751,3.751,3.751,3.748,3.7405,3.7254,3.727,3.7195,3.7121,3.709,3.706,3.6999,3.6877,3.6754,3.6647,3.6647,3.6647,3.6585,3.6585,3.6523,3.6492,3.6492,3.6523,3.6523,3.6369,3.5959,3.5574,3.5606,3.5522,3.5119,3.5178,3.5424,3.5379,3.5178,3.527,3.5447,3.5293,3.5131,3.5333,3.56,3.5616,3.5616,3.56,3.5577,3.5515,3.5283,3.4754,3.4087,3.3395,3.2741,3.5489,3.5489,3.5489,3.5489,3.5489,3.5489,3.5489,3.5489,3.5489,3.5489,3.5489,3.5489,3.5489,3.5489,3.5489,3.5489,3.5489,3.5489,3.5489,3.5489,3.5489,3.5489,3.5489,3.5489,3.5489,3.5504,3.5424,3.5424,3.5407,3.5261,3.5129,3.5063,3.4865,3.4698,3.4616,3.4481,3.4448,3.4414,3.4414,3.438,3.438,3.438,3.438,3.438,3.438,3.438,3.438,3.4448,3.482,3.5672,3.5849,3.643,3.7028,3.7158,3.7154,3.7182,3.7196,3.7164,3.7273,3.7383,3.751,3.751,3.751,3.751,3.751,3.751,3.751,3.751,3.751,3.748,3.7435,3.7405,3.7435,3.7421,3.7391,3.7315,3.721,3.715,3.7059,3.6923,3.6892,3.6831,3.6739,3.6677,3.6647,3.6647,3.6616,3.6616,3.6616,3.6461,3.6209,3.5828,3.5514,3.5357,3.514,3.5364,3.556,3.5577,3.5447,3.5464,3.5554,3.5554,3.56,3.56,3.5616,3.5616,3.5616,3.5616,3.56,3.5577,3.5424,3.5293,3.4714,3.4111,3.3738,3.5489,3.5489,3.5489,3.5489,3.5489,3.5489,3.5489,3.5489,3.5489,3.5489,3.5489,3.5489,3.5489,3.5489,3.5489,3.5489,3.5489,3.5489,3.5489,3.5489,3.5489,3.5489,3.5489,3.5489,3.5489,3.5504,3.5489,3.5489,3.5489,3.5407,3.5294,3.5195,3.5016,3.4916,3.4783,3.465,3.4549,3.4515,3.4448,3.4414,3.438,3.438,3.438,3.438,3.438,3.438,3.438,3.438,3.4872,3.5657,3.5881,3.6492,3.715,3.751,3.751,3.751,3.751,3.751,3.751,3.751,3.751,3.751,3.751,3.751,3.751,3.751,3.751,3.751,3.751,3.751,3.751,3.751,3.751,3.751,3.751,3.7435,3.7405,3.7359,3.7315,3.7211,3.709,3.6969,3.6908,3.6847,3.68,3.677,3.6739,3.6739,3.6708,3.6614,3.6471,3.5888,3.549,3.5256,3.5181,3.5364,3.5667,3.5689,3.5644,3.5644,3.5622,3.56,3.56,3.56,3.5616,3.5639,3.5616,3.5616,3.5616,3.5616,3.5532,3.5402,3.5247,3.4922,3.4488,3.5489,3.5489,3.5489,3.5489,3.5489,3.5489,3.5489,3.5489,3.5489,3.5489,3.5489,3.5489,3.5489,3.5489,3.5489,3.5489,3.5489,3.5489,3.5489,3.5489,3.5489,3.5489,3.5489,3.5489,3.5489,3.5489,3.5489,3.5489,3.5489,3.5472,3.5407,3.5294,3.5246,3.5148,3.4983,3.4817,3.4765,3.4664,3.4563,3.4448,3.4414,3.438,3.438,3.438,3.438,3.438,3.438,3.438,3.4905,3.5593,3.5976,3.6368,3.7285,3.751,3.751,3.751,3.751,3.751,3.751,3.751,3.751,3.751,3.751,3.751,3.751,3.751,3.751,3.751,3.751,3.751,3.751,3.751,3.751,3.751,3.751,3.751,3.748,3.748,3.7464,3.7361,3.7211,3.7121,3.706,3.7014,3.6968,3.6892,3.6877,3.6877,3.6877,3.6908,3.6624,3.593,3.5457,3.5212,3.5181,3.5291,3.5605,3.5822,3.5756,3.5706,3.5667,3.5644,3.5622,3.5622,3.5684,3.5684,3.5661,3.5616,3.5616,3.5616,3.5616,3.5554,3.5402,3.5293,3.4998,3.5489,3.5489,3.5489,3.5489,3.5489,3.5489,3.5489,3.5489,3.5489,3.5489,3.5489,3.5489,3.5489,3.5489,3.5489,3.5489,3.5489,3.5489,3.5489,3.5489,3.5489,3.5489,3.5489,3.5489,3.5489,3.5489,3.5489,3.5489,3.5489,3.5489,3.5489,3.5424,3.5294,3.518,3.5162,3.4983,3.4817,3.4731,3.4664,3.4563,3.4414,3.4414,3.438,3.438,3.438,3.438,3.4414,3.4467,3.4938,3.5753,3.5913,3.643,3.7285,3.751,3.751,3.751,3.751,3.751,3.751,3.751,3.751,3.751,3.751,3.751,3.751,3.751,3.751,3.751,3.751,3.751,3.751,3.751,3.751,3.751,3.751,3.751,3.751,3.751,3.751,3.751,3.7361,3.7285,3.721,3.7164,3.7134,3.7044,3.6999,3.703,3.703,3.709,3.6604,3.5814,3.5689,3.5511,3.5203,3.5344,3.565,3.5932,3.5866,3.5795,3.5773,3.5734,3.5667,3.5689,3.5728,3.5751,3.5711,3.5689,3.5622,3.5616,3.5616,3.5616,3.56,3.5492,3.5385,3.5489,3.5489,3.5489,3.5489,3.5489,3.5489,3.5489,3.5489,3.5489,3.5489,3.5489,3.5489,3.5489,3.5489,3.5489,3.5489,3.5489,3.5489,3.5489,3.5489,3.5489,3.5489,3.5489,3.5489,3.5489,3.5489,3.5489,3.5489,3.5489,3.5489,3.5489,3.5457,3.5424,3.5392,3.5326,3.518,3.5082,3.4949,3.4798,3.465,3.4549,3.4448,3.4414,3.4414,3.4414,3.4414,3.4481,3.4754,3.5169,3.5849,3.6134,3.6708,3.7285,3.751,3.751,3.751,3.751,3.751,3.751,3.751,3.751,3.751,3.751,3.751,3.751,3.751,3.751,3.751,3.751,3.751,3.751,3.751,3.751,3.751,3.751,3.751,3.751,3.751,3.751,3.751,3.751,3.7435,3.7359,3.7329,3.73,3.7285,3.7241,3.7271,3.7301,3.7331,3.6589,3.5531,3.5707,3.5925,3.554,3.5407,3.5822,3.6058,3.5997,3.591,3.5927,3.5866,3.58,3.58,3.5888,3.5866,3.58,3.5756,3.5728,3.5684,3.5616,3.5639,3.5622,3.56,3.5459,3.5489,3.5489,3.5489,3.5489,3.5489,3.5489,3.5489,3.5489,3.5489,3.5489,3.5489,3.5489,3.5489,3.5489,3.5489,3.5489,3.5489,3.5489,3.5489,3.5489,3.5489,3.5489,3.5489,3.5489,3.5489,3.5489,3.5489,3.5489,3.5489,3.5489,3.5489,3.5489,3.5457,3.5457,3.5457,3.5344,3.5246,3.5115,3.4865,3.4731,3.4716,3.4563,3.4515,3.4515,3.4481,3.4481,3.4549,3.492,3.5382,3.5881,3.6383,3.6907,3.7391,3.751,3.751,3.751,3.751,3.751,3.751,3.751,3.751,3.751,3.751,3.751,3.751,3.751,3.751,3.751,3.751,3.751,3.751,3.751,3.751,3.751,3.751,3.751,3.751,3.751,3.751,3.751,3.751,3.751,3.748,3.748,3.748,3.751,3.751,3.751,3.7478,3.7433,3.6564,3.5493,3.5249,3.5531,3.5411,3.5362,3.5822,3.6144,3.6079,3.6079,3.6058,3.6014,3.5932,3.5975,3.6019,3.5975,3.5932,3.5883,3.5817,3.5751,3.5706,3.5644,3.5622,3.5622,3.5583,3.5489,3.5489,3.5489,3.5489,3.5489,3.5489,3.5489,3.5489,3.5489,3.5489,3.5489,3.5489,3.5489,3.5489,3.5489,3.5489,3.5489,3.5489,3.5489,3.5489,3.5489,3.5489,3.5489,3.5489,3.5489,3.5489,3.5489,3.5489,3.5489,3.5489,3.5489,3.5489,3.5489,3.5489,3.5489,3.5424,3.5359,3.5228,3.4931,3.4883,3.4883,3.485,3.475,3.4835,3.4783,3.4664,3.4698,3.5136,3.5512,3.5991,3.6523,3.6968,3.7421,3.751,3.751,3.751,3.751,3.751,3.751,3.751,3.751,3.751,3.751,3.751,3.751,3.751,3.751,3.751,3.751,3.751,3.751,3.751,3.751,3.751,3.751,3.751,3.751,3.751,3.751,3.751,3.751,3.751,3.751,3.751,3.751,3.751,3.751,3.751,3.7368,3.7196,3.6421,3.5537,3.4897,3.4832,3.4897,3.5138,3.5611,3.5997,3.6105,3.6144,3.6182,3.6122,3.6084,3.6084,3.6105,3.6084,3.6041,3.6019,3.5975,3.5861,3.5773,3.5734,3.5689,3.5684,3.5661,3.5489,3.5489,3.5489,3.5489,3.5489,3.5489,3.5489,3.5489,3.5489,3.5489,3.5489,3.5489,3.5489,3.5489,3.5489,3.5489,3.5489,3.5489,3.5489,3.5489,3.5489,3.5489,3.5489,3.5489,3.5489,3.5489,3.5489,3.5489,3.5489,3.5489,3.5489,3.5489,3.5489,3.5489,3.5489,3.5489,3.5424,3.5359,3.518,3.5213,3.5542,3.5133,3.5067,3.5479,3.5479,3.5184,3.5052,3.5897,3.6102,3.6321,3.6816,3.7225,3.7464,3.751,3.751,3.751,3.7539,3.751,3.751,3.751,3.751,3.751,3.751,3.751,3.751,3.751,3.751,3.751,3.751,3.751,3.751,3.751,3.751,3.751,3.751,3.751,3.751,3.751,3.751,3.751,3.751,3.751,3.751,3.751,3.751,3.751,3.751,3.7478,3.7338,3.7101,3.639,3.5735,3.5138,3.4622,3.4684,3.503,3.5385,3.5744,3.6105,3.617,3.6208,3.6255,3.6216,3.6195,3.6195,3.6174,3.6174,3.6174,3.6127,3.5993,3.5888,3.5866,3.58,3.5751,3.5711,3.5489,3.5489,3.5489,3.5489,3.5489,3.5489,3.5489,3.5489,3.5489,3.5489,3.5489,3.5489,3.5489,3.5489,3.5489,3.5489,3.5489,3.5489,3.5489,3.5489,3.5489,3.5489,3.5489,3.5489,3.5489,3.5489,3.5489,3.5489,3.5489,3.5489,3.5489,3.5489,3.5489,3.5489,3.5489,3.5489,3.5489,3.5457,3.5604,3.5718,3.6101,3.5928,3.5817,3.6275,3.6212,3.5929,3.5785,3.6321,3.6554,3.6677,3.6998,3.7464,3.7553,3.7553,3.7553,3.7553,3.7569,3.751,3.751,3.751,3.751,3.751,3.751,3.751,3.751,3.751,3.751,3.751,3.751,3.751,3.751,3.751,3.751,3.751,3.751,3.751,3.751,3.751,3.751,3.751,3.751,3.751,3.751,3.751,3.751,3.751,3.751,3.7478,3.7415,3.7085,3.6595,3.5969,3.5383,3.4963,3.4644,3.4751,3.492,3.5571,3.5876,3.6092,3.6156,3.6241,3.6284,3.6241,3.6241,3.6284,3.6262,3.6259,3.6191,3.6101,3.6019,3.5954,3.591,3.5866,3.5822,3.5489,3.5489,3.5489,3.5489,3.5489,3.5489,3.5489,3.5489,3.5489,3.5489,3.5489,3.5489,3.5489,3.5489,3.5489,3.5489,3.5489,3.5489,3.5489,3.5489,3.5489,3.5489,3.5489,3.5489,3.5489,3.5489,3.5489,3.5489,3.5489,3.5489,3.5489,3.5489,3.5489,3.5489,3.5489,3.5489,3.5489,3.5554,3.591,3.6196,3.6492,3.6677,3.6905,3.7115,3.695,3.6661,3.6477,3.6799,3.7013,3.6892,3.724,3.7671,3.7873,3.7655,3.7655,3.7799,3.7612,3.7539,3.7494,3.751,3.751,3.751,3.751,3.751,3.751,3.751,3.751,3.751,3.751,3.751,3.751,3.751,3.751,3.751,3.751,3.751,3.751,3.751,3.751,3.751,3.751,3.751,3.751,3.751,3.751,3.751,3.751,3.7478,3.7431,3.7196,3.6785,3.6166,3.561,3.5015,3.4583,3.43,3.4497,3.5201,3.5705,3.5941,3.6156,3.6262,3.6284,3.6284,3.6284,3.6284,3.6284,3.6284,3.6216,3.617,3.6084,3.6041,3.5997,3.5975,3.5954,3.5489,3.5489,3.5489,3.5489,3.5489,3.5489,3.5489,3.5489,3.5489,3.5489,3.5489,3.5489,3.5489,3.5489,3.5489,3.5489,3.5489,3.5489,3.5489,3.5489,3.5489,3.5489,3.5489,3.5489,3.5489,3.5489,3.5489,3.5489,3.5489,3.5489,3.5489,3.5489,3.5489,3.5489,3.5489,3.5489,3.5489,3.5587,3.6022,3.6538,3.7011,3.728,3.756,3.7966,3.7777,3.7427,3.6995,3.7417,3.7492,3.7268,3.7626,3.7918,3.8103,3.7947,3.7815,3.7857,3.7671,3.7612,3.7626,3.7655,3.751,3.751,3.751,3.751,3.751,3.751,3.751,3.751,3.751,3.751,3.751,3.751,3.751,3.751,3.751,3.751,3.751,3.751,3.751,3.751,3.751,3.7526,3.7526,3.751,3.751,3.751,3.751,3.751,3.7478,3.7399,3.7101,3.6406,3.5767,3.5094,3.4579,3.4364,3.428,3.4809,3.5413,3.5854,3.6028,3.6199,3.6284,3.6284,3.6284,3.6284,3.6284,3.6284,3.628,3.6255,3.6191,3.6127,3.6127,3.6105,3.6062,3.5489,3.5489,3.5489,3.5489,3.5489,3.5489,3.5489,3.5489,3.5489,3.5489,3.5489,3.5489,3.5489,3.5489,3.5489,3.5489,3.5489,3.5489,3.5489,3.5489,3.5489,3.5489,3.5489,3.5489,3.5489,3.5489,3.5489,3.5489,3.5489,3.5489,3.5489,3.5489,3.5489,3.5489,3.5489,3.5489,3.5651,3.5941,3.6492,3.7101,3.7605,3.7982,3.8282,3.8507,3.8451,3.8181,3.7883,3.7972,3.8221,3.7931,3.796,3.8234,3.8347,3.829,3.8075,3.8004,3.786,3.7831,3.7947,3.7815,3.7685,3.7655,3.7553,3.751,3.751,3.751,3.751,3.751,3.751,3.751,3.751,3.751,3.7573,3.7573,3.781,3.7826,3.7923,3.7954,3.8206,3.8142,3.7826,3.7779,3.7541,3.7526,3.751,3.751,3.751,3.751,3.751,3.7447,3.7383,3.6801,3.6153,3.5577,3.4963,3.4447,3.4426,3.4513,3.5008,3.5583,3.5902,3.6075,3.6178,3.6284,3.6284,3.6284,3.6284,3.6284,3.6301,3.6301,3.6262,3.6237,3.6233,3.6191,3.617,3.5489,3.5489,3.5489,3.5489,3.5489,3.5489,3.5489,3.5489,3.5489,3.5489,3.5489,3.5489,3.5489,3.5489,3.5489,3.5489,3.5489,3.5489,3.5489,3.5489,3.5489,3.5489,3.5489,3.5489,3.5489,3.5489,3.5489,3.5489,3.5489,3.5489,3.5489,3.5489,3.5489,3.5489,3.5489,3.5683,3.5878,3.6321,3.686,3.7472,3.8023,3.8761,3.8969,3.9067,3.8914,3.875,3.8528,3.8516,3.8448,3.8363,3.842,3.8572,3.8628,3.856,3.8448,3.8307,3.8046,3.816,3.829,3.8103,3.8017,3.7988,3.7743,3.7612,3.751,3.751,3.751,3.751,3.751,3.751,3.751,3.7605,3.77,3.7923,3.827,3.8428,3.8618,3.8823,3.9139,3.9029,3.857,3.8239,3.7668,3.751,3.751,3.751,3.751,3.751,3.751,3.751,3.7431,3.7336,3.669,3.6121,3.5498,3.4943,3.4851,3.5031,3.4857,3.5274,3.5588,3.5997,3.6092,3.6199,3.6262,3.6284,3.6284,3.6284,3.6284,3.6284,3.6284,3.6284,3.6259,3.6259,3.6259,3.5489,3.5489,3.5489,3.5489,3.5489,3.5489,3.5489,3.5489,3.5489,3.5489,3.5489,3.5489,3.5489,3.5489,3.5489,3.5489,3.5489,3.5489,3.5489,3.5489,3.5489,3.5489,3.5489,3.5489,3.5489,3.5489,3.5489,3.5489,3.5489,3.5489,3.5489,3.5489,3.5489,3.5489,3.5651,3.591,3.6196,3.6569,3.7145,3.7764,3.8351,3.8996,3.9218,3.9245,3.9218,3.904,3.8832,3.875,3.8711,3.8683,3.8711,3.8777,3.875,3.8694,3.8655,3.842,3.8335,3.8375,3.8556,3.8387,3.8303,3.8387,3.8234,3.7876,3.7687,3.7569,3.7569,3.7553,3.7553,3.7553,3.7698,3.778,3.7938,3.8239,3.8681,3.9171,3.9345,3.955,3.9787,3.9376,3.8934,3.8349,3.7794,3.751,3.751,3.751,3.751,3.751,3.751,3.751,3.7494,3.7415,3.7216,3.6626,3.6159,3.5629,3.5539,3.5491,3.5444,3.5488,3.5933,3.6253,3.6139,3.6152,3.6241,3.6284,3.6284,3.6284,3.6284,3.6284,3.6284,3.6284,3.6284,3.6284,3.6284,3.5489,3.5489,3.5489,3.5489,3.5489,3.5489,3.5489,3.5489,3.5489,3.5489,3.5489,3.5489,3.5489,3.5489,3.5489,3.5489,3.5489,3.5489,3.5489,3.5489,3.5489,3.5489,3.5489,3.5489,3.5489,3.5489,3.5489,3.5489,3.5489,3.5489,3.5489,3.5489,3.5489,3.5489,3.5636,3.6022,3.6508,3.6951,3.7442,3.8051,3.859,3.9077,3.9218,3.9315,3.9315,3.9164,3.9013,3.8985,3.8985,3.9013,3.8996,3.9013,3.8942,3.8887,3.8887,3.8727,3.8628,3.8722,3.8887,3.8694,3.8694,3.8683,3.8588,3.825,3.8049,3.7934,3.7831,3.7743,3.7685,3.7673,3.7854,3.8017,3.8254,3.8507,3.9187,3.9882,4.0072,4.023,3.9961,3.955,3.9029,3.8444,3.7986,3.77,3.751,3.751,3.751,3.751,3.751,3.751,3.751,3.7478,3.7382,3.7112,3.6708,3.6418,3.6432,3.6427,3.6488,3.6566,3.6679,3.6644,3.6646,3.6461,3.6262,3.6284,3.6284,3.6284,3.6284,3.6284,3.6284,3.6284,3.6284,3.6284,3.6284,3.5489,3.5489,3.5489,3.5489,3.5489,3.5489,3.5489,3.5489,3.5489,3.5489,3.5489,3.5489,3.5489,3.5489,3.5489,3.5489,3.5489,3.5489,3.5489,3.5489,3.5489,3.5489,3.5489,3.5489,3.5489,3.5489,3.5489,3.5489,3.5489,3.5489,3.5489,3.5489,3.5489,3.5489,3.5587,3.629,3.6829,3.7235,3.7937,3.8645,3.9023,3.9272,3.9315,3.9315,3.9315,3.9272,3.9272,3.9288,3.9315,3.9299,3.9272,3.9272,3.9148,3.8969,3.9013,3.9067,3.8958,3.9013,3.9094,3.8985,3.8887,3.8821,3.8616,3.856,3.8504,3.825,3.8107,3.8101,3.8104,3.8238,3.8451,3.8957,3.9325,3.958,4.0087,4.0546,4.0704,4.0719,4.0451,3.9961,3.9345,3.8697,3.7842,3.751,3.751,3.751,3.751,3.751,3.751,3.751,3.751,3.7539,3.7668,3.7641,3.7432,3.7249,3.7367,3.7437,3.7486,3.7489,3.7479,3.7359,3.7215,3.6908,3.6559,3.6353,3.6284,3.6284,3.6284,3.6284,3.6284,3.6284,3.6284,3.6284,3.6284,3.5489,3.5489,3.5489,3.5489,3.5489,3.5489,3.5489,3.5489,3.5489,3.5489,3.5489,3.5489,3.5489,3.5489,3.5489,3.5489,3.5489,3.5489,3.5489,3.5489,3.5504,3.5489,3.5489,3.5489,3.5489,3.5489,3.5489,3.5489,3.5489,3.5489,3.5489,3.5489,3.5522,3.5587,3.5668,3.6523,3.731,3.756,3.8423,3.8996,3.9245,3.9315,3.9315,3.9315,3.9315,3.9315,3.9315,3.9315,3.9315,3.9299,3.9299,3.9315,3.9288,3.8985,3.9013,3.9218,3.9218,3.9218,3.9218,3.9191,3.9121,3.9164,3.9083,3.9083,3.8947,3.8616,3.8472,3.8529,3.8649,3.8834,3.9181,3.9836,4.0401,4.0657,4.0944,4.1149,4.1354,4.1131,4.0893,4.0309,3.9677,3.8854,3.7951,3.7539,3.751,3.751,3.751,3.751,3.751,3.751,3.751,3.7612,3.8042,3.8076,3.797,3.8226,3.847,3.8389,3.8413,3.837,3.8311,3.7923,3.7581,3.7219,3.687,3.6611,3.6387,3.6284,3.6284,3.6284,3.6284,3.6284,3.6284,3.6284,3.6284,3.5489,3.5489,3.5489,3.5489,3.5489,3.5489,3.5489,3.5489,3.5489,3.5489,3.5489,3.5489,3.5489,3.5489,3.5489,3.5539,3.5539,3.5537,3.5554,3.5572,3.5522,3.5489,3.5489,3.5489,3.5489,3.5489,3.5489,3.5489,3.5489,3.5489,3.5489,3.5554,3.5651,3.591,3.6053,3.7071,3.7764,3.7879,3.886,3.9235,3.9332,3.9315,3.9315,3.9315,3.9315,3.9315,3.9315,3.9315,3.9315,3.9315,3.9315,3.9315,3.9272,3.9121,3.9121,3.9245,3.9315,3.9315,3.9315,3.9315,3.9315,3.9315,3.9315,3.9218,3.9218,3.8953,3.9065,3.9156,3.9316,3.9503,3.9965,4.0561,4.0916,4.1209,4.1612,4.1933,4.1772,4.1514,4.1085,4.0482,3.9913,3.9369,3.851,3.7839,3.7793,3.7685,3.7655,3.751,3.751,3.7539,3.7539,3.7743,3.8197,3.8601,3.8696,3.9146,3.9708,3.9581,3.932,3.9299,3.9166,3.8471,3.7927,3.7633,3.7254,3.6784,3.6577,3.6404,3.6301,3.6284,3.6284,3.6284,3.6284,3.6284,3.6284,3.5489,3.5489,3.5489,3.5489,3.5489,3.5489,3.5489,3.5489,3.5489,3.5489,3.5489,3.5489,3.5489,3.5489,3.5489,3.5589,3.5638,3.5589,3.5621,3.5653,3.5572,3.5554,3.5489,3.5489,3.5489,3.5489,3.5489,3.5489,3.5489,3.5489,3.5522,3.5619,3.5958,3.6399,3.6784,3.7531,3.8222,3.8432,3.8986,3.9344,3.9365,3.9315,3.9315,3.9315,3.9315,3.9315,3.9315,3.9315,3.9315,3.9315,3.9315,3.9315,3.9315,3.9245,3.9245,3.9315,3.9315,3.9315,3.9315,3.9315,3.9315,3.9315,3.9315,3.9315,3.9299,3.9466,3.9611,3.9923,4.0085,4.0394,4.086,4.1297,4.1624,4.1837,4.2261,4.2491,4.219,4.1884,4.1389,4.0801,4.0355,3.9868,3.9145,3.844,3.8123,3.7969,3.7756,3.7596,3.7524,3.7583,3.7583,3.7988,3.8507,3.8865,3.9152,3.9808,4.0402,4.0351,4.0073,4.0124,3.9957,3.9255,3.8617,3.8134,3.7719,3.718,3.6749,3.649,3.6404,3.6301,3.6284,3.6284,3.6284,3.6284,3.6284,3.5489,3.5489,3.5489,3.5489,3.5489,3.5489,3.5489,3.5489,3.5489,3.5489,3.5489,3.5489,3.5489,3.5489,3.5489,3.5604,3.572,3.5671,3.5671,3.5688,3.5638,3.5604,3.5537,3.5489,3.5489,3.5489,3.5489,3.5489,3.5489,3.5489,3.5489,3.5522,3.6133,3.6492,3.6662,3.7562,3.8565,3.8879,3.9473,4.0028,3.9514,3.9415,3.9315,3.9315,3.9315,3.9315,3.9315,3.9315,3.9315,3.9315,3.9315,3.9315,3.9315,3.9315,3.9315,3.9315,3.9315,3.9315,3.9315,3.9315,3.9315,3.9315,3.9332,3.9365,3.9531,3.9928,4.0266,4.0943,4.1184,4.1481,4.1901,4.2346,4.2694,4.2602,4.2818,4.2679,4.2459,4.2332,4.2027,4.1625,4.1252,4.0568,3.9744,3.915,3.8721,3.8457,3.7992,3.7817,3.7583,3.7612,3.7732,3.8193,3.8738,3.9001,3.9232,4.0137,4.071,4.0734,4.0741,4.0606,4.0359,3.998,3.941,3.8858,3.8185,3.7599,3.7167,3.6732,3.6456,3.6353,3.6301,3.6284,3.6284,3.6284,3.6284]}]]